[[{"header":{"parameterUnit":"m.s-1","parameterCategory":1,"la1":30.6,"la2":28.766,"lo1":-90.7593,"lo2":-88.6598,"dy":0.0162,"dx":0.0183,"nx":116,"ny":114,"refTime":"2024-03-14T18:00:00:Z","depth":0,"parameterNumber":2,"parameterNumberName":"U-component_of_WINDS"},"data":[0.0,0.0,0.0,0.0,0.0,0.0,0.0,0.0,0.0,0.0,0.0,0.0,0.0,0.0,0.0,0.0,0.0,0.0,0.0,0.0,0.0,0.0,0.0,0.0,0.0,0.0,0.0,0.0,0.0,0.0,0.0,0.0,0.0,0.0,0.0,0.0,0.0,0.0,0.0,0.0,0.0,0.0,0.0,0.0,0.0,0.0,0.0,0.0,0.0,0.0,0.0,0.0,0.0,0.0,0.0,0.0,0.0,0.0,0.0,0.0,0.0,0.0,0.0,0.0,0.0,0.0,0.0,0.0,0.0,0.0,0.0,0.0,0.0,0.0,0.0,0.0,0.0,0.0,0.0,0.0,0.0,0.0,0.0,0.0,0.0,0.0,0.0,0.0,0.0,0.0,0.0,0.0,0.0,0.0,0.0,0.0,0.0,0.0,0.0,0.0,0.0,0.0,0.0,0.0,0.0,0.0,0.0,0.0,0.0,0.0,0.0,0.0,0.0,0.0,0.0,0.0,0.0,0.0,0.0,0.0,0.0,0.0,0.0,0.0,0.0,0.0,0.0,0.0,0.0,0.0,0.0,0.0,0.0,0.0,0.0,0.0,0.0,0.0,0.0,0.0,0.0,0.0,0.0,0.0,0.0,0.0,0.0,0.0,0.0,0.0,0.0,0.0,0.0,0.0,0.0,0.0,0.0,0.0,0.0,0.0,0.0,0.0,0.0,0.0,0.0,0.0,0.0,0.0,0.0,0.0,0.0,0.0,0.0,0.0,0.0,0.0,0.0,0.0,0.0,0.0,0.0,0.0,0.0,0.0,0.0,0.0,0.0,0.0,0.0,0.0,0.0,0.0,0.0,0.0,0.0,0.0,0.0,0.0,0.0,0.0,0.0,0.0,0.0,0.0,0.0,0.0,0.0,0.0,0.0,0.0,0.0,0.0,0.0,0.0,0.0,0.0,0.0,0.0,0.0,0.0,0.0,0.0,0.0,0.0,0.0,0.0,0.0,0.0,0.0,0.0,0.0,0.0,0.0,0.0,0.0,0.0,0.0,0.0,0.0,0.0,0.0,0.0,0.0,0.0,0.0,0.0,0.0,0.0,0.0,0.0,0.0,0.0,0.0,0.0,0.0,0.0,0.0,0.0,0.0,0.0,0.0,0.0,0.0,0.0,0.0,0.0,0.0,0.0,0.0,0.0,0.0,0.0,0.0,0.0,0.0,0.0,0.0,0.0,0.0,0.0,0.0,0.0,0.0,0.0,0.0,0.0,0.0,0.0,0.0,0.0,0.0,0.0,0.0,0.0,0.0,0.0,0.0,0.0,0.0,0.0,0.0,0.0,0.0,0.0,0.0,0.0,0.0,0.0,0.0,0.0,0.0,0.0,0.0,0.0,0.0,0.0,0.0,0.0,0.0,0.0,0.0,0.0,0.0,0.0,0.0,0.0,0.0,0.0,0.0,0.0,0.0,0.0,0.0,0.0,0.0,0.0,0.0,0.0,0.0,0.0,0.0,0.0,0.0,0.0,0.0,0.0,0.0,0.0,0.0,0.0,0.0,0.0,0.0,0.0,0.0,0.0,0.0,0.0,0.0,0.0,0.0,0.0,0.0,0.0,0.0,0.0,0.0,0.0,0.0,0.0,0.0,0.0,0.0,0.0,0.0,0.0,0.0,0.0,0.0,0.0,0.0,0.0,0.0,0.0,0.0,0.0,0.0,0.0,0.0,0.0,0.0,0.0,0.0,0.0,0.0,0.0,0.0,0.0,0.0,0.0,0.0,0.0,0.0,0.0,0.0,0.0,0.0,0.0,0.0,0.0,0.0,0.0,0.0,0.0,0.0,0.0,0.0,0.0,0.0,0.0,0.0,0.0,0.0,0.0,0.0,0.0,0.0,0.0,0.0,0.0,0.0,0.0,0.0,0.0,0.0,0.0,0.0,0.0,0.0,0.0,0.0,0.0,0.0,0.0,0.0,0.0,0.0,0.0,0.0,0.0,0.0,0.0,0.0,0.0,0.0,0.0,0.0,0.0,0.0,0.0,0.0,0.0,0.0,0.0,0.0,0.0,0.0,0.0,0.0,0.0,0.0,0.0,0.0,0.0,0.0,0.0,0.0,0.0,0.0,0.0,0.0,0.0,0.0,0.0,0.0,0.0,0.0,0.0,0.0,0.0,0.0,0.0,0.0,0.0,0.0,0.0,0.0,0.0,0.0,0.0,0.0,0.0,0.0,0.0,0.0,0.0,0.0,0.0,0.0,0.0,0.0,0.0,0.0,0.0,0.0,0.0,0.0,0.0,0.0,0.0,0.0,0.0,0.0,0.0,0.0,0.0,0.0,0.0,0.0,0.0,0.0,0.0,0.0,0.0,0.0,0.0,0.0,0.0,0.0,0.0,0.0,0.0,0.0,0.0,0.0,0.0,0.0,0.0,0.0,0.0,0.0,0.0,0.0,0.0,0.0,0.0,0.0,0.0,0.0,0.0,0.0,0.0,0.0,0.0,0.0,0.0,0.0,0.0,0.0,0.0,0.0,0.0,0.0,0.0,0.0,0.0,0.0,0.0,0.0,0.0,0.0,0.0,0.0,0.0,0.0,0.0,0.0,0.0,0.0,0.0,0.0,0.0,0.0,0.0,0.0,0.0,0.0,0.0,0.0,0.0,0.0,0.0,0.0,0.0,0.0,0.0,0.0,0.0,0.0,0.0,0.0,0.0,0.0,0.0,0.0,0.0,0.0,0.0,0.0,0.0,0.0,0.0,0.0,0.0,0.0,0.0,0.0,0.0,0.0,0.0,0.0,0.0,0.0,0.0,0.0,0.0,0.0,0.0,0.0,0.0,0.0,0.0,0.0,0.0,0.0,0.0,0.0,0.0,0.0,0.0,0.0,0.0,0.0,0.0,0.0,0.0,0.0,0.0,0.0,0.0,0.0,0.0,0.0,0.0,0.0,0.0,0.0,0.0,0.0,0.0,0.0,0.0,0.0,0.0,0.0,0.0,0.0,0.0,0.0,0.0,0.0,0.0,0.0,0.0,0.0,0.0,0.0,0.0,0.0,0.0,0.0,0.0,0.0,0.0,0.0,0.0,0.0,0.0,0.0,0.0,0.0,0.0,0.0,0.0,0.0,0.0,0.0,0.0,0.0,0.0,0.0,0.0,0.0,0.0,0.0,0.0,0.0,0.0,0.0,0.0,0.0,0.0,0.0,0.0,0.0,0.0,0.0,0.0,0.0,0.0,0.0,0.0,0.0,0.0,0.0,0.0,0.0,0.0,0.0,0.0,0.0,0.0,0.0,0.0,0.0,0.0,0.0,0.0,0.0,0.0,0.0,0.0,0.0,0.0,0.0,0.0,0.0,0.0,0.0,0.0,0.0,0.0,0.0,0.0,0.0,0.0,0.0,0.0,0.0,0.0,0.0,0.0,0.0,0.0,0.0,0.0,0.0,0.0,0.0,0.0,0.0,0.0,0.0,0.0,0.0,0.0,0.0,0.0,0.0,0.0,0.0,0.0,0.0,0.0,0.0,0.0,0.0,0.0,0.0,0.0,0.0,0.0,0.0,0.0,0.0,0.0,0.0,0.0,0.0,0.0,0.0,0.0,0.0,0.0,0.0,0.0,0.0,0.0,0.0,0.0,0.0,0.0,0.0,0.0,0.0,0.0,0.0,0.0,0.0,0.0,0.0,0.0,0.0,0.0,0.0,0.0,0.0,0.0,0.0,0.0,0.0,0.0,0.0,0.0,0.0,0.0,0.0,0.0,0.0,0.0,0.0,0.0,0.0,0.0,0.0,0.0,0.0,0.0,0.0,0.0,0.0,0.0,0.0,0.0,0.0,0.0,0.0,0.0,0.0,0.0,0.0,0.0,0.0,0.0,0.0,0.0,0.0,0.0,0.0,0.0,0.0,0.0,0.0,0.0,0.0,0.0,0.0,0.0,0.0,0.0,0.0,0.0,0.0,0.0,0.0,0.0,0.0,0.0,0.0,0.0,0.0,0.0,0.0,0.0,0.0,0.0,0.0,0.0,0.0,0.0,0.0,0.0,0.0,0.0,0.0,0.0,0.0,0.0,0.0,0.0,0.0,0.0,0.0,0.0,0.0,0.0,0.0,0.0,0.0,0.0,0.0,0.0,0.0,0.0,0.0,0.0,0.0,0.0,0.0,0.0,0.0,0.0,0.0,0.0,0.0,0.0,0.0,0.0,0.0,0.0,0.0,0.0,0.0,0.0,0.0,0.0,0.0,0.0,0.0,0.0,0.0,0.0,0.0,0.0,0.0,0.0,0.0,0.0,0.0,0.0,0.0,0.0,0.0,0.0,0.0,0.0,0.0,0.0,0.0,0.0,0.0,0.0,0.0,0.0,0.0,0.0,0.0,0.0,0.0,0.0,0.0,0.0,0.0,0.0,0.0,0.0,0.0,0.0,0.0,0.0,0.0,0.0,0.0,0.0,0.0,0.0,0.0,0.0,0.0,0.0,0.0,0.0,0.0,0.0,0.0,0.0,0.0,0.0,0.0,0.0,0.0,0.0,0.0,0.0,0.0,0.0,0.0,0.0,0.0,0.0,0.0,0.0,0.0,0.0,0.0,0.0,0.0,0.0,0.0,0.0,0.0,0.0,0.0,0.0,0.0,0.0,0.0,0.0,0.0,0.0,0.0,0.0,0.0,0.0,0.0,0.0,0.0,0.0,0.0,0.0,0.0,0.0,0.0,0.0,0.0,0.0,0.0,0.0,0.0,0.0,0.0,0.0,0.0,0.0,0.0,0.0,0.0,0.0,0.0,0.0,0.0,0.0,0.0,0.0,0.0,0.0,0.0,0.0,0.0,0.0,0.0,0.0,0.0,0.0,0.0,0.0,0.0,0.0,0.0,0.0,0.0,0.0,0.0,0.0,0.0,0.0,0.0,0.0,0.0,0.0,0.0,0.0,0.0,0.0,0.0,0.0,0.0,0.0,0.0,0.0,0.0,0.0,0.0,0.0,0.0,0.0,0.0,0.0,0.0,0.0,0.0,0.0,0.0,0.0,0.0,0.0,0.0,0.0,0.0,0.0,0.0,0.0,0.0,0.0,0.0,0.0,0.0,0.0,0.0,0.0,0.0,0.0,0.0,0.0,0.0,0.0,0.0,0.0,0.0,0.0,0.0,0.0,0.0,0.0,0.0,0.0,0.0,0.0,0.0,0.0,0.0,0.0,0.0,0.0,0.0,0.0,0.0,0.0,0.0,0.0,0.0,0.0,0.0,0.0,0.0,0.0,0.0,0.0,0.0,0.0,0.0,0.0,0.0,0.0,0.0,0.0,0.0,0.0,0.0,0.0,0.0,0.0,0.0,0.0,0.0,0.0,0.0,0.0,0.0,0.0,0.0,0.0,0.0,0.0,0.0,0.0,0.0,0.0,0.0,0.0,0.0,0.0,0.0,0.0,0.0,0.0,0.0,0.0,0.0,0.0,0.0,0.0,0.0,0.0,0.0,0.0,0.0,0.0,0.0,0.0,0.0,0.0,0.0,0.0,0.0,0.0,0.0,0.0,0.0,0.0,0.0,0.0,0.0,0.0,0.0,0.0,0.0,0.0,0.0,0.0,0.0,0.0,0.0,0.0,0.0,0.0,0.0,0.0,0.0,0.0,0.0,0.0,0.0,0.0,0.0,0.0,0.0,0.0,0.0,0.0,0.0,0.0,0.0,0.0,0.0,0.0,0.0,0.0,0.0,0.0,0.0,0.0,0.0,0.0,0.0,0.0,0.0,0.0,0.0,0.0,0.0,0.0,0.0,0.0,0.0,0.0,0.0,0.0,0.0,0.0,0.0,0.0,0.0,0.0,0.0,0.0,0.0,0.0,0.0,0.0,0.0,0.0,0.0,0.0,0.0,0.0,0.0,0.0,0.0,0.0,0.0,0.0,0.0,0.0,0.0,0.0,0.0,0.0,0.0,0.0,0.0,0.0,0.0,0.0,0.0,0.0,0.0,0.0,0.0,0.0,0.0,0.0,0.0,0.0,0.0,0.0,0.0,0.0,0.0,0.0,0.0,0.0,0.0,0.0,0.0,0.0,0.0,0.0,0.0,0.0,0.0,0.0,0.0,0.0,0.0,0.0,0.0,0.0,0.0,0.0,-2.6659,-2.7429,0.0,0.0,0.0,0.0,0.0,0.0,0.0,0.0,0.0,0.0,0.0,0.0,0.0,0.0,0.0,0.0,0.0,0.0,0.0,0.0,0.0,0.0,0.0,0.0,0.0,0.0,0.0,-0.055,-0.0668,-0.1456,-0.1751,-0.1486,-0.1857,-0.2278,-0.2627,-0.2862,-0.2991,-0.3093,-0.2346,-0.104,0.0822,0.2019,0.3054,0.3959,0.0,0.0,0.0,0.0,0.0,0.0,0.0,0.0,0.0,0.0,0.0,0.0,0.0,0.0,0.0,0.0,0.0,0.0,0.0,0.0,0.0,0.0,0.0,0.0,0.0,0.0,0.0,0.0,0.0,0.0,0.0,0.0,0.0,0.0,0.0,0.0,0.0,0.0,0.0,0.0,0.0,0.0,0.0,0.0,0.0,0.0,0.0,0.0,0.0,0.0,0.0,0.0,0.0,0.0,0.0,0.0,0.0,0.0,0.0,0.0,0.0,0.0,0.0,0.0,0.0,0.0,0.0,0.0,0.0,0.0,-2.7303,-2.7778,0.0,0.0,0.0,0.0,0.0,0.0,0.0,0.0,0.0,0.0,0.0,0.0,0.0,0.0,0.0,0.0,0.0,0.0,0.0,0.0,0.0,0.0,0.0,0.0703,0.0302,0.004,-0.0523,-0.0966,-0.1249,-0.1875,-0.233,-0.2542,-0.3086,-0.3521,-0.3868,-0.4057,-0.4215,-0.4301,-0.2784,-0.1198,0.0451,0.1199,0.151,0.1515,0.2858,0.0,0.0,0.0,0.0,0.0,0.0,0.0,0.0,0.0,0.0,0.0,0.0,0.0,0.0,0.0,0.0,0.0,0.0,0.0,0.0,0.0,0.0,0.0,0.0,0.0,0.0,0.0,0.0,0.0,0.0,0.0,0.0,0.0,0.0,0.0,0.0,0.0,0.0,0.0,0.0,0.0,0.0,0.0,0.0,0.0,0.0,0.0,0.0,0.0,0.0,0.0,0.0,0.0,0.0,0.0,0.0,0.0,0.0,0.0,0.0,0.0,0.0,0.0,-2.5487,-2.6248,-2.7885,-2.7025,-2.701,-2.7686,-2.7426,-2.7483,-2.7796,-2.8443,0.0,0.0,0.0,0.0,0.0,0.0,0.0,0.0,0.0,0.0,0.0,0.0,0.0,0.0,0.0,0.0,0.0,0.0,0.0,0.0,0.0,0.0156,0.0,-0.0393,-0.0793,-0.119,-0.1544,-0.1997,-0.2402,-0.268,-0.3081,-0.3321,-0.3381,-0.3766,-0.3689,-0.311,-0.1759,-0.1064,-0.1008,-0.0263,-0.0079,-0.0223,0.3043,0.0,0.0,0.0,0.0,0.0,0.0,0.0,0.0,0.0,0.0,0.0,0.0,0.0,0.0,0.0,0.0,0.0,0.0,0.0,0.0,0.0,0.0,0.0,0.0,0.0,0.0,0.0,0.0,0.0,0.0,0.0,0.0,0.0,0.0,0.0,0.0,0.0,0.0,0.0,0.0,0.0,0.0,0.0,-1.8904,-2.1229,0.0,0.0,0.0,0.0,0.0,0.0,0.0,0.0,0.0,0.0,0.0,0.0,0.0,-2.4304,-2.4172,-2.4189,-2.4991,-2.6547,-2.5018,-2.5186,-2.6785,-2.5912,-2.5557,-2.5691,-2.5751,0.0,-2.7949,-2.8845,0.0,0.0,0.0,0.0,0.0,0.0,0.0,0.0,0.0,0.0,0.0,0.0,0.0,0.0,0.0,0.0,0.0,0.0,0.0,0.0,0.0,0.0459,0.0469,0.03,0.0252,-0.0084,-0.0946,-0.1349,-0.1902,-0.265,-0.2988,-0.318,-0.3296,-0.2878,-0.2068,-0.0816,-0.0122,0.0228,0.0281,0.1022,0.1121,0.0727,0.2531,0.306,0.2613,0.2875,0.0,0.0,0.0,0.0,0.0,0.0,0.0,0.0,0.0,0.0,0.0,0.0,0.0,0.0,0.0,0.0,0.0,0.0,0.0,0.0,0.0,0.0,0.0,0.0,0.0,0.0,0.0,0.0,0.0,0.0,0.0,0.0,0.0,0.0,0.0,0.0,0.0,0.0,0.0,-1.928,-1.9927,-2.1657,-2.1384,-2.1444,0.0,0.0,0.0,0.0,0.0,0.0,0.0,0.0,0.0,-2.3259,-2.289,-2.2646,-2.2578,-2.262,-2.3294,-2.4613,-2.43,-2.4822,-2.6028,-2.5647,-2.5473,-2.5473,-2.5526,-2.5968,-2.6679,-2.7577,-2.8172,-2.8536,0.0,0.0,0.0,0.0,-2.8335,-2.7691,0.0,0.0,0.0,0.0,0.0,0.0,0.0,0.0,0.0,0.0,0.0,0.0,0.0427,0.0822,0.1049,0.0938,0.111,0.0712,-0.0539,-0.079,-0.1457,-0.2683,-0.2837,-0.2884,-0.2966,-0.1778,-0.046,0.087,0.1301,0.1521,0.1591,0.2132,0.2104,0.1616,0.1885,0.179,0.1425,0.1462,0.2038,0.0,0.0,0.0,0.0,0.0,0.0,0.0,0.0,0.0,0.0,0.0,0.0,0.0,0.0,0.0,0.0,0.0,0.0,0.0,0.0,0.0,0.0,0.0,0.0,0.0,0.0,0.0,0.0,0.0,0.0,0.0,0.0,0.0,0.0,0.0,0.0,0.0,0.0,-1.9811,-1.9952,-2.1748,-2.1091,-2.1065,0.0,0.0,0.0,0.0,0.0,0.0,-2.2536,-2.246,-2.2355,-2.2253,-2.1531,-2.1101,-2.0994,-2.1244,-2.1889,-2.2912,-2.3489,-2.4385,-2.5486,-2.5266,-2.5311,-2.5511,-2.5543,-2.5565,-2.5634,-2.6522,-2.7244,-2.7812,-2.7986,-2.7862,-2.7654,-2.7896,-2.7447,-2.6839,0.0,0.0,0.0,0.0,0.0,0.0,0.0,0.0,0.0,0.0,0.0,0.0773,0.0,0.0963,0.1467,0.1044,0.101,0.0435,-0.0869,-0.0749,-0.1252,-0.2727,-0.2636,-0.2371,-0.2069,-0.0443,0.0629,0.1092,0.2121,0.232,0.1775,0.1834,0.1654,0.1314,0.1272,0.1648,0.2349,0.2471,0.2347,0.1873,0.0,0.0,0.0,0.0,0.0,0.0,0.0,0.0,0.0,0.0,0.0,0.0,0.0,0.0,0.0,0.0,0.0,0.0,0.0,0.0,0.0,0.0,0.0,0.0,0.0,0.0,0.0,0.0,0.0,0.0,0.0,0.0,0.0,0.0,0.0,0.0,0.0,0.0,0.0,-2.1969,-2.1083,0.0,0.0,0.0,0.0,-2.1071,-2.1884,-2.2382,-2.2222,-2.1677,-2.1333,-2.1275,-2.0553,-2.0165,-2.0165,-2.0928,-2.1738,-2.2628,-2.2656,-2.3556,-2.5187,-2.4356,-2.4465,-2.5313,-2.5385,-2.5453,-2.5575,-2.6505,-2.6919,-2.7031,-2.7863,-2.7647,-2.6959,-2.7853,-2.7599,-2.6922,0.0,0.0,0.0,0.0,0.0,0.0,0.0,0.0,-0.0039,0.0082,0.0574,0.0886,0.0815,0.1659,0.2165,0.2098,0.23,0.1837,0.0492,0.0157,-0.0647,-0.2097,-0.214,-0.1411,0.0074,0.0918,0.1811,0.2761,0.3279,0.3229,0.2646,0.2802,0.2564,0.1933,0.1689,0.173,0.1926,0.1495,0.1677,0.2121,0.0567,-0.0782,0.0,0.0,0.0,0.0,0.0,0.0,0.0,0.0,0.0,0.0,0.0,0.0,0.0,0.0,0.0,0.0,0.0,0.0,0.0,0.0,0.0,0.0,0.0,0.0,0.0,0.0,0.0,0.0,0.0,0.0,0.0,0.0,0.0,0.0,0.0,0.0,0.0,-2.1908,-2.1128,0.0,-2.2905,-2.291,-2.2612,-2.2165,-2.1535,-2.1479,-2.2154,-2.145,-2.1324,-2.194,-2.1687,-2.1528,-2.1521,-2.2429,-2.2825,-2.2681,-2.3184,-2.38,-2.4476,-2.4167,-2.4531,-2.5369,-2.5429,-2.5498,-2.5589,-2.5926,-2.6057,-2.6084,-2.6418,-2.5977,-2.5308,-2.6242,-2.6026,-2.5371,0.0,0.0,0.0,0.0,0.0,0.0,0.0,0.0,0.0081,0.0502,0.0977,0.1381,0.1708,0.2492,0.2966,0.2978,0.3138,0.258,0.1068,0.0649,-0.016,-0.1584,-0.1183,-0.004,0.179,0.2211,0.2905,0.3933,0.4166,0.4024,0.3575,0.3746,0.3494,0.2831,0.2462,0.2214,0.2003,0.1397,0.176,0.2615,0.1177,-0.0189,-0.1685,0.0,0.0,0.0,0.0,0.0,0.0,0.0,0.0,0.0,0.0,0.0,0.0,0.0,0.0,0.0,0.0,0.0,0.0,0.0,0.0,0.0,0.0,0.0,0.0,0.0,0.0,0.0,0.0,0.0,0.0,0.0,0.0,0.0,0.0,-2.0103,-1.9867,-2.1771,-2.1042,-2.1045,-2.2762,-2.2618,-2.2303,-2.199,-2.1275,-2.1076,-2.1529,-2.1328,-2.1512,-2.2192,-2.226,-2.2299,-2.2299,-2.3291,-2.3412,-2.2642,-2.3468,-2.3913,-2.4005,-2.4013,-2.4512,-2.5369,-2.5448,-2.5498,-2.5582,-2.557,-2.557,-2.5607,-2.5619,-2.5098,-2.4381,-2.5017,-2.4694,-2.4065,0.0,0.0,0.0,0.0,0.0,0.0,0.0,0.0304,0.0378,0.0877,0.168,0.2322,0.26,0.3395,0.3793,0.3528,0.3372,0.2512,0.0655,0.0699,0.0203,-0.1202,0.0213,0.1623,0.2884,0.3411,0.3898,0.4447,0.4718,0.4738,0.4555,0.4527,0.4328,0.3935,0.3537,0.3133,0.2732,0.2399,0.2722,0.3293,0.132,-0.0108,-0.1567,0.0,0.0,0.0,0.0,0.0,0.0,0.0,0.0,0.0,0.0,0.0,0.0,0.0,0.0,0.0,0.0,0.0,0.0,0.0,0.0,0.0,0.0,0.0,0.0,0.0,0.0,0.0,0.0,0.0,0.0,0.0,0.0,0.0,-2.1053,-1.9875,-1.9665,-2.1568,-2.0828,-2.0697,-2.2065,-2.214,-2.1628,-2.0463,-2.1134,-2.1225,-2.0426,-2.1308,-2.1832,-2.1872,-2.2185,-2.2373,-2.2359,-2.3322,-2.3398,-2.2536,-2.3379,-2.3783,-2.3797,-2.3872,-2.4406,-2.5264,-2.536,-2.5418,-2.5453,-2.5483,-2.5543,-2.5609,-2.5664,-2.5127,-2.4317,-2.4374,-2.3808,-2.314,0.0,0.0,0.0,0.0,0.0,0.0,0.0,0.0577,0.0609,0.1389,0.1885,0.2363,0.2831,0.3373,0.363,0.3499,0.334,0.2717,0.1467,0.1029,0.044,-0.0341,0.102,0.2247,0.3184,0.4223,0.4953,0.5331,0.5654,0.571,0.5523,0.5406,0.5195,0.4909,0.4701,0.4412,0.4046,0.3677,0.4087,0.4914,0.391,0.202,-0.0423,0.0,0.0,0.0,0.0,0.0,0.0,0.0,0.0,0.0,0.0,0.0,0.0,0.0,0.0,0.0,0.0,0.0,0.0,0.0,0.0,0.0,0.0,0.0,0.0,0.0,0.0,0.0,0.0,0.0,0.0,0.0,-1.9231,-1.9004,-1.9714,-1.991,-2.0355,-2.1305,-2.1288,-2.1547,-2.2464,-2.2473,-2.227,-2.1998,-2.164,-2.1643,-2.21,-2.2337,-2.2758,-2.3456,-2.3655,-2.3724,-2.3671,-2.4046,-2.3889,-2.3243,-2.3455,-2.3669,-2.3814,-2.3869,-2.4017,-2.4251,-2.5004,-2.5013,-2.4532,-2.5158,-2.5503,-2.5602,-2.563,-2.5074,-2.4315,-2.4376,-2.3845,-2.3281,0.0,0.0,0.0,0.0,0.0,0.0,0.0,0.0895,0.1095,0.1929,0.2218,0.2647,0.3344,0.3599,0.3695,0.3602,0.3307,0.272,0.1747,0.121,0.1034,0.1332,0.0,0.3248,0.4213,0.51,0.5645,0.5867,0.6526,0.6794,0.6686,0.692,0.6735,0.6204,0.6163,0.5718,0.4975,0.4791,0.4829,0.5016,0.4899,0.3199,0.056,-0.1079,-0.4598,-0.9121,-1.2399,-1.4658,-1.6449,-1.8448,0.0,0.0,0.0,0.0,0.0,0.0,0.0,0.0,0.0,0.0,0.0,0.0,0.0,0.0,0.0,0.0,0.0,0.0,0.0,0.0,0.0,0.0,0.0,0.0,-1.8841,-1.853,-1.9326,-1.9544,-1.9951,-2.088,-2.1122,-2.1504,-2.238,-2.2481,-2.2468,-2.2346,-2.2327,-2.2431,-2.2659,-2.2964,-2.3383,-2.3959,-2.4097,-2.4192,-2.4192,-2.4319,-2.4083,-2.342,-2.3761,-2.3821,-2.3647,-2.3733,-2.3757,-2.3739,-2.4028,-2.414,-2.4146,-2.4651,-2.5132,-2.5557,0.0,0.0,0.0,0.0,-2.3517,-2.3238,0.0,0.0,0.0,0.0,0.0,0.0,0.0,0.1343,0.169,0.2442,0.2644,0.3069,0.3935,0.3988,0.3923,0.377,0.3366,0.2731,0.1864,0.149,0.189,0.3149,0.3691,0.4475,0.554,0.6021,0.6285,0.6425,0.7531,0.8069,0.8079,0.8718,0.8574,0.7754,0.7822,0.7111,0.5868,0.5929,0.5432,0.4647,0.5022,0.3753,0.1374,-0.132,-0.4873,-0.8773,-1.1256,-1.3908,-1.6376,-1.7273,0.0,0.0,0.0,0.0,0.0,0.0,0.0,0.0,0.0,0.0,0.0,0.0,0.0,0.0,0.0,0.0,0.0,0.0,0.0,0.0,0.0,0.0,0.0,0.0,-1.88,-1.8703,-1.9419,-1.9066,-1.9217,-2.0562,-2.0722,-2.1097,-2.2,-2.2341,-2.2392,-2.2152,-2.3008,-2.328,-2.2668,-2.33,0.0,0.0,0.0,-2.4003,-2.4044,-2.4247,-2.3999,-2.3297,-2.4104,-2.4083,-2.3378,-2.3503,-2.3458,-2.3251,-2.2772,-2.3083,-2.3937,-2.4039,-2.4656,-2.5503,-2.5577,-2.5051,-2.4222,-2.3538,-2.3192,-2.3109,0.0,0.0,0.0,0.0,0.0,0.0,0.0,0.2057,0.2165,0.2802,0.319,0.3631,0.4165,0.4339,0.4339,0.4183,0.3912,0.3319,0.2413,0.2532,0.2821,0.3259,0.4282,0.5216,0.6065,0.7126,0.7904,0.8356,0.9219,0.967,0.9659,0.9747,0.9637,0.9362,0.9245,0.8835,0.8131,0.7624,0.7324,0.7102,0.5953,0.4155,0.2035,0.0866,-0.1578,-0.4783,-0.7706,-0.9934,-1.1966,-1.4781,-1.6518,-1.7768,-1.9077,0.0,0.0,0.0,0.0,0.0,0.0,0.0,0.0,0.0,0.0,0.0,0.0,0.0,0.0,0.0,0.0,0.0,0.0,0.0,0.0,-1.9094,-1.8585,-1.84,-1.9048,-1.9592,-2.031,-2.1278,-2.1553,-2.1761,-2.2079,-2.2286,-2.2565,-2.2858,-2.3023,-2.3212,-2.337,-2.3584,-2.3721,-2.3804,-2.3894,-2.3669,-2.3162,-2.3766,-2.3787,-2.3219,-2.3986,0.0,-2.3228,-2.3319,-2.2607,-2.1386,-2.2111,-2.257,-2.2879,-2.3669,-2.4598,-2.5503,-2.5511,-2.502,-2.4363,-2.4846,-2.4172,-2.3119,0.0,0.0,0.0,0.0,0.0,0.0,0.0,0.2588,0.2659,0.3135,0.3544,0.3957,0.4352,0.4598,0.4743,0.4713,0.4624,0.429,0.3597,0.3878,0.4236,0.4532,0.5359,0.6156,0.6885,0.8043,0.8862,0.9312,1.0311,1.0775,1.0698,1.0875,1.09,1.0791,1.0421,1.0102,0.9817,0.914,0.8472,0.7816,0.6849,0.5115,0.3006,0.172,-0.0348,-0.2907,-0.5663,-0.7971,-1.0054,-1.2283,-1.4228,-1.5873,-1.6884,-1.8197,-1.9431,0.0,0.0,0.0,0.0,0.0,0.0,0.0,0.0,0.0,0.0,0.0,0.0,0.0,0.0,-1.9152,-1.969,0.0,-1.847,-1.9185,-1.8593,-1.8365,-1.9284,-1.9716,-2.0319,-2.1245,-2.1509,-2.1645,-2.1705,-2.1953,-2.2275,-2.2721,-2.2923,-2.3177,-2.3585,-2.3656,-2.3563,-2.327,-2.3234,-2.3097,-2.2905,-2.3213,-2.3472,-2.3639,-2.4026,-2.3768,-2.2994,-2.2706,-2.1853,-2.0662,-2.0863,-2.1519,-2.2563,-2.4081,-2.4741,-2.4803,-2.4803,-2.4852,-2.4888,-2.4412,-2.3725,-2.2994,0.0,0.0,0.0,0.0,0.0,0.0,0.0,0.3031,0.3116,0.352,0.391,0.4293,0.4676,0.4996,0.5207,0.5257,0.5453,0.5353,0.4846,0.5261,0.5729,0.6191,0.6609,0.7272,0.8197,0.9111,0.9814,1.0288,1.1349,1.1816,1.1751,1.2095,1.2177,1.1975,1.1503,1.1226,1.1058,1.0509,0.9518,0.832,0.7885,0.6429,0.4298,0.2512,0.0374,-0.2039,-0.4524,-0.6906,-0.9056,-1.0257,-1.2187,-1.4149,-1.4676,-1.5954,-1.7458,-1.8278,-1.8941,0.0,0.0,0.0,0.0,0.0,0.0,0.0,0.0,-1.8339,-1.8205,-1.7712,-1.7548,-1.7695,-1.8377,-1.8086,-1.8091,-1.9207,-1.8724,-1.8542,-1.9549,-1.9666,-1.9939,-2.0654,-2.1086,-2.1324,-2.1309,-2.1556,-2.1882,-2.2258,-2.2591,-2.2982,-2.3389,-2.3504,-2.335,-2.2849,-2.2648,-2.2584,-2.2667,-2.2776,-2.3123,-2.3675,-2.3802,-2.3416,-2.2556,-2.1824,-2.1035,-2.0213,-1.9904,-2.0749,-2.25,-2.4119,-2.4522,-2.4036,-2.3865,-2.4324,-2.4936,-2.3686,-2.322,-2.3148,0.0,0.0,0.0,0.0,0.0,0.0,0.0,0.0,0.3514,0.4053,0.4409,0.4863,0.5482,0.5714,0.5807,0.58,0.6313,0.6336,0.5621,0.6271,0.6983,0.763,0.7875,0.874,1.0334,1.081,1.1502,1.2363,1.2917,1.3259,1.3426,1.3491,1.32,1.2692,1.2755,1.2387,1.1679,1.1682,1.1009,0.9883,0.9431,0.8079,0.6137,0.4421,0.163,-0.1676,-0.4243,-0.6239,-0.7903,-0.9352,-1.088,-1.2374,-1.3174,-1.4727,-1.6361,-1.69,-1.7838,-1.8717,-1.8636,-1.7746,-1.6839,-1.7084,-1.6536,-1.5969,0.0,-1.6528,-1.6831,-1.685,-1.7362,-1.7899,-1.8064,-1.8374,-1.8688,-1.8831,-1.8916,-1.9014,-1.9161,-1.9573,-1.9756,-1.9443,-2.0431,-2.1199,-2.1294,-2.134,-2.1509,-2.194,-2.1998,-2.222,-2.2686,-2.295,-2.3153,-2.3315,-2.2854,-2.2351,-2.1842,-2.2594,-2.2703,-2.2147,-2.2758,-2.2593,-2.1698,-2.0861,-2.0008,-1.93,-2.0237,-2.1251,-2.2246,-2.2533,-2.3164,-2.3849,-2.3063,-2.2948,-2.3265,-2.3848,-2.406,-2.4048,0.0,0.0,0.0,0.0,0.0,0.0,0.0,0.0,0.0,0.4673,0.5087,0.5517,0.5983,0.6333,0.6586,0.6752,0.7529,0.7807,0.7362,0.8335,0.8983,0.9052,0.9429,1.0233,1.1505,1.1983,1.2601,1.3403,1.3663,1.3776,1.3709,1.3815,1.3792,1.3664,1.3336,1.3183,1.3161,1.2605,1.1711,1.0619,1.0238,0.8736,0.661,0.4974,0.2722,0.0041,-0.3158,-0.5055,0.0,0.0,-1.0037,-1.094,-1.1469,-1.2766,-1.4228,-1.5004,-1.5828,-1.6436,-1.62,-1.5838,-1.5548,-1.5659,-1.5012,-1.4462,-1.4954,-1.5136,-1.5154,-1.4923,-1.555,-1.6235,-1.6466,-1.7281,-1.7917,-1.7941,-1.8313,-1.8503,-1.8087,-1.8448,-1.8579,-1.81,-1.9094,-2.0001,-2.0509,-2.054,-2.0917,-2.1777,-2.1911,-2.2124,-2.2459,-2.2686,-2.2698,-2.2406,-2.2233,-2.205,-2.1875,-2.2237,-2.2316,-2.2147,-2.2395,-2.183,-2.0603,-2.0299,-2.0047,-1.9948,-2.1603,-2.2252,-2.2196,-2.2848,-2.276,-2.2185,-2.1813,-2.1411,-2.1175,-2.2288,-2.2692,-2.2629,0.0,0.0,0.0,0.0,0.0,0.0,0.0,0.0,0.0,0.0,0.5663,0.6173,0.6586,0.713,0.7539,0.7712,0.8692,0.0,0.0,1.0041,1.0634,1.0486,1.0833,1.1544,1.2556,1.2998,1.3628,1.4482,1.4639,1.475,1.475,1.4906,1.5031,1.5103,1.4499,1.4446,1.4742,1.3925,1.2901,1.175,1.1317,0.9775,0.7494,0.5683,0.3826,0.1748,-0.1932,-0.3981,0.0,-0.7623,-0.899,-0.9778,-1.0089,-1.1209,-1.2563,-1.327,-1.4045,-1.4649,-1.4387,-1.4275,-1.4224,-1.4309,-1.3582,-1.2986,-1.3618,-1.3615,-1.3429,-1.3187,-1.3835,-1.4554,-1.4887,-1.5951,-1.6845,-1.7071,-1.7446,-1.7605,-1.7356,-1.7472,-1.7391,-1.6938,-1.7622,-1.8381,-1.9059,-1.9545,-2.008,-2.0752,-2.1157,-2.152,-2.1787,-2.207,-2.2014,-2.1579,-2.1313,-2.1346,-2.1648,-2.1693,-2.1777,-2.1943,-2.1864,-2.117,-1.989,-1.9753,-1.9795,-2.0008,-2.1512,-2.1919,-2.1588,-2.2234,-2.1848,-2.088,-2.0656,-2.0219,-1.9801,-2.0747,-2.1265,-2.1456,0.0,0.0,0.0,0.0,0.0,0.0,0.0,0.0,0.0,0.0,0.0,0.0,0.0,0.8182,0.8594,0.8463,0.9697,0.0,0.0,1.0882,1.1624,1.1919,1.1952,1.2559,1.3828,1.3973,1.4694,1.5945,1.6215,1.6696,1.7364,1.7379,1.7346,1.7198,1.6772,1.6445,1.622,1.5996,1.5069,1.3644,1.3058,1.1593,0.9436,0.7052,0.5077,0.3049,-0.0726,0.0,-0.4823,-0.6143,-0.7524,-0.8797,-0.9189,-1.0536,0.0,-1.1867,-1.2861,-1.3917,-1.391,-1.3293,-1.2735,-1.3085,-1.2117,-1.1216,-1.1766,-1.1768,-1.174,-1.1891,-1.2684,-1.344,-1.3717,-1.4675,-1.5694,-1.6479,-1.6372,-1.6455,-1.7279,-1.6962,-1.6487,-1.6186,-1.6146,-1.6383,-1.6849,-1.8375,-1.9043,-1.8362,-1.9264,-1.9999,-2.0256,-2.0761,-2.11,-2.1198,-2.0194,-2.0012,-2.0723,-2.0859,-2.0983,-2.1043,-2.098,-2.0572,-1.9872,-1.9032,-1.8677,-1.8769,-1.895,-1.9452,-2.012,-1.9636,-1.9887,-2.0544,-1.9818,-1.9596,-1.9701,-1.9738,-2.041,-2.1443,0.0,0.0,0.0,0.0,0.0,0.0,0.0,0.0,0.0,0.0,0.0,0.0,0.0,0.0,0.0,0.0,1.1201,0.0,0.0,1.2753,1.3204,1.3307,1.3419,1.403,1.5277,1.5467,1.6134,1.7258,1.7482,1.7698,1.7912,1.8269,1.8284,1.8006,1.7655,1.7261,1.6801,1.6267,1.5322,1.4098,1.3094,1.1691,0.9855,0.7113,0.4978,0.3036,0.0,0.0,-0.4018,-0.5803,-0.7061,-0.7829,-0.7904,-0.8766,-0.9894,-1.0488,-1.1712,-1.2681,-1.1658,-1.135,-1.1363,-1.1433,-1.0889,-1.0517,-1.1228,-1.119,-1.1113,-1.155,-1.2612,-1.3532,-1.3631,-1.492,-1.5878,-1.5543,-1.5763,-1.5788,-1.5301,-1.5076,-1.4827,-1.4286,-1.5428,-1.6081,-1.5693,-1.7249,-1.8448,-1.8966,-1.9747,-2.0096,-1.9892,-2.0134,-2.0098,-1.975,-1.9482,-1.9504,-1.9823,-1.99,-1.9681,-1.9222,-1.895,-1.887,-1.8911,-1.9202,-1.9464,-1.9723,-2.0318,-2.0445,-2.0209,-1.9937,-1.9701,-1.9444,-1.9157,-1.9127,-1.9298,-1.939,-1.9713,-2.0189,0.0,0.0,0.0,0.0,0.0,0.0,0.0,0.0,0.0,0.0,0.0,0.0,0.0,0.0,0.0,0.0,0.0,1.302,0.0,0.0,1.4462,1.4461,1.4651,1.5175,1.6117,1.6265,1.6766,1.7773,1.816,1.8478,1.8629,1.9217,1.9419,1.9295,1.8869,1.8425,1.7928,1.7231,1.6087,1.4653,1.3233,1.164,0.9794,0.6913,0.4646,0.0,0.0,0.0,-0.3449,-0.5298,-0.6481,-0.7197,-0.7047,-0.7682,-0.8561,-0.9241,-1.0262,-1.0933,-0.9766,-0.9811,-1.0133,-1.0026,-0.9693,-0.9595,-1.0256,-1.0159,-1.0114,-1.083,-1.185,-1.2756,-1.3033,-1.4451,-1.5411,-1.4934,-1.5361,-1.5434,-1.4488,-1.4283,-1.4011,-1.3382,-1.4638,-1.5394,-1.5065,-1.643,-1.7705,-1.8515,-1.9188,-1.9538,-1.9497,-1.9514,-1.9473,-1.9324,-1.9026,-1.9007,-1.9355,-1.9176,-1.8798,-1.8264,-1.7804,-1.771,-1.7992,-1.8594,-1.9035,-1.933,-1.9848,-1.9836,-1.9504,-1.9504,-1.9199,-1.8771,-1.8807,-1.8912,-1.9049,-1.9132,-1.9274,-1.9434,0.0,0.0,0.0,0.0,0.0,0.0,0.0,0.0,0.0,0.0,0.0,0.0,0.0,0.0,0.0,0.0,0.0,0.0,0.0,0.0,0.0,1.5337,1.5588,1.5949,1.6435,1.6407,1.677,1.7553,1.8361,1.9056,1.9615,2.0261,2.0681,2.0812,2.0345,1.9879,1.9346,1.8598,1.7165,1.5269,1.3431,1.1498,0.9365,0.652,0.0,0.0,0.0,-0.1574,-0.3133,-0.4481,-0.5748,-0.6766,-0.6679,-0.7224,-0.7939,-0.8089,-0.8477,-0.8776,-0.8351,-0.8645,-0.9041,-0.8849,-0.8623,-0.8487,-0.888,-0.8755,-0.8861,-0.9821,-1.0561,-1.1303,-1.2045,-1.3292,-1.435,-1.4688,-1.5162,-1.5265,-1.4786,-1.4499,-1.4075,-1.3352,-1.3839,-1.4397,-1.4835,-1.5968,-1.6787,-1.7082,-1.7662,-1.8322,-1.8982,-1.8903,-1.9079,-1.97,-1.8651,-1.8443,-1.913,-1.8641,-1.829,-1.8137,-1.7493,-1.7191,-1.7216,-1.7337,-1.7502,-1.7687,-1.7614,-1.7766,-1.8095,-1.8293,-1.8415,-1.8492,-1.8753,-1.8842,-1.8878,-1.8878,-1.8999,-1.9232,0.0,0.0,0.0,0.0,0.0,0.0,0.0,0.0,0.0,0.0,0.0,0.0,0.0,0.0,0.0,0.0,0.0,0.0,0.0,0.0,0.0,0.0,0.0,0.0,0.0,0.0,0.0,1.855,1.9095,1.9405,1.9468,2.0131,2.0317,2.0066,1.9534,1.897,1.8282,1.7055,1.5712,1.4233,0.0,1.0656,0.8813,0.0,0.0,0.0,0.0,0.0,-0.3104,-0.3775,-0.4576,-0.5318,-0.5652,-0.6137,-0.6635,-0.6856,-0.7036,-0.7188,-0.7366,-0.7469,-0.759,-0.7621,-0.805,-0.8477,-0.8549,-0.9091,-0.9764,-1.0287,-1.1227,-1.2203,-1.299,-1.3817,-1.4339,-1.4223,-1.4382,-1.4294,-1.362,-1.3518,-1.336,-1.2951,-1.3748,-1.4448,-1.4739,-1.5826,-1.6619,-1.6838,-1.7762,-1.8246,-1.8132,-1.7762,-1.7432,-1.7164,-1.6806,-1.678,-1.7062,-1.6878,-1.6998,-1.7362,-1.7108,-1.7126,-1.7415,-1.7462,-1.7526,-1.7635,-1.7486,-1.7608,-1.7876,-1.7827,-1.7893,-1.8061,-1.8082,-1.8235,-1.8457,-1.8457,-1.868,-1.8982,0.0,0.0,0.0,0.0,0.0,0.0,0.0,0.0,0.0,0.0,0.0,0.0,0.0,0.0,0.0,0.0,0.0,0.0,0.0,0.0,0.0,0.0,0.0,0.0,0.0,0.0,0.0,0.0,0.0,0.0,1.8644,1.9702,1.9993,1.9596,1.9302,1.8693,1.7798,1.6599,0.0,0.0,0.0,0.0,0.0,0.0,0.0,0.0,0.0,0.0,0.0,0.0,0.0,-0.4833,-0.5301,-0.5547,-0.5738,-0.5985,-0.6124,-0.6249,-0.6489,-0.6661,-0.6747,-0.6777,-0.7373,-0.7964,-0.8098,-0.8913,-0.9785,-1.0331,-1.1376,-1.2389,-1.2968,-1.3886,-1.4432,-1.4056,-1.4428,-1.4463,-1.3541,-1.3368,-1.3207,-1.2737,-1.3349,-1.3903,-1.4147,-1.531,-1.6166,-1.6402,-1.7054,-1.7395,-1.7324,-1.6962,-1.6713,-1.6698,-1.6427,-1.6199,-1.6037,-1.5996,-1.6176,-1.6565,-1.6538,-1.6696,-1.7002,-1.6901,-1.7076,-1.7441,-1.7101,-1.7231,-1.7653,-1.7549,-1.7658,-1.7878,-1.79,-1.8057,-1.8252,-1.8232,-1.8471,-1.8807,0.0,0.0,0.0,0.0,0.0,0.0,0.0,0.0,0.0,0.0,0.0,0.0,0.0,0.0,0.0,0.0,0.0,0.0,0.0,0.0,0.0,0.0,0.0,0.0,0.0,0.0,0.0,0.0,0.0,0.0,0.0,0.0,0.0,0.0,0.0,0.0,0.0,0.0,0.0,0.0,0.0,0.0,0.0,0.0,0.0,0.0,0.0,0.0,0.0,0.0,-0.4627,-0.4744,-0.5167,-0.5187,-0.5111,-0.5352,-0.5543,-0.5745,-0.587,-0.6137,-0.636,-0.6337,-0.6803,-0.7366,-0.7737,-0.8638,-0.9598,-1.0349,-1.1416,-1.229,-1.263,-1.371,-1.4348,-1.3905,-1.454,-1.4733,-1.3651,-1.3406,-1.3103,-1.2412,-1.2614,-1.2912,-1.3257,-1.4356,-1.5149,-1.5457,-1.5765,-1.6113,-1.6535,-1.6286,-1.6361,-1.6947,-1.6535,-1.6098,-1.5652,-1.5652,-1.574,-1.5928,-1.5983,-1.6136,-1.6344,-1.6123,-1.6436,-1.7117,-1.6581,-1.6732,-1.7344,-1.7337,-1.7432,-1.7681,-1.7878,-1.8027,-1.8108,-1.807,-1.8287,-1.8566,0.0,0.0,0.0,0.0,0.0,0.0,0.0,0.0,0.0,0.0,0.8066,0.9392,0.0,0.0,0.0,0.0,0.0,0.0,0.0,0.0,0.0,0.0,0.0,0.0,1.6484,1.6824,1.687,1.6541,1.6941,0.0,0.0,0.0,0.0,0.0,0.0,0.0,0.0,0.0,0.0,0.0,0.0,0.0,0.0,0.0,0.0,0.0,0.0,0.0,0.0,0.0,-0.4276,-0.3919,-0.4123,-0.4228,-0.4383,-0.4873,-0.5113,-0.5324,-0.5842,-0.6145,-0.6337,-0.636,-0.6942,-0.7602,-0.7965,-0.9151,-1.0348,-1.0994,-1.1997,-1.2809,-1.304,-1.3382,-1.3437,-1.2858,-1.2996,-1.2898,-1.2037,-1.1974,-1.1889,-1.1551,-1.1561,-1.1762,-1.2156,-1.2479,-1.2834,-1.3244,-1.4,-1.4865,-1.5814,-1.5403,-1.5151,-1.5159,-1.5229,-1.5281,-1.536,-1.5419,-1.5653,-1.6067,-1.6067,-1.6067,-1.608,-1.6067,-1.6179,-1.6316,-1.6207,-1.6328,-1.6581,-1.6747,-1.685,-1.6926,-1.7175,-1.7417,-1.7641,-1.7732,-1.7866,-1.8061,0.0,0.0,0.0,0.0,0.0,0.0,0.0,0.2837,0.3644,0.5241,0.6338,0.7676,0.9481,0.9852,1.0324,0.0,0.0,0.0,0.0,0.0,0.0,0.0,0.0,0.0,0.0,1.5764,1.5849,1.5666,0.0,1.6034,1.58,1.6308,1.6348,1.5908,1.5903,1.5149,1.3871,1.2686,0.0,0.9261,0.7465,0.555,0.0,0.0,0.0,0.0,0.0,0.0,0.0,0.0,-0.4986,-0.4297,-0.4228,-0.4242,-0.4377,-0.4953,-0.5106,-0.5226,-0.5742,-0.6091,-0.6323,-0.6395,-0.6995,-0.7756,-0.8295,-0.9348,-1.0392,-1.1068,-1.1987,-1.2725,-1.2754,-1.3084,-1.3253,-1.2852,-1.2718,-1.2523,-1.2088,-1.1591,-1.1238,-1.1143,-1.1025,-1.1013,-1.1188,-1.1762,-1.2118,-1.2117,-1.2981,-1.374,-1.4311,-1.4376,-1.4356,-1.436,-1.4515,-1.461,-1.4721,-1.5043,-1.5315,-1.558,-1.5711,-1.5839,-1.5938,-1.5667,-1.5739,-1.6105,-1.5924,-1.6009,-1.6313,-1.6512,-1.6607,-1.6617,-1.6892,-1.7093,-1.7248,-1.7272,-1.7439,-1.7641,0.0,0.0,0.0,0.0,0.0,0.0,0.0,0.1222,0.214,0.3808,0.4429,0.5512,0.7729,0.8172,0.8788,0.0,0.0,0.0,0.0,0.0,0.0,0.0,0.0,0.0,0.0,0.0,0.0,1.456,1.491,0.0,0.0,0.0,0.0,0.0,1.4506,1.3564,1.1981,1.1137,0.9511,0.0,0.0,0.3966,0.0,0.0,0.0,0.0,0.0,0.0,0.0,0.0,-0.5952,-0.5292,-0.5006,-0.4853,-0.4826,-0.5229,-0.5378,-0.5489,-0.5722,-0.6029,-0.6332,-0.64,-0.6977,-0.7772,-0.8593,-0.9383,-1.0183,-1.0964,-1.1778,-1.2274,-1.2175,-1.2647,-1.2948,0.0,-1.2436,-1.2225,-1.1921,-1.1179,-1.0631,-1.0565,-1.0429,-1.0312,-1.039,-1.111,-1.1563,-1.1415,-1.2132,-1.274,-1.3035,-1.3514,-1.3795,-1.3901,-1.3993,-1.4072,-1.4138,-1.4578,-1.4859,-1.4951,-1.5239,-1.5463,-1.5637,-1.521,-1.5345,-1.5963,-1.5652,-1.5767,-1.6176,-1.634,-1.6421,-1.6448,-1.667,-1.6825,-1.686,-1.6699,-1.6775,-1.697,0.0,0.0,0.0,0.0,0.0,0.0,0.0,-0.0539,0.0322,0.1717,0.2334,0.3161,0.4484,0.6143,0.7423,0.0,0.0,0.0,0.0,0.0,0.0,0.0,0.0,0.0,0.0,0.0,0.0,1.3543,1.3412,0.0,0.0,0.0,0.0,0.0,0.0,1.1242,0.9814,0.8779,0.0,0.0,0.0,0.0,0.0,0.0,0.0,0.0,0.0,0.0,0.0,0.0,0.0,-0.6742,-0.6416,-0.6148,-0.5868,-0.5585,-0.6005,-0.642,-0.5859,-0.6013,-0.6332,-0.6449,-0.6958,-0.7706,-0.8828,-0.9517,-1.0166,-1.1113,-1.1528,-1.1778,-1.1778,-1.1927,-1.184,0.0,0.0,-1.1084,-1.0022,-0.9873,-0.9732,-0.9232,-0.9274,-0.9466,-0.9753,-0.9939,-1.0205,-1.0659,-1.126,-1.2027,-1.2859,-1.3148,-1.3365,-1.3547,-1.356,-1.3695,-1.3908,-1.4046,-1.4227,-1.4479,-1.4797,-1.489,-1.4825,-1.4951,-1.5195,-1.5536,-1.5388,-1.558,-1.6024,-1.608,-1.6179,-1.625,-1.6328,-1.6421,-1.6475,-1.5914,-1.5668,-1.5627,0.0,0.0,0.0,0.0,0.0,0.0,-0.3618,-0.2841,-0.2018,-0.0934,-0.0166,0.0608,0.1327,0.2481,0.4066,0.6147,0.0,0.0,0.0,0.0,0.0,0.0,0.0,0.0,0.0,0.0,1.1338,1.1163,1.0847,0.0,0.0,0.0,0.0,0.0,0.0,0.8191,0.6896,0.5739,0.0,0.0,0.0,0.0,0.0,0.0,0.0,0.0,0.0,0.0,-0.7859,-0.7753,0.0,0.0,-0.7594,-0.7664,0.0,0.0,-0.6347,-0.6428,-0.6037,-0.6178,-0.6443,-0.6572,-0.7205,-0.8014,-0.8972,-0.9524,-1.0108,-1.1015,-1.1326,-1.1528,-1.1669,-1.1828,-1.1823,0.0,0.0,0.0,-1.082,-1.0748,-1.0443,-0.9584,-0.9657,-0.9555,-0.9139,-0.9408,-0.9843,-1.039,-1.0814,-1.1368,-1.209,-1.2217,-1.239,-1.2579,-1.2555,-1.2734,-1.3107,-1.3191,-1.3317,-1.3574,-1.3599,-1.3789,-1.4117,-1.4044,-1.4538,-1.5346,-1.4966,-1.5179,-1.5775,-1.5802,-1.574,-1.5683,-1.5996,-1.6163,-1.6145,-1.5689,-1.5667,-1.5829,0.0,0.0,0.0,0.0,0.0,-0.6848,-0.5886,-0.5113,-0.4376,-0.3433,-0.2741,-0.2088,-0.1433,-0.0938,0.0221,0.2377,0.3638,0.0,0.0,0.0,0.0,0.0,0.0,0.0,0.0,0.0,0.8802,0.8587,0.8195,0.8084,0.0,0.0,0.697,0.6818,0.0,0.0,0.0,0.0,0.0,0.0,0.0,0.0,0.0,0.0,0.0,0.0,0.0,0.0,0.0,0.0,0.0,0.0,0.0,0.0,0.0,0.0,-0.694,-0.68,-0.6456,-0.6482,-0.6615,-0.6694,-0.742,-0.8303,-0.9073,-0.9589,-1.014,-1.0897,-1.1124,-1.1226,-1.1377,-1.1477,-1.1528,0.0,0.0,-1.1524,-1.1314,-1.1336,-1.1082,-1.0195,-1.0318,-1.0131,-0.9358,-0.9578,-0.9922,-1.0299,-1.0554,-1.0864,-1.1283,-1.1306,-1.1527,-1.2076,-1.1977,-1.2136,-1.2574,-1.2621,-1.2708,-1.2846,-1.2793,-1.2932,-1.3268,-1.3221,-1.3736,-1.4654,-1.4599,-1.4933,-1.5538,-1.5766,-1.5727,-1.556,-1.5858,-1.5854,-1.5637,-1.5286,-1.5298,-1.5469,0.0,0.0,0.0,0.0,0.0,0.0,-0.7979,-0.7361,-0.6595,-0.5592,-0.5288,-0.4796,-0.3773,-0.377,-0.3871,-0.3889,-0.0279,0.0,0.0,0.0,0.0,0.0,0.0,0.0,0.0,0.0,0.5932,0.5931,0.5647,0.5441,0.522,0.4933,0.4429,0.3678,0.0,0.0,0.0,0.0,0.0,0.0,0.0,0.0,0.0,0.0,0.0,0.0,0.0,0.0,0.0,0.0,0.0,0.0,0.0,-0.9873,-0.9887,0.0,-0.8033,-0.7845,-0.7157,-0.6905,-0.6797,-0.6715,-0.7503,-0.8422,-0.899,-0.9723,-1.0409,-1.0839,-1.0922,-1.0871,-1.0718,-1.0718,-1.0718,-1.0718,-1.0922,0.0,-1.0731,-1.1045,-1.1189,-1.0907,-1.1135,-1.1113,-1.0745,-1.0499,-1.0363,-1.0417,-1.0454,-1.0543,-1.0597,-1.0507,-1.0984,-1.2274,-1.2035,-1.2099,-1.2507,-1.2507,-1.2507,-1.2519,-1.2655,-1.2568,-1.2319,-1.2578,-1.2844,-1.3166,-1.4237,-1.4923,-1.5369,-1.6169,-1.6325,-1.6062,-1.595,-1.5507,-1.4866,-1.4558,-1.4269,-1.4056,0.0,0.0,0.0,0.0,0.0,0.0,0.0,-0.9845,-0.9438,-0.8909,-0.841,-0.8038,-0.7722,-0.7404,-0.7378,-0.761,-0.4432,0.0,0.0,0.0,0.0,0.0,0.0,0.0,0.0,0.0,0.2347,0.1874,0.1586,0.0994,0.0113,-0.0055,-0.0441,-0.0955,-0.1593,-0.2235,0.0,0.0,0.0,0.0,0.0,0.0,-1.1241,0.0,0.0,0.0,0.0,0.0,0.0,0.0,0.0,0.0,0.0,0.0,0.0,-1.0303,-0.9268,-0.8231,-0.8031,-0.7811,-0.7752,-0.7926,-0.861,-0.9275,-0.9533,-0.9951,-1.0378,-1.0694,-1.0667,-1.0624,-1.0667,-1.0624,-1.0624,-1.082,-1.1085,0.0,-1.1456,-1.1313,-1.0836,-0.9976,-0.8866,-0.8198,-0.8253,-0.8272,-0.8339,-0.8543,-0.8776,-0.8996,-0.9134,-0.912,-0.9773,-1.1209,-1.1155,-1.1326,-1.1901,-1.1622,-1.1622,-1.1901,-1.1529,-1.1506,-1.1828,-1.1775,-1.224,-1.3119,-1.3178,-1.3561,-1.4136,-1.4232,-1.4186,-1.4086,-1.456,-1.4617,-1.4414,-1.4466,-1.4667,-1.4861,0.0,0.0,0.0,0.0,0.0,0.0,0.0,-1.2183,-1.1969,-1.1724,-1.1376,-1.1123,-1.1162,-1.0918,-1.1035,-1.1542,-0.9757,0.0,0.0,0.0,0.0,0.0,0.0,0.0,0.0,-0.1475,-0.1597,-0.1883,-0.2216,-0.2757,-0.3475,-0.3671,-0.4097,-0.4601,-0.5225,-0.5797,0.0,0.0,0.0,0.0,0.0,0.0,-1.2824,0.0,0.0,0.0,0.0,0.0,0.0,0.0,0.0,0.0,0.0,0.0,0.0,0.0,-1.046,-0.9233,-0.9005,-0.8669,-0.8427,-0.855,-0.915,-0.9702,-0.9702,-1.0116,-1.0522,-1.0675,-1.0616,-1.0613,-1.0741,-1.0661,-1.0656,-1.0897,-1.0977,-1.0971,-1.0947,-1.0629,-1.0141,-0.9438,-0.8212,-0.7478,-0.7726,-0.7643,-0.7666,-0.7777,-0.8068,-0.8273,-0.8413,-0.8495,-0.8977,-0.9954,-0.9917,-1.0346,-1.138,-1.0884,-1.0842,-1.1273,-1.1037,-1.1018,-1.1203,-1.1217,-1.1576,-1.2249,-1.2438,-1.2777,0.0,-1.344,-1.3408,-1.3233,-1.3722,-1.3776,-1.3591,-1.3868,-1.4109,-1.4315,0.0,0.0,0.0,0.0,0.0,0.0,0.0,-1.4358,-1.4255,-1.4003,-1.4036,-1.4078,-1.4164,-1.4366,-1.4795,-1.5627,0.0,0.0,0.0,0.0,0.0,0.0,0.0,0.0,-0.5655,-0.5955,-0.5961,-0.5542,-0.5987,-0.6142,-0.6158,-0.643,-0.6886,-0.7544,-0.8351,-0.9227,0.0,0.0,0.0,0.0,-1.3455,-1.3404,0.0,0.0,0.0,0.0,0.0,0.0,0.0,0.0,0.0,0.0,0.0,0.0,0.0,0.0,0.0,0.0,0.0,-0.9517,-0.9003,-0.883,-0.9356,-0.9831,-0.9691,0.0,0.0,-1.0675,-1.0675,-1.0729,-1.087,-1.0748,-1.074,-1.0918,-1.0587,-1.0129,-0.963,-0.9289,-0.9057,-0.8982,-0.8513,-0.8304,-0.8521,-0.8128,-0.787,-0.7735,-0.8006,-0.8165,-0.8146,-0.8279,-0.8423,-0.8593,-0.8423,-0.9131,-1.0858,-1.0308,-1.0237,-1.0662,-1.1069,-1.1022,-1.0655,-1.0853,-1.0905,-1.0856,-1.1937,-1.2413,-1.2462,-1.3496,-1.3594,-1.319,-1.3279,-1.2979,-1.2519,-1.2901,-1.2901,-1.2787,0.0,0.0,0.0,0.0,0.0,0.0,0.0,0.0,0.0,0.0,-1.6259,-1.6712,-1.6872,-1.7485,-1.798,0.0,0.0,0.0,0.0,0.0,0.0,0.0,0.0,0.0,-0.9814,-1.0356,-1.0786,-1.0987,-1.0956,-1.139,-1.222,-1.1439,-1.1606,-1.2538,-1.2141,-1.2696,0.0,0.0,0.0,0.0,-1.6896,-1.6523,0.0,0.0,0.0,0.0,-1.4258,-1.3988,0.0,0.0,0.0,0.0,0.0,0.0,0.0,0.0,-1.2744,-1.2233,-1.1902,0.0,-1.03,-1.0491,-1.0581,-1.0596,0.0,0.0,0.0,0.0,0.0,-1.0574,-1.077,-1.0455,-1.028,-1.0662,-1.0491,-1.0016,-0.9242,-0.7902,-0.6744,-0.5962,-0.5695,-0.5606,-0.5718,-0.5826,-0.5976,-0.6131,-0.6485,-0.6625,-0.6447,-0.6683,-0.7068,-0.7593,-0.703,-0.7629,-0.9427,-0.9498,-0.9823,-1.0449,-1.0684,-1.0919,-1.1202,-1.0619,-1.058,-1.0863,-1.0755,-1.0946,-1.1356,-1.1744,-1.1894,-1.1945,-1.2234,-1.2235,-1.2175,-1.2578,-1.2822,-1.2938,0.0,0.0,0.0,0.0,0.0,0.0,0.0,0.0,0.0,0.0,0.0,-1.8479,-1.9141,-1.9593,0.0,0.0,0.0,0.0,0.0,0.0,0.0,0.0,0.0,-1.3983,-1.3549,-1.419,-1.4373,-1.4089,-1.4255,-1.4457,-1.4697,-1.4327,-1.4512,-1.5164,-1.5284,-1.6044,0.0,0.0,0.0,-1.8105,-1.8016,0.0,0.0,0.0,0.0,0.0,-1.522,-1.4949,0.0,-1.4547,-1.4351,-1.4165,0.0,0.0,0.0,0.0,-1.3314,-1.2871,-1.288,-1.2069,-1.1328,-1.1366,-1.1175,-1.0972,-1.082,0.0,0.0,0.0,0.0,0.0,-1.0663,-1.0423,-1.0334,-1.0662,-1.0024,-0.9098,-0.7783,-0.6823,-0.5901,-0.5021,-0.4948,-0.4973,-0.4891,-0.5047,-0.5263,-0.5441,-0.5732,-0.5851,-0.5792,-0.5949,-0.6252,-0.6662,-0.6282,-0.6925,-0.8704,-0.8699,-0.899,-0.9644,-1.0025,-1.0253,-1.0381,-1.0056,-1.015,-1.065,-1.0371,-1.0547,-1.11,-1.1259,-1.1278,-1.1282,-1.1553,-1.1579,-1.1568,-1.1861,-1.1813,-1.1681,0.0,0.0,0.0,0.0,0.0,0.0,0.0,0.0,0.0,0.0,0.0,0.0,0.0,0.0,0.0,0.0,0.0,0.0,0.0,0.0,0.0,0.0,0.0,-1.776,-1.7012,-1.7621,-1.7467,-1.6535,-1.6877,-1.6751,-1.6149,-1.655,-1.6779,-1.6954,-1.8191,-1.9102,0.0,-1.9297,-1.9422,-1.969,-1.8468,0.0,0.0,0.0,0.0,0.0,0.0,0.0,0.0,-1.5558,-1.5334,-1.5108,-1.496,0.0,0.0,0.0,0.0,0.0,-1.3409,-1.2861,-1.2178,-1.1868,-1.1477,-1.1124,-1.1074,0.0,0.0,0.0,0.0,0.0,0.0,-1.0528,0.0,-1.0654,-0.9335,-0.781,-0.6239,-0.595,-0.5695,-0.4943,-0.506,-0.5072,-0.4923,-0.5001,-0.5064,-0.5245,-0.5441,-0.5555,-0.5525,-0.5692,-0.5815,-0.5868,-0.5893,-0.6546,-0.8016,-0.7856,-0.802,-0.8526,-0.9204,-0.9392,-0.9185,-0.9252,-0.9617,-1.0205,-1.0058,-1.0371,-1.0872,-1.1024,-1.1004,-1.0895,-1.1012,-1.105,-1.1029,-1.1012,-1.0603,-1.0137,0.0,0.0,0.0,0.0,0.0,0.0,0.0,0.0,0.0,0.0,0.0,0.0,0.0,0.0,0.0,0.0,0.0,0.0,0.0,0.0,0.0,-2.2893,-2.1063,-2.0097,-2.0202,-2.0624,-2.0845,-2.0737,-2.0678,-2.0567,-2.0532,-2.0288,-2.0106,-2.0146,-2.1192,-2.1425,-2.1077,-2.1906,-2.1622,-2.0634,-2.0688,0.0,0.0,0.0,0.0,0.0,0.0,0.0,0.0,-1.568,-1.5424,-1.521,-1.496,0.0,0.0,0.0,0.0,0.0,-1.3658,-1.3467,-1.318,-1.2412,-1.1719,-1.1226,0.0,0.0,0.0,0.0,0.0,0.0,0.0,-1.0657,-1.0487,-1.0267,-0.8463,-0.6815,-0.6124,-0.5258,-0.4671,-0.4337,-0.4473,-0.4538,-0.4515,-0.4588,-0.4778,-0.4947,-0.5367,-0.55,-0.5291,-0.5645,-0.5859,-0.5745,-0.5707,-0.5937,-0.6349,-0.6789,-0.7259,-0.7782,-0.8316,-0.8827,-0.9182,-0.8587,-0.8679,-0.9273,-0.8631,-0.8741,-0.9341,-0.9603,-0.9961,-1.034,-1.0485,-1.0784,-1.1099,-1.0477,-1.0244,-1.0205,0.0,0.0,0.0,0.0,0.0,0.0,0.0,0.0,0.0,0.0,0.0,0.0,0.0,0.0,0.0,0.0,0.0,0.0,0.0,0.0,-2.4502,-2.4558,-2.35,-2.2671,-2.2073,-2.2343,-2.2298,-2.1761,-2.2009,-2.1826,-2.1193,-2.1396,-2.147,-2.144,-2.2454,-2.2804,-2.2702,-2.3113,-2.2819,-2.2008,0.0,0.0,0.0,0.0,0.0,0.0,0.0,0.0,0.0,0.0,-1.5869,-1.5603,-1.5142,0.0,0.0,0.0,0.0,0.0,-1.3868,-1.3536,-1.3104,-1.2696,-1.1835,-1.0942,0.0,0.0,0.0,0.0,0.0,0.0,0.0,-1.0013,-0.918,-0.8034,-0.7421,-0.669,-0.5578,-0.544,-0.5167,-0.4527,-0.4647,-0.47,-0.4496,-0.4496,-0.4614,-0.4881,-0.5027,-0.5093,-0.5065,-0.5218,-0.54,-0.542,-0.5411,-0.5516,-0.5743,-0.6253,-0.6745,-0.7194,-0.7658,-0.7955,-0.8034,-0.7784,-0.8027,-0.8604,-0.8276,-0.8484,-0.9065,-0.9264,-0.947,-0.963,-0.9758,-0.9933,-0.9972,-0.9301,-0.943,-0.9834,0.0,0.0,0.0,0.0,0.0,0.0,0.0,0.0,0.0,0.0,0.0,0.0,0.0,0.0,0.0,0.0,0.0,0.0,0.0,0.0,-2.5185,-2.5333,-2.5123,-2.4502,-2.3434,-2.3486,-2.3086,-2.2186,-2.2728,-2.2564,-2.1806,-2.2313,-2.2564,-2.2594,-2.3313,-2.3724,-2.3867,-2.3782,-2.3523,-2.3084,0.0,0.0,0.0,0.0,0.0,0.0,0.0,0.0,0.0,0.0,0.0,0.0,0.0,0.0,0.0,-1.4466,-1.4093,-1.3905,-1.3915,-1.3488,-1.2977,-1.2551,0.0,0.0,0.0,0.0,0.0,0.0,0.0,0.0,0.0,-0.9377,-0.813,-0.6327,-0.6546,-0.644,-0.4923,-0.5281,-0.5433,-0.4628,-0.4714,-0.4699,-0.4399,-0.4376,-0.4428,-0.4674,-0.4664,-0.4631,-0.4732,-0.4787,-0.4896,-0.514,-0.5188,-0.5306,-0.5506,-0.601,-0.639,-0.6706,-0.7137,-0.7275,-0.7048,-0.7139,-0.7412,-0.7885,-0.7929,-0.8215,-0.8609,-0.8763,-0.8804,-0.8795,-0.8964,-0.8924,-0.8804,-0.8374,-0.8578,-0.9022,0.0,0.0,0.0,0.0,0.0,0.0,0.0,0.0,0.0,0.0,0.0,0.0,0.0,0.0,0.0,0.0,0.0,0.0,0.0,0.0,-2.5317,-2.5378,-2.5185,-2.495,-2.4686,-2.4092,-2.3639,-2.3389,-2.3491,-2.3881,-2.4498,-2.4277,-2.4307,-2.4576,-2.4354,-2.4177,-2.4078,-2.4078,-2.3782,-2.326,-2.2935,0.0,0.0,0.0,0.0,0.0,0.0,0.0,0.0,0.0,0.0,0.0,0.0,0.0,-1.5165,-1.4708,-1.4373,-1.4082,-1.3716,-1.3573,-1.3175,-1.1705,-1.1562,0.0,-1.04,-1.0119,0.0,-0.9184,0.0,0.0,0.0,-0.913,-0.8195,-0.6623,-0.6202,-0.56,-0.4262,-0.4245,-0.4249,-0.4049,-0.4085,-0.4033,-0.3946,-0.411,-0.4192,-0.406,-0.4237,-0.4316,-0.4355,-0.4463,-0.467,-0.5024,-0.5136,-0.5306,-0.5506,-0.5913,-0.6169,-0.635,-0.6735,-0.6939,-0.6895,-0.6783,-0.6809,-0.6978,-0.6996,-0.7042,-0.7051,-0.7282,-0.7579,-0.7908,-0.8047,-0.8095,-0.8095,-0.8177,-0.7938,-0.7538,0.0,0.0,0.0,0.0,0.0,0.0,0.0,0.0,0.0,0.0,0.0,0.0,0.0,0.0,0.0,0.0,0.0,0.0,0.0,-2.5942,-2.603,-2.6137,-2.5775,-2.5492,-2.5301,-2.4483,-2.3592,-2.2611,-2.3167,-2.3517,-2.3707,-2.4461,-2.4634,-2.4334,-2.4602,-2.4751,-2.4735,-2.467,-2.423,-2.3537,-2.3319,-2.2453,0.0,0.0,0.0,0.0,0.0,0.0,0.0,0.0,-1.6262,-1.5881,-1.5379,-1.5017,-1.4708,-1.4419,-1.4093,-1.3847,-1.3858,-1.3168,-1.2451,-1.2359,-1.1842,0.0,0.0,-0.9324,-0.9435,-0.8877,-0.8996,0.0,0.0,-0.7952,-0.6997,-0.5854,-0.5152,-0.4524,-0.3971,-0.391,-0.3947,-0.4008,-0.4002,-0.398,-0.3871,-0.389,-0.3955,-0.3901,-0.3971,-0.4042,-0.4236,-0.4295,-0.4495,-0.4912,-0.4973,-0.521,-0.5567,-0.5854,-0.6109,-0.6216,-0.6579,-0.6765,-0.6786,-0.6794,-0.6806,-0.6767,-0.6877,-0.6847,-0.6801,-0.6948,-0.7107,-0.7268,-0.7306,-0.7321,-0.7398,-0.7405,-0.7405,-0.7377,0.0,0.0,0.0,0.0,0.0,0.0,0.0,0.0,0.0,0.0,0.0,0.0,0.0,0.0,0.0,0.0,0.0,0.0,-2.623,-2.6336,-2.647,-2.6521,-2.6189,-2.5839,-2.5411,-2.4742,-2.3774,-2.2497,-2.3031,-2.3462,-2.3802,-2.4684,-2.4853,-2.4385,-2.4877,-2.5084,-2.5091,-2.5029,-2.4599,-2.3964,-2.3709,-2.2937,0.0,0.0,0.0,0.0,0.0,0.0,0.0,0.0,-1.6175,-1.5748,-1.53,-1.4834,-1.4466,-1.4269,-1.3847,-1.3515,-1.3668,-1.2855,-1.1997,0.0,0.0,0.0,-0.8821,-0.9,-0.9276,-0.8504,-0.8633,-0.8626,-0.7895,-0.7192,-0.6313,-0.5128,-0.4389,-0.391,-0.3688,-0.3688,-0.3729,-0.3744,-0.3739,-0.367,-0.3522,-0.3545,-0.3582,-0.3544,-0.3556,-0.3661,-0.3907,-0.402,-0.4263,-0.4677,-0.4846,-0.5124,-0.5454,-0.5786,-0.6005,-0.6119,-0.6386,-0.6577,-0.6691,-0.686,-0.686,-0.6756,-0.6921,-0.6906,-0.6777,-0.6887,-0.693,-0.6902,-0.6944,-0.6956,-0.6988,-0.6905,-0.7045,-0.7197,0.0,0.0,0.0,0.0,0.0,0.0,0.0,0.0,0.0,0.0,0.0,0.0,0.0,0.0,0.0,0.0,0.0,0.0,-2.6903,-2.664,-2.6454,-2.6401,-2.6349,-2.5859,-2.4924,-2.4908,-2.4372,-2.3304,-2.3304,-2.4012,-2.5378,-2.5169,-2.5091,-2.5107,-2.524,-2.524,-2.5091,-2.4958,-2.4799,-2.4589,-2.4245,-2.3894,-2.3359,0.0,0.0,0.0,0.0,0.0,0.0,0.0,-1.6293,-1.5748,-1.5402,-1.5028,-1.4605,-1.4269,-1.3742,-1.317,-1.3016,-1.2638,-1.2064,0.0,0.0,0.0,-0.8892,-0.9391,-0.9713,-0.8029,-0.8383,-0.8626,-0.7326,-0.7052,-0.6396,-0.4659,-0.4177,-0.3855,-0.3469,-0.3524,-0.3481,-0.3252,-0.3184,-0.3143,-0.2936,-0.3018,-0.3022,-0.2913,-0.3042,-0.3139,-0.3313,-0.3667,-0.4004,-0.4184,-0.4798,-0.5124,-0.5124,-0.5572,-0.5845,-0.6,-0.6119,-0.6386,-0.6701,-0.682,-0.6879,-0.6879,-0.7031,-0.7003,-0.6934,-0.7042,-0.7001,-0.6917,-0.705,-0.7002,-0.6882,-0.6896,-0.6883,-0.6891,0.0,0.0,0.0,0.0,0.0,0.0,0.0,0.0,0.0,0.0,0.0,0.0,0.0,0.0,0.0,0.0,0.0,0.0,-2.5854,-2.5668,-2.5777,-2.6153,-2.5913,-2.5748,-2.5822,-2.4974,-2.4175,-2.3444,-2.3497,-2.3916,-2.4786,-2.5137,-2.5278,-2.524,-2.5185,-2.5146,-2.5091,-2.5052,-2.4839,-2.4461,-2.4188,-2.3767,-2.3113,0.0,0.0,0.0,0.0,0.0,0.0,0.0,0.0,0.0,-1.4983,-1.4534,-1.4104,-1.3647,-1.3362,-1.3064,-1.2463,-1.1426,0.0,-1.0824,0.0,0.0,0.0,-0.9166,0.0,0.0,-0.8195,-0.7978,-0.7219,-0.6395,-0.5553,-0.4758,-0.4044,-0.3559,-0.3401,-0.3291,-0.3194,-0.3184,-0.3072,-0.2907,-0.2725,-0.2754,-0.2793,-0.2716,-0.2897,-0.3139,-0.3362,-0.3658,-0.4052,-0.4519,-0.4743,-0.5018,-0.5458,-0.5567,-0.5736,-0.5845,-0.5905,-0.6119,-0.649,-0.6549,-0.6598,-0.6761,-0.6815,-0.6827,-0.6919,-0.7063,-0.6997,-0.6907,-0.6933,-0.6858,-0.675,-0.6765,-0.6783,-0.6748,0.0,0.0,0.0,0.0,0.0,0.0,0.0,0.0,0.0,0.0,-2.7221,-2.7385,0.0,0.0,0.0,-2.7155,-2.6415,0.0,-2.5875,-2.5457,-2.5478,-2.6031,-2.5751,-2.5765,-2.6189,-2.5085,-2.4482,-2.4321,-2.3977,-2.4168,-2.4825,-2.5223,-2.5355,-2.524,-2.5201,-2.5107,-2.4974,-2.4743,-2.4603,-2.443,-2.4116,-2.3766,-2.3303,0.0,0.0,0.0,0.0,0.0,0.0,0.0,0.0,0.0,0.0,0.0,-1.3668,-1.317,-1.2822,-1.2404,-1.1576,-1.0637,0.0,-0.9687,-0.8807,-0.7989,-0.804,0.0,0.0,0.0,-0.7774,-0.7261,-0.6504,-0.5717,-0.4938,-0.4275,-0.3746,-0.34,-0.34,-0.3146,-0.3024,-0.3066,-0.2857,-0.2598,-0.2461,-0.2487,-0.2569,-0.2569,-0.2843,-0.3112,-0.3284,-0.3617,-0.3987,-0.4349,-0.4577,-0.4853,-0.5238,-0.5403,-0.5572,-0.5736,-0.5795,-0.59,-0.6168,-0.6277,-0.644,-0.6598,-0.6647,-0.6761,-0.6923,-0.6992,-0.6979,-0.6957,-0.6968,-0.6907,-0.684,-0.6789,-0.6756,-0.6771,0.0,0.0,-2.2903,-2.322,0.0,0.0,0.0,0.0,0.0,-2.6479,-2.6704,-2.7077,0.0,0.0,0.0,-2.7968,-2.7161,-2.6629,-2.649,-2.5614,-2.5328,-2.5884,-2.5817,-2.5915,-2.6189,-2.5278,-2.5062,-2.5616,-2.4687,-2.4591,-2.5294,-2.5355,-2.5301,-2.5107,-2.5201,-2.5068,-2.4697,-2.4207,-2.4178,-2.4396,-2.3967,-2.3847,-2.3712,-2.2125,0.0,0.0,0.0,0.0,0.0,0.0,0.0,0.0,-1.507,-1.4306,-1.3375,-1.288,-1.2218,-1.1437,-1.0578,-1.0068,0.0,-0.8177,-0.7753,0.0,-0.7032,-0.716,-0.7419,-0.7535,-0.7177,-0.6458,-0.5383,-0.5015,-0.4515,-0.3545,-0.3393,-0.3368,-0.3368,-0.3118,-0.2911,-0.2855,-0.2515,-0.2297,-0.2219,-0.229,-0.239,-0.2485,-0.282,-0.3074,-0.3182,-0.3564,-0.3785,-0.3793,-0.4353,-0.4636,-0.4688,-0.5077,-0.5352,-0.5513,-0.5681,-0.574,-0.5795,-0.6069,-0.6282,-0.6386,-0.6598,-0.6761,-0.6879,-0.6879,-0.6982,-0.7085,-0.7085,-0.7085,-0.7058,-0.6941,-0.691,-0.6928,0.0,0.0,-2.3259,-2.4547,0.0,0.0,0.0,0.0,-2.5617,-2.6422,-2.7035,-2.7484,-2.773,-2.7777,0.0,-2.7707,-2.6455,-2.5665,-2.5582,-2.4739,-2.4559,-2.527,-2.5992,-2.6335,-2.6187,-2.5697,-2.5475,-2.5616,-2.4818,-2.4724,-2.5294,-2.5317,-2.5201,-2.5005,-2.5045,-2.4705,-2.4106,-2.3986,-2.3626,-2.3199,-2.3537,-2.3418,-2.3043,-2.2931,-2.2221,0.0,0.0,0.0,0.0,0.0,0.0,0.0,-1.4946,-1.439,-1.3829,-1.2497,-1.1634,-1.0924,-0.9881,-0.9048,0.0,0.0,-0.7157,-0.6815,-0.6335,-0.6292,-0.641,-0.6684,-0.636,-0.5699,-0.4696,-0.4551,-0.4314,-0.3553,-0.3296,-0.3263,-0.3263,-0.2853,-0.2609,-0.2597,-0.2425,-0.2274,-0.2303,-0.2432,-0.2539,-0.2589,-0.2934,-0.3159,-0.3184,-0.349,-0.3718,-0.3965,-0.4079,-0.4298,-0.4519,-0.4846,-0.5011,-0.5066,-0.5293,-0.5517,-0.5677,-0.5896,-0.6114,-0.6228,-0.6386,-0.649,-0.6544,-0.6652,-0.6761,-0.6815,-0.6928,-0.6933,-0.6977,-0.7026,-0.7057,-0.703,0.0,0.0,0.0,0.0,0.0,0.0,0.0,0.0,-2.545,-2.5841,-2.6574,-2.7075,-2.7116,-2.7145,0.0,0.0,-2.5515,-2.4989,-2.5275,-2.4423,-2.4287,-2.5169,-2.6017,-2.6312,-2.5954,-2.5754,-2.5567,-2.5464,-2.5062,-2.5024,-2.5355,-2.5333,-2.5064,-2.4598,-2.446,-2.4004,-2.3268,-2.3246,-2.3155,-2.304,-2.3344,-2.3167,-2.2739,-2.2685,-2.1917,-2.0678,-1.944,0.0,0.0,0.0,0.0,0.0,0.0,0.0,-1.3701,-1.2177,-1.137,-1.0727,-0.9227,0.0,0.0,-0.6653,0.0,-0.6081,-0.5475,-0.5265,-0.5213,-0.5413,-0.5206,-0.4865,-0.4469,-0.4168,-0.382,-0.3371,-0.3263,-0.318,-0.3089,-0.2714,-0.252,-0.2511,-0.2372,-0.2284,-0.2276,-0.2462,-0.264,-0.2689,-0.3048,-0.3322,-0.3322,-0.3492,-0.3638,-0.3805,-0.3858,-0.4021,-0.4242,-0.4463,-0.4629,-0.4736,-0.4908,-0.5187,-0.5462,-0.5791,-0.5955,-0.6014,-0.6064,-0.6173,-0.6337,-0.644,-0.6544,-0.6701,-0.6761,-0.682,-0.6761,-0.6539,-0.6539,-0.6509,0.0,0.0,0.0,0.0,0.0,0.0,0.0,0.0,0.0,-2.5237,-2.6096,-2.6667,-2.6527,-2.6556,-2.6251,0.0,0.0,0.0,-2.5065,-2.4438,-2.4462,-2.543,-2.5997,-2.6101,-2.5701,-2.5663,-2.553,-2.5333,-2.5128,-2.5112,-2.5285,-2.515,-2.4808,-2.4329,-2.3894,-2.3318,-2.2639,-2.2652,-2.2771,-2.2987,-2.311,-2.2894,-2.2461,-2.2041,-2.1298,-2.0257,-1.8817,-1.818,-1.787,-1.6716,0.0,0.0,0.0,0.0,-1.3348,-1.1966,-1.1175,-1.0448,-0.8803,0.0,-0.7498,-0.5755,-0.5394,0.0,-0.4657,-0.438,-0.4252,-0.4157,-0.4059,-0.4006,-0.4216,-0.3711,-0.3282,-0.3112,-0.3072,-0.3009,-0.2874,-0.2607,-0.2462,-0.246,-0.2344,-0.2257,-0.2344,-0.2537,-0.2689,-0.2788,-0.3125,-0.3337,-0.3355,-0.345,-0.3561,-0.3583,-0.3691,-0.3799,-0.3913,-0.4082,-0.4245,-0.4408,-0.4577,-0.4853,-0.5187,-0.5462,-0.5686,-0.5795,-0.5795,-0.5905,-0.6123,-0.6123,-0.6223,-0.6376,-0.6431,-0.6372,-0.6258,-0.5769,-0.5719,-0.5706,0.0,0.0,0.0,0.0,0.0,0.0,0.0,0.0,0.0,0.0,-2.6637,-2.7315,-2.6654,-2.6584,-2.6251,-2.539,-2.469,-2.4305,-2.4348,0.0,0.0,-2.6114,-2.6245,-2.6101,-2.5701,-2.5454,-2.5355,-2.5394,-2.4404,-2.4272,0.0,0.0,-2.4411,-2.4831,-2.3936,-2.3257,-2.2797,-2.3134,-2.2669,-2.1709,-2.2276,-2.2255,-2.1814,-2.1528,-2.1268,-2.0983,-2.0113,-1.9252,-1.8412,-1.7752,-1.6809,0.0,0.0,0.0,-1.3141,-1.2088,-1.0726,-0.9539,0.0,0.0,-0.5952,0.0,-0.5005,-0.4618,0.0,-0.416,-0.4138,-0.364,-0.343,-0.3283,-0.322,-0.3077,-0.2942,-0.2794,-0.2673,-0.257,-0.257,-0.2384,-0.2241,-0.2326,-0.2401,-0.2492,-0.2542,-0.2794,-0.2953,-0.289,-0.2986,-0.3086,-0.3125,-0.3207,-0.3309,-0.3411,-0.3583,-0.3638,-0.3638,-0.3913,-0.4024,-0.4079,-0.4353,-0.4632,-0.4802,-0.4802,-0.5187,-0.5795,-0.5795,-0.5795,-0.585,-0.585,-0.5567,-0.5171,-0.5273,-0.505,-0.4718,-0.4835,-0.4948,-0.5007,0.0,0.0,0.0,0.0,0.0,0.0,0.0,0.0,0.0,0.0,0.0,-2.6754,-2.6411,-2.6079,-2.5547,-2.475,-2.4033,-2.3753,-2.4059,-2.5029,-2.5675,-2.5782,-2.6114,-2.6066,-2.5551,-2.5432,-2.5278,-2.5045,-2.4155,0.0,0.0,-2.2793,-2.2745,0.0,0.0,-2.2925,-2.1978,-2.2918,-2.2971,-2.2401,-2.2783,-2.2278,-2.1237,-2.1211,-2.0401,-1.9275,-1.9362,-1.8669,-1.7531,-1.7086,-1.6466,-1.5542,-1.4078,0.0,0.0,0.0,-1.0725,-0.956,-0.8117,-0.6679,-0.5368,0.0,-0.4296,-0.4115,-0.3451,-0.362,-0.3781,-0.3315,-0.3116,-0.2996,-0.3091,-0.2937,-0.2791,-0.2695,-0.2595,-0.2462,-0.233,-0.2243,-0.2217,-0.2309,-0.2399,-0.2534,-0.2586,-0.2744,-0.2788,-0.2722,-0.2844,-0.2865,-0.2799,-0.2966,-0.3126,-0.3166,-0.34,-0.3495,-0.3482,-0.3657,-0.3802,-0.391,-0.4132,-0.4301,-0.4415,-0.4522,-0.4908,-0.5407,-0.5407,-0.5513,-0.5677,-0.5344,-0.5066,-0.4897,-0.4615,-0.4336,-0.4171,-0.3901,-0.3901,-0.3944,0.0,0.0,0.0,0.0,0.0,0.0,0.0,0.0,0.0,0.0,0.0,-2.6242,-2.6212,0.0,0.0,0.0,-2.35,-2.3335,-2.39,-2.489,-2.5323,-2.5045,-2.5612,-2.5694,-2.5121,-2.5083,-2.4853,-2.4436,0.0,0.0,-2.2717,-2.1332,-2.116,0.0,-2.2447,-2.2072,0.0,0.0,0.0,-2.2738,-2.275,-2.1929,-2.0752,-2.047,-1.9304,-1.7891,-1.8577,-1.7961,-1.6745,-1.6622,-1.6049,-1.5207,-1.3756,-1.3224,0.0,0.0,0.0,0.0,0.0,0.0,-0.5184,-0.3851,-0.3737,-0.3748,-0.2992,-0.3159,-0.3391,-0.3092,-0.2909,-0.288,-0.3057,-0.283,-0.2592,-0.2592,-0.2478,-0.2328,-0.2154,-0.2129,-0.2165,-0.2227,-0.2351,-0.2477,-0.259,-0.2607,-0.2617,-0.264,-0.2675,-0.2693,-0.2646,-0.2842,-0.2952,-0.2951,-0.3268,-0.3429,-0.3449,-0.3591,-0.3691,-0.3796,-0.391,-0.4024,-0.4138,-0.4132,-0.4349,-0.4736,-0.4956,-0.512,-0.5175,-0.4783,-0.4508,-0.4229,-0.3843,-0.3619,-0.3456,-0.2961,-0.2905,-0.2947,0.0,0.0,0.0,0.0,0.0,0.0,0.0,0.0,0.0,0.0,0.0,-2.6365,-2.6312,-2.5634,-2.4913,-2.4172,-2.3423,-2.3232,-2.3781,-2.3874,-2.3977,-2.405,-2.4661,0.0,-2.4271,-2.4191,-2.3964,0.0,0.0,0.0,-2.145,-2.0563,-2.0191,-2.0338,-2.0382,-2.0507,-2.079,0.0,0.0,0.0,0.0,-2.0711,-2.026,-1.8808,-1.8221,-1.8209,-1.8513,-1.7811,-1.6773,-1.721,-1.6063,-1.4374,-1.382,-1.2955,-1.2031,0.0,0.0,0.0,0.0,-0.6759,0.0,-0.4222,-0.3697,-0.3313,-0.2916,-0.2966,-0.308,-0.2916,-0.2858,-0.2803,-0.2744,-0.2498,-0.2322,-0.2322,-0.2159,-0.202,-0.202,-0.195,-0.1951,-0.2098,-0.2164,-0.2293,-0.2491,-0.2501,-0.2535,-0.2676,-0.2657,-0.2645,-0.2672,-0.2763,-0.2862,-0.2896,-0.3355,-0.358,-0.3574,-0.3741,-0.3796,-0.3796,-0.3796,-0.3855,-0.3965,-0.3408,-0.335,-0.3735,-0.4567,-0.4618,-0.4119,-0.4401,-0.379,-0.2623,-0.2736,-0.2514,-0.2127,-0.2069,-0.2127,-0.2238,0.0,0.0,0.0,0.0,0.0,0.0,0.0,0.0,0.0,0.0,0.0,0.0,0.0,-2.4533,-2.3984,-2.3744,-2.3079,-2.2779,-2.2956,-2.3232,-2.356,-2.3918,-2.4492,-2.4762,-2.4764,-2.422,-2.3693,0.0,0.0,-2.0629,-2.0349,-1.953,-1.9049,-1.8973,-2.0306,-2.0856,-2.0819,-2.1794,0.0,0.0,0.0,-2.0055,-1.9053,-1.8578,-1.7756,-1.6892,-1.7593,-1.7214,-1.6374,-1.6305,-1.5643,-1.4721,-1.4023,-1.3097,-1.1979,-1.0653,0.0,0.0,0.0,0.0,0.0,-0.4226,-0.3712,-0.3464,-0.3113,-0.3074,-0.2932,-0.2339,-0.203,-0.1732,-0.1315,-0.1422,-0.1612,-0.1707,-0.147,-0.1299,-0.1299,-0.1626,-0.1925,-0.2024,-0.2054,-0.2118,-0.2296,-0.2318,-0.2353,-0.2437,-0.241,-0.2436,-0.2515,-0.2595,-0.2702,-0.2728,-0.3014,-0.3304,-0.3585,-0.3802,-0.391,-0.391,-0.3519,-0.3352,-0.3411,-0.2796,-0.2685,-0.2907,-0.3292,-0.3453,-0.3398,-0.3014,-0.2625,-0.2181,-0.1903,-0.1568,-0.1345,-0.1738,-0.1738,-0.1676,0.0,0.0,0.0,0.0,0.0,0.0,0.0,0.0,0.0,0.0,0.0,0.0,0.0,0.0,-2.3304,-2.309,-2.2705,-2.246,-2.2415,-2.2642,-2.2892,-2.3111,-2.3846,-2.4277,-2.4369,-2.3667,0.0,0.0,0.0,0.0,0.0,-1.8835,-1.8358,-1.8176,-1.9549,-2.0122,0.0,0.0,0.0,-2.1197,-1.9905,-1.898,-1.8286,-1.7891,-1.7004,-1.6009,-1.666,-1.6377,-1.5625,-1.5277,-1.4757,-1.4214,-1.3909,-1.3119,-1.1913,0.0,0.0,0.0,-0.7247,0.0,0.0,0.0,-0.4011,-0.3793,-0.3252,-0.319,-0.2947,-0.2018,-0.151,-0.1118,-0.0503,-0.0414,-0.0531,-0.087,-0.088,-0.076,-0.0626,-0.1268,-0.1767,-0.1661,-0.1788,-0.1948,-0.2117,-0.2118,-0.214,-0.2271,-0.2327,-0.241,-0.2407,-0.2566,-0.2679,-0.2772,-0.29,-0.3193,-0.3585,-0.3635,-0.363,-0.3688,-0.3132,-0.291,-0.2854,-0.2294,-0.2071,-0.2184,-0.2069,-0.2289,-0.2621,-0.2237,-0.1903,-0.1681,-0.1346,-0.1122,-0.101,-0.1403,-0.1403,-0.1174,0.0,0.0,0.0,0.0,0.0,0.0,0.0,0.0,0.0,-2.2789,0.0,0.0,0.0,0.0,0.0,-2.2265,-2.2321,-2.2366,-2.2287,-2.2101,-2.1869,-2.1636,-2.2684,-2.3179,-2.2923,-2.2527,0.0,0.0,0.0,0.0,0.0,0.0,-1.8201,-1.7988,-1.7949,-1.8123,-1.852,0.0,-1.953,-2.0032,-1.7898,-1.747,-1.7995,-1.6591,-1.5883,-1.5649,-1.5856,-1.5348,-1.4531,-1.427,-1.3501,-1.2772,-1.347,-1.2815,0.0,0.0,0.0,0.0,0.0,0.0,0.0,-0.4901,-0.4574,-0.4255,-0.3276,-0.3203,-0.3087,-0.1974,-0.1512,-0.1063,-0.0447,0.0475,0.0906,0.0201,-0.033,-0.0492,-0.0045,-0.0863,-0.1411,-0.0908,-0.1354,-0.1726,-0.1952,-0.1903,-0.1946,-0.2178,-0.2352,-0.2521,-0.2521,-0.2635,-0.28,-0.3074,-0.3074,-0.3188,-0.3527,-0.3074,-0.2905,-0.3074,-0.2631,-0.2465,-0.2465,-0.1846,-0.1566,-0.1567,-0.0952,-0.112,-0.179,-0.2071,-0.1737,-0.1066,-0.1066,-0.1066,-0.1066,-0.1066,-0.101,-0.0842,0.0,0.0,0.0,0.0,0.0,0.0,-2.1924,-2.1678,-2.1771,0.0,0.0,0.0,-2.3044,-2.2895,-2.2681,-2.2498,-2.2529,-2.233,-2.1817,-2.1617,-2.1661,-2.2021,-2.2668,-2.3149,-2.3396,-2.2836,-2.2469,0.0,0.0,-1.9302,-1.9211,-1.8398,-1.8069,-1.8149,-1.7963,-1.7989,-1.8163,-1.8562,-1.8874,-1.901,-1.7774,-1.6999,-1.6478,-1.6021,-1.5199,-1.4315,-1.4205,-1.4252,-1.4224,-1.3217,-1.3422,-1.3912,-1.3095,0.0,0.0,0.0,0.0,0.0,-0.7544,0.0,0.0,0.0,0.0,0.0,-0.3901,-0.3421,-0.264,-0.1451,-0.0695,0.0,0.1011,0.1726,0.2094,0.1727,0.1057,0.0626,0.076,0.0047,-0.044,-0.0251,-0.0356,-0.0682,-0.117,-0.1141,-0.135,-0.2011,-0.2184,-0.2352,-0.2465,-0.2296,-0.2183,-0.2181,-0.2068,-0.2012,-0.1956,-0.2065,-0.2119,-0.2174,-0.1788,-0.1621,-0.1621,-0.1232,-0.112,-0.1064,-0.0897,-0.0953,-0.1121,-0.1121,-0.1009,-0.0842,-0.0898,-0.0785,-0.0617,-0.0617,-0.0449,-0.0223,0.0,0.0,-2.3403,-2.298,0.0,-2.213,-2.205,-2.1633,-2.1649,0.0,0.0,0.0,-2.2866,-2.2915,-2.2818,-2.2589,-2.2557,-2.2246,-2.1544,-2.1325,-2.136,-2.1745,-2.2359,-2.2752,-2.2933,-2.2596,-2.242,-2.2323,-2.0571,-1.9739,-1.9729,-1.8985,-1.8615,-1.8573,-1.8459,-1.8403,-1.8488,-1.8608,-1.8812,-1.8876,-1.6863,-1.6073,-1.5969,-1.4839,-1.3971,-1.3351,-1.3077,-1.3162,-1.3173,-1.2047,-1.2455,-1.3262,-1.2132,-1.1619,-1.1207,-1.0014,0.0,0.0,0.0,0.0,0.0,-0.5763,0.0,0.0,-0.403,-0.3595,-0.2738,-0.11,-0.0288,0.0515,0.1684,0.2288,0.2554,0.2446,0.194,0.1499,0.1382,0.0523,0.0049,0.0251,0.0153,-0.0106,-0.0502,-0.0489,-0.0648,-0.1117,-0.1344,-0.1568,-0.1846,-0.1621,-0.151,-0.151,-0.1398,-0.1285,-0.1285,-0.1229,-0.1284,-0.1338,-0.095,-0.0783,-0.0727,-0.0616,-0.0561,-0.0673,-0.0673,-0.0723,-0.0769,-0.0494,-0.0498,-0.0672,-0.0497,-0.022,0.0,0.0219,0.0384,0.0603,0.0,0.0,-2.3144,-2.3178,-2.2625,-2.238,-2.2975,-2.213,-2.1857,0.0,-2.2735,-2.2675,-2.3468,-2.3474,-2.3187,-2.2655,-2.2525,-2.2167,-2.1404,-2.1247,-2.1183,-2.1183,-2.1936,-2.221,-2.1987,-2.2031,-2.2149,-2.2271,-2.0901,-2.0223,-2.0274,-1.9714,-1.9213,-1.8877,-1.8845,-1.8845,-1.8845,-1.8591,-1.8728,-1.8857,-1.5641,-1.5118,-1.5996,-1.3488,-1.2601,-1.2632,-1.2313,-1.2062,-1.181,-1.0974,-1.1177,-1.1657,-1.1054,-1.1191,-1.1331,-1.035,-0.9539,0.0,0.0,0.0,0.0,-0.5936,-0.5542,0.0,-0.392,-0.3675,-0.3131,-0.0969,-0.0169,0.0505,0.1624,0.2184,0.2515,0.2515,0.2284,0.2052,0.1784,0.0889,0.0404,0.076,0.0522,0.027,0.0112,0.0164,0.0163,0.0,-0.028,-0.056,-0.0894,-0.0894,-0.0894,-0.1006,-0.0838,-0.0838,-0.1062,-0.056,-0.0392,-0.0559,-0.0168,0.0056,0.0,0.0,-0.0111,-0.0279,-0.0279,-0.0329,-0.0426,0.0,-0.0162,-0.0497,0.0107,0.0424,0.0585,0.1062,0.1332,0.1507,-2.257,-2.2392,-2.2218,-2.2319,-2.248,-2.2517,-2.2261,-2.2471,-2.2948,-2.3771,-2.3959,-2.4317,-2.5077,-2.4194,-2.35,-2.3302,-2.27,-2.1955,-2.1071,-2.1417,-2.1632,-2.1579,-2.1787,-2.187,-2.1768,-2.157,-2.1462,-2.1349,-2.0685,-2.0051,-1.9525,0.0,0.0,-1.7427,-1.7368,-1.7338,-1.7338,-1.714,-1.6997,-1.6773,-1.5763,-1.5429,-1.5364,-1.3077,-1.2037,-1.1786,-1.1519,-1.1436,-1.144,-1.1372,-1.1132,-1.1066,-1.1749,-1.1276,-1.0507,-1.0506,-0.9713,-0.8633,-0.7788,-0.7043,-0.6334,-0.5908,-0.5288,0.0,-0.4205,-0.3671,-0.2953,-0.1693,-0.0757,0.0058,0.0789,0.1393,0.1774,0.1778,0.1781,0.1874,0.2054,0.1857,0.1685,0.1683,0.1593,0.1351,0.0783,0.0725,0.0557,0.0056,-0.0393,-0.0784,-0.1062,-0.0728,-0.0448,-0.0392,-0.0056,0.0224,0.0336,0.0449,0.0449,0.0448,0.0336,0.028,0.0168,0.0054,0.0161,0.0482,0.0536,0.0801,0.1169,0.1115,0.0734,0.0154,0.0663,0.0827,0.0902,0.1486,0.1676,0.1775,-2.1794,-2.1821,-2.1837,-2.1972,-2.2386,-2.2734,-2.2859,-2.288,-2.3222,-2.4241,-2.4444,-2.4632,-2.5052,-2.4207,-2.3478,-2.3112,-2.2706,-2.2093,-2.123,-2.1702,-2.1962,-2.183,-2.2061,-2.2006,-2.162,-2.1696,-2.1537,-2.1164,-2.0563,-2.002,0.0,0.0,0.0,0.0,-1.7562,-1.7579,-1.7706,-1.7659,-1.73,-1.6669,-1.5112,-1.4367,-1.3976,-1.2002,-1.1123,-1.0954,-1.085,-1.0684,-1.0533,-1.0502,-1.0705,-1.1001,-1.0896,-1.0739,-1.0514,-1.0128,-0.9323,-0.8468,-0.8002,-0.7196,-0.6434,-0.6069,-0.5512,0.0,0.0,-0.3791,-0.3108,-0.2008,-0.0997,-0.0116,0.0564,0.1176,0.1623,0.1624,0.1712,0.1857,0.1909,0.1962,0.1986,0.1917,0.2002,0.1925,0.1567,0.1512,0.1176,0.0617,0.0336,0.0056,-0.0168,0.0,0.0168,0.0224,0.0449,0.0617,0.0673,0.0617,0.0617,0.0673,0.0505,0.05,0.0765,0.0697,0.0894,0.124,0.1292,0.1432,0.161,0.1845,0.1699,0.1285,0.1407,0.1483,0.1561,0.2106,0.2304,0.2404,-2.1055,-2.1397,-2.1729,-2.178,-2.2368,-2.3014,-2.3553,-2.3257,-2.3382,-2.4353,-2.4482,-2.4482,-2.4549,-2.3857,-2.3179,-2.2639,-2.2248,-2.1848,-2.1306,-2.1736,-2.1963,-2.1768,-2.2051,-2.1841,-2.1126,-2.1324,-2.123,-2.0796,-2.022,0.0,0.0,0.0,0.0,0.0,0.0,0.0,0.0,-1.7774,-1.7254,-1.6233,-1.4095,-1.3106,-1.2767,-1.1013,-1.0312,-1.0283,-1.0312,-1.0127,-0.9841,-0.9789,-1.0406,-1.1071,-1.032,-1.0431,-1.0668,-0.9947,-0.9037,-0.8321,-0.8268,-0.7494,-0.6591,-0.6324,-0.5791,-0.522,0.0,0.0,0.0,-0.2253,-0.1173,-0.0291,0.0338,0.0896,0.1345,0.1354,0.1582,0.1658,0.1477,0.1589,0.1758,0.1758,0.2,0.2133,0.209,0.2035,0.1749,0.1179,0.1129,0.1017,0.0729,0.0673,0.0673,0.0673,0.0617,0.0617,0.0617,0.0561,0.0615,0.0778,0.0777,0.0981,0.1422,0.1462,0.1694,0.206,0.2045,0.2068,0.2138,0.2585,0.2723,0.2597,0.2311,0.2194,0.2267,0.269,0.29,0.3061,-2.0828,-2.1363,-2.1608,-2.1342,-2.243,-2.3257,-2.3031,-2.3626,-2.4133,-2.4131,-2.4261,-2.4317,-2.4343,-2.3266,-2.2446,-2.2186,-2.0914,-2.0225,-2.0489,-2.1104,-2.138,-2.138,-2.0922,-2.0358,-1.9723,-1.9152,-1.8999,-1.9318,-1.9101,0.0,0.0,0.0,0.0,0.0,-1.5188,0.0,0.0,-1.4815,-1.3965,-1.2958,-1.2627,-1.2605,-1.2571,-1.0944,-1.0235,-1.0127,-1.0059,-1.0019,-1.0054,-1.0566,-1.0811,-1.1077,-1.1983,-1.1272,-1.024,-1.076,-0.9528,-0.8002,-0.8321,-0.7526,-0.6553,-0.6407,-0.5817,-0.5221,-0.4741,0.0,-0.3671,-0.2956,0.0,-0.105,-0.0621,0.0,0.0,0.0525,0.0703,0.083,0.0795,0.1036,0.1212,0.1212,0.1678,0.1925,0.1691,0.1929,0.185,0.1293,0.1211,0.1042,0.073,0.0505,0.0505,0.0673,0.0393,0.0336,0.0449,0.0842,0.105,0.1072,0.1713,0.1994,0.1921,0.2053,0.2397,0.2961,0.2957,0.332,0.3871,0.3708,0.3771,0.3833,0.336,0.2962,0.2756,0.2921,0.3253,0.3704,-2.0782,-2.1019,-2.1301,-2.187,-2.2435,-2.2923,-2.3173,-2.3473,-2.3696,-2.3681,-2.3638,-2.361,-2.361,-2.2757,-2.1943,-2.123,-2.0596,-2.0287,-2.0443,-2.1008,-2.1542,-2.2033,-2.131,-2.0693,-2.0136,-1.9252,-1.8923,-1.9279,-1.8329,0.0,0.0,0.0,0.0,0.0,-1.4362,-1.418,-1.4233,-1.4158,-1.3505,-1.2573,-1.2665,-1.2218,-1.1402,-1.0525,-1.0088,-0.9932,-0.9872,-0.9793,-0.972,-0.97,-1.041,-1.1151,-1.0208,-1.0316,-1.0693,-1.0113,-0.9166,-0.8406,-0.8728,-0.7557,-0.6284,-0.6544,-0.5777,-0.5004,-0.507,-0.4454,-0.3817,-0.3459,0.0,0.0,0.0,0.0,0.0,0.0,0.0538,0.0612,0.0442,0.0748,0.0986,0.1108,0.1625,0.1891,0.1764,0.1882,0.1741,0.1125,0.1158,0.1046,0.0731,0.0505,0.0505,0.0673,0.0729,0.0785,0.0898,0.1319,0.1565,0.1649,0.1873,0.212,0.2428,0.2485,0.2871,0.3495,0.3485,0.372,0.4066,0.4039,0.4131,0.4315,0.4177,0.3906,0.3677,0.3757,0.4066,0.4502,-2.0513,0.0,-2.1162,-2.1884,-2.2344,-2.2715,-2.3216,-2.3172,-2.3127,-2.3113,-2.3038,-2.2949,-2.2904,-2.2076,-2.1155,-2.0387,-1.981,-1.967,-2.006,-2.0448,-2.099,-2.1797,-2.1268,-2.0653,-1.9871,-1.9067,-1.8747,-1.8926,-1.7543,0.0,0.0,0.0,0.0,0.0,0.0,-1.3595,-1.3502,-1.3407,-1.288,-1.2175,-1.2128,-1.1444,-1.0418,-1.0084,-0.9862,-0.9744,-0.9713,-0.9563,-0.9359,-0.9266,-1.0089,-1.0797,-0.9191,-0.9662,-1.0572,-0.9459,-0.8747,-0.8353,-0.8725,-0.7616,-0.64,-0.6729,-0.5968,-0.5173,-0.5391,-0.4814,-0.4132,-0.3856,-0.2922,0.0,0.0,0.0,-0.0468,-0.006,0.0,0.0313,0.0065,0.0321,0.0569,0.0758,0.1317,0.1725,0.1852,0.1921,0.1781,0.114,0.1231,0.1172,0.1011,0.0673,0.0617,0.0952,0.1065,0.1174,0.1217,0.1776,0.2102,0.2216,0.2257,0.2521,0.2938,0.297,0.3337,0.3853,0.395,0.4093,0.4329,0.4462,0.4652,0.4802,0.4893,0.4931,0.4835,0.4609,0.4796,0.5267,-1.9891,-2.0737,0.0,0.0,-2.2091,-2.3054,-2.2934,-2.2768,-2.2555,-2.2463,-2.2555,-2.2555,-2.2417,-2.0899,-1.9885,-1.9913,-1.8084,-1.7484,-1.8871,-1.9035,-1.9278,-1.976,-2.0072,-1.9496,-1.7919,-1.7791,-1.776,-1.7772,-1.6603,0.0,0.0,0.0,0.0,0.0,-1.3786,-1.3071,-1.2777,-1.1883,-1.1211,-1.0713,-1.0264,-1.0085,-1.0074,-0.9668,-0.9603,-0.9723,-0.9683,-0.9395,-0.9137,-1.0073,-1.0124,-0.9899,-1.0276,-0.9876,-0.9225,-0.9114,-0.8366,-0.7628,-0.8121,-0.7681,-0.7072,-0.7188,-0.6644,-0.5977,-0.5727,-0.5385,-0.4797,-0.3985,-0.3346,-0.2675,-0.1744,-0.129,-0.0918,0.0,-0.0494,0.0,0.0,-0.0471,-0.0336,0.0,0.072,0.1335,0.1665,0.2085,0.2134,0.171,0.1571,0.1557,0.174,0.1064,0.0952,0.1567,0.1289,0.1104,0.1121,0.2124,0.2662,0.2664,0.3286,0.3546,0.3592,0.3727,0.387,0.4005,0.4336,0.469,0.5075,0.5262,0.5448,0.5576,0.5585,0.5862,0.613,0.5367,0.5435,0.5973,-1.9812,0.0,0.0,0.0,-2.1091,-2.1601,-2.196,-2.1983,-2.1702,-2.1041,-2.0986,-2.0729,-2.0046,-1.9415,-1.8792,-1.81,-1.7403,-1.7428,-1.8464,-1.841,-1.8759,-1.9743,-1.9712,-1.9219,-1.8214,-1.748,-1.7297,-1.7656,-1.6652,0.0,0.0,0.0,0.0,0.0,0.0,-1.2385,-1.1322,-1.1294,-1.0739,-0.9886,-1.0303,-1.0359,-1.0094,-0.9624,-0.9392,-0.9316,-0.8897,-0.8643,-0.8519,-0.8699,-0.9048,-0.938,-0.8795,-0.8985,-0.9322,-0.8893,-0.8373,-0.7979,-0.8263,-0.7178,-0.6147,-0.6832,-0.6027,-0.5177,-0.5634,-0.5332,-0.4806,-0.4182,-0.3691,-0.3056,-0.2073,-0.1767,0.0,0.0,0.0,-0.0773,0.0,-0.0673,-0.0673,-0.074,0.0131,0.0899,0.1209,0.145,0.1479,0.1181,0.1604,0.1876,0.1794,0.1845,0.19,0.2015,0.2181,0.2225,0.2143,0.294,0.329,0.3306,0.3516,0.3584,0.3585,0.3727,0.4011,0.4355,0.4546,0.4882,0.5285,0.5348,0.5591,0.595,0.595,0.624,0.6657,0.6077,0.6233,0.675,-1.9686,-1.9807,-2.0106,-2.0588,-2.0751,-2.0975,-2.1245,-2.1313,-2.0938,-1.9895,-1.9877,-1.9606,-1.8693,-1.8277,-1.7781,-1.7157,-1.6675,-1.6803,-1.7832,-1.7684,-1.8037,-1.9116,-1.9037,-1.8573,-1.7772,-1.7331,-1.7156,-1.7219,-1.6633,-1.6184,0.0,0.0,0.0,0.0,0.0,-1.234,-1.083,-1.0981,-1.0308,-0.9208,-0.997,-1.0236,-1.0041,-0.9455,-0.9388,-0.9453,-0.8664,-0.8272,-0.8099,-0.7992,-0.8261,-0.855,-0.7909,-0.8184,-0.8683,-0.8257,-0.7973,-0.7824,-0.7984,-0.6855,-0.5766,-0.6519,-0.5617,-0.4706,-0.5427,-0.5254,-0.4777,-0.4381,-0.4026,-0.3516,-0.2516,-0.2244,-0.2021,0.0,0.0,0.0,0.0,-0.1008,-0.1008,-0.1076,-0.0199,0.0522,0.071,0.1088,0.1248,0.1065,0.1606,0.2053,0.2186,0.2404,0.2516,0.2517,0.2796,0.2872,0.2692,0.3297,0.3578,0.3624,0.376,0.384,0.3847,0.4138,0.4447,0.4781,0.5039,0.5332,0.5673,0.5731,0.5984,0.6259,0.6259,0.6464,0.6784,0.6602,0.6758,0.7085,-1.9536,-1.9193,-1.9353,-2.0469,-2.0996,-2.1126,-2.0795,-2.0759,-2.0325,-1.9068,-1.9139,-1.9079,-1.8397,-1.7405,-1.6867,-1.6992,-1.583,-1.5684,-1.695,-1.6824,-1.7027,-1.7894,-1.8044,-1.7622,-1.6537,-1.7171,-1.7195,-1.6573,-1.6553,0.0,0.0,0.0,0.0,0.0,-1.4153,-1.2859,-1.1176,-1.0931,-0.9998,-0.8699,-0.9307,-0.9717,-0.9821,-0.9218,-0.9431,-0.9995,-0.8911,-0.8242,-0.7903,-0.8004,-0.7811,-0.753,-0.7641,-0.7622,-0.7467,-0.7311,-0.7317,-0.7317,-0.7317,-0.6639,-0.6029,-0.6196,-0.5398,-0.4684,-0.5132,-0.5011,-0.4736,-0.4519,-0.4301,-0.3913,-0.3072,-0.2756,-0.2434,0.0,0.0,0.0,-0.1339,-0.1344,-0.1276,-0.1141,-0.0335,0.0199,0.0194,0.0858,0.1296,0.1369,0.1575,0.2034,0.2858,0.2691,0.2749,0.313,0.313,0.3032,0.2727,0.3327,0.3595,0.3602,0.4064,0.4276,0.4324,0.4915,0.5181,0.5264,0.5744,0.603,0.6145,0.6451,0.6557,0.6544,0.6544,0.6597,0.6761,0.6886,0.7002,0.7139,-1.9699,-1.9559,-1.9633,-2.0254,-1.9737,-1.9371,-1.9709,-1.9862,-1.9409,-1.7922,-1.7885,-1.7483,-1.6123,-1.5727,-1.5566,-1.5611,-1.5313,-1.5522,-1.6456,-1.6327,-1.6362,-1.6561,-1.7025,-1.6653,-1.5352,-1.6238,-1.6432,-1.592,-1.6306,-1.6271,-1.5741,0.0,0.0,0.0,0.0,-1.2932,-1.1195,-1.1328,-1.049,-0.9114,-0.921,-0.9439,-0.975,-0.875,-0.8725,-0.9077,-0.7924,-0.7412,-0.7314,-0.7468,-0.7434,-0.7388,-0.7488,-0.7467,-0.7365,-0.7311,-0.7257,-0.7144,-0.7144,-0.6312,-0.5467,-0.5826,-0.501,-0.4175,-0.4498,-0.4563,-0.4492,-0.4165,-0.4021,-0.3685,-0.3016,-0.2871,-0.2655,-0.2138,-0.2061,-0.2002,-0.1747,-0.1748,-0.1802,-0.1829,-0.1042,-0.0458,-0.0199,0.0387,0.0876,0.1342,0.156,0.2046,0.3026,0.3201,0.3437,0.3633,0.3744,0.3657,0.3379,0.3519,0.3593,0.362,0.3729,0.3972,0.4324,0.4554,0.5015,0.559,0.6126,0.6514,0.6805,0.7176,0.7159,0.6925,0.6925,0.7046,0.7152,0.7292,0.7506,0.7717,-1.9781,-1.945,-1.9189,-1.9275,-1.8472,-1.8073,-1.8694,-1.9052,-1.8718,-1.7211,-1.6872,-1.6471,-1.5544,-1.5062,-1.4834,-1.5006,-1.5006,-1.5269,-1.5915,-1.5506,-1.5378,-1.557,-1.5504,-1.5066,-1.4243,-1.5006,-1.5412,-1.5382,-1.5743,-1.5781,-1.5621,0.0,0.0,0.0,0.0,-1.294,-1.1248,-1.0472,-0.9686,-0.9026,-0.8613,-0.8616,0.0,-0.8226,-0.8096,-0.81,-0.7344,-0.7143,-0.7205,-0.7183,-0.7269,-0.7338,-0.7374,-0.7365,-0.7317,-0.7257,-0.7144,-0.7004,-0.6685,-0.5886,-0.5108,-0.4985,-0.4201,-0.3588,-0.4023,-0.4039,-0.3942,-0.3981,-0.391,-0.3574,-0.291,-0.3033,-0.3038,-0.2601,-0.2569,-0.2421,-0.2087,-0.2151,-0.2206,-0.2041,-0.1493,-0.0977,-0.067,0.0,0.0679,0.1417,0.1515,0.1951,0.2919,0.3425,0.3639,0.3635,0.3855,0.3886,0.3615,0.3583,0.3701,0.3962,0.4164,0.4523,0.5058,0.5455,0.5898,0.6322,0.6783,0.7068,0.7273,0.7525,0.7382,0.7089,0.7117,0.7288,0.7536,0.7641,0.7777,0.7925,-1.9622,-1.901,-1.8422,-1.8164,-1.7438,-1.7085,-1.7513,-1.8014,-1.7862,-1.6546,-1.5919,-1.5581,-1.5556,-1.4719,-1.4316,-1.4628,-1.4663,-1.4807,-1.5156,-1.4497,-1.4253,-1.4639,-1.393,-1.3426,-1.3236,-1.3768,-1.4277,-1.4736,-1.4879,-1.5216,0.0,0.0,0.0,0.0,0.0,0.0,-1.1236,-0.9262,-0.8558,-0.8721,-0.7875,-0.7717,-0.7954,-0.7695,-0.7439,-0.7257,-0.7144,-0.7144,-0.7278,-0.7119,-0.7186,-0.7257,-0.7257,-0.7257,-0.7257,-0.7139,-0.7004,-0.6828,-0.6147,-0.5426,-0.469,-0.4062,-0.3413,-0.3067,-0.3658,-0.3468,-0.3337,-0.3802,-0.3799,-0.3519,-0.2856,-0.3116,-0.3294,-0.2885,-0.285,-0.2659,-0.2063,-0.2261,-0.2326,-0.1862,-0.1557,0.0,-0.1199,-0.0319,0.0556,0.1363,0.1363,0.1768,0.2763,0.3355,0.36,0.3418,0.3802,0.3911,0.364,0.3729,0.3996,0.4467,0.4958,0.5475,0.6044,0.6679,0.7,0.7141,0.7468,0.7615,0.7695,0.7695,0.748,0.7152,0.715,0.7413,0.7847,0.7911,0.7996,0.8084,-1.8973,-1.8594,-1.8166,-1.8181,-1.7148,-1.6138,-1.5593,-1.5771,-1.5723,-1.5131,-1.4537,-1.4061,-1.3717,-1.3306,-1.3198,-1.3494,-1.3399,-1.343,-1.3608,-1.345,-1.3344,-1.3319,-1.319,-1.2871,-1.2353,-1.3152,-1.3568,-1.3403,-1.3988,-1.4459,0.0,0.0,0.0,0.0,0.0,0.0,-1.1145,-0.9967,-0.9194,-0.8721,-0.7875,-0.7717,-0.7931,-0.7285,-0.7074,-0.7144,-0.6982,-0.7036,-0.7133,-0.709,-0.7106,-0.7139,-0.7139,-0.7139,-0.7139,-0.7085,-0.6675,-0.6147,-0.6056,-0.5076,-0.4062,-0.3943,-0.3413,-0.293,-0.3123,-0.3171,-0.3235,-0.3476,-0.3355,-0.313,-0.2907,-0.2715,-0.2439,-0.1924,-0.1909,-0.169,-0.0815,-0.1003,-0.1253,-0.1377,-0.1097,-0.1041,-0.1421,-0.0756,0.0062,0.0957,0.1086,0.1621,0.2648,0.3131,0.3451,0.3535,0.3971,0.4012,0.3765,0.4453,0.4754,0.465,0.5302,0.5739,0.5996,0.6128,0.6536,0.7141,0.7508,0.7856,0.8078,0.8191,0.8012,0.7607,0.7468,0.7609,0.7885,0.8063,0.848,0.889,-1.82,-1.7676,-1.7168,-1.6866,-1.5886,-1.4942,-1.445,-1.3891,-1.3751,-1.4273,-1.3761,-1.3379,-1.3461,-1.2842,-1.256,-1.2967,-1.2909,-1.2909,-1.2967,-1.2735,-1.2598,-1.255,-1.2246,-1.2008,-1.1669,-1.215,-1.2593,-1.2995,-1.3064,-1.3464,0.0,0.0,0.0,-1.3086,0.0,-1.1608,-1.0668,-0.9362,-0.8591,-0.8172,-0.7404,-0.7202,-0.7417,-0.703,-0.6982,-0.7085,-0.7036,-0.6869,-0.6647,-0.6923,-0.6815,-0.6701,-0.7025,-0.7085,-0.7004,-0.6665,-0.6285,-0.5845,-0.5089,-0.443,-0.3822,-0.3471,-0.3134,-0.293,-0.3071,-0.3124,-0.3138,-0.3366,-0.3357,-0.3431,-0.3545,-0.2909,-0.2484,-0.2639,-0.262,-0.2217,-0.1233,-0.1357,-0.1357,-0.0985,-0.09,-0.0966,-0.1152,-0.0816,-0.0187,0.0643,0.0838,0.1444,0.2477,0.2845,0.323,0.3583,0.3913,0.4242,0.4567,0.4919,0.537,0.5937,0.6107,0.6384,0.6768,0.6768,0.7058,0.7543,0.7927,0.8217,0.8474,0.8316,0.8163,0.8049,0.771,0.7728,0.793,0.837,0.8732,0.8995,-1.7017,-1.666,-1.6079,-1.5314,-1.4478,-1.384,-1.3516,-1.2456,-1.2177,-1.3381,-1.2976,-1.267,-1.3049,-1.2254,-1.1873,-1.2374,-1.2374,-1.2374,-1.2423,-1.2107,-1.1877,-1.1927,-1.1528,-1.1326,-1.1326,-1.1326,-1.1705,-1.2615,-1.2363,-1.2626,-1.3528,-1.3191,-1.2818,-1.2493,-1.1285,-1.0499,-0.9932,-0.8516,-0.7807,-0.7522,-0.6942,-0.6761,-0.6879,-0.6771,-0.6766,-0.6869,-0.6756,-0.6317,-0.5937,-0.6381,-0.6376,-0.6253,-0.6753,-0.6876,-0.6763,-0.6162,-0.5808,-0.5338,-0.4197,-0.3795,-0.3575,-0.3033,-0.2932,-0.296,-0.3169,-0.3121,-0.3082,-0.3172,-0.314,-0.3204,-0.3513,-0.2736,-0.2305,-0.2968,-0.2807,-0.2337,-0.1691,-0.1632,-0.1393,-0.067,-0.0836,-0.0962,-0.0825,-0.0692,-0.0314,0.0382,0.0711,0.1269,0.2266,0.269,0.314,0.3674,0.3949,0.4507,0.5333,0.5344,0.5979,0.7121,0.6913,0.7042,0.7468,0.7402,0.7575,0.7936,0.811,0.8343,0.8546,0.815,0.8126,0.8208,0.7987,0.7972,0.8209,0.8778,0.9033,0.9197,-1.5305,-1.5582,-1.5525,-1.4361,-1.3755,-1.321,-1.2561,-1.1713,-1.1377,-1.1954,-1.1471,-1.1124,-1.1167,-1.0836,-1.0769,-1.1065,-1.0964,-1.1015,-1.1217,-1.1226,-1.1226,-1.1377,-1.1326,-1.1326,-1.1326,-1.1326,-1.1422,-1.1733,-1.2062,-1.2321,-1.2613,-1.2893,-1.2559,-1.1763,-1.071,-0.9741,-0.8789,-0.8027,-0.7489,-0.7117,-0.682,-0.6761,-0.6825,-0.6273,-0.6109,-0.6055,-0.5609,-0.5117,-0.4736,-0.5281,-0.5773,-0.6176,-0.6139,-0.6159,-0.6274,-0.6058,-0.52,-0.4239,-0.3978,-0.3516,-0.3067,-0.2943,-0.2949,-0.3016,-0.3191,-0.3168,-0.3054,-0.2651,-0.2032,-0.153,-0.1587,-0.128,-0.1089,-0.1128,-0.0702,-0.0437,-0.0733,-0.0566,-0.04,-0.047,-0.0883,-0.1012,-0.0493,-0.0443,-0.0255,0.0186,0.0781,0.1372,0.2093,0.2841,0.3492,0.3923,0.4201,0.4772,0.5567,0.6069,0.6569,0.7121,0.7462,0.7523,0.7385,0.7151,0.7419,0.8051,0.7754,0.7676,0.7798,0.7765,0.7732,0.7841,0.83,0.8663,0.8928,0.9347,0.9925,1.0446,-1.4122,-1.4117,-1.3885,-1.3011,-1.2645,-1.229,-1.1756,-1.1268,-1.1023,-1.1116,-1.1074,-1.1023,-1.1023,-1.0871,-1.0769,-1.0769,-1.082,-1.082,-1.0871,-1.0922,-1.1023,-1.1074,-1.1074,-1.1023,-1.0922,-1.1023,-1.1156,-1.137,-1.1826,-1.219,-1.2497,-1.2154,-1.1376,-1.0238,-0.9479,-0.882,-0.8217,-0.7516,-0.7122,-0.6982,-0.6761,-0.6761,-0.6825,-0.6223,-0.6055,-0.6046,-0.55,-0.4952,-0.4501,-0.4674,-0.4923,-0.5214,-0.552,-0.5599,-0.5567,-0.5117,-0.4583,-0.3975,-0.3503,-0.3132,-0.2947,-0.2971,-0.2957,-0.2897,-0.2783,-0.2719,-0.2556,-0.2145,-0.1782,-0.1514,-0.1712,-0.1386,-0.1152,-0.1114,-0.0866,-0.0552,-0.0224,-0.0056,0.0056,0.0057,-0.0171,-0.0347,-0.0359,-0.0309,-0.0125,0.0185,0.0652,0.1182,0.1855,0.2616,0.3283,0.3865,0.424,0.5095,0.6392,0.6409,0.6908,0.7872,0.7739,0.7661,0.7583,0.7198,0.7355,0.7977,0.8037,0.8121,0.8221,0.7946,0.8099,0.852,0.8758,0.9034,0.9451,1.0072,1.0395,1.0557,-1.2851,-1.2751,-1.2508,-1.1764,-1.1606,-1.1442,-1.1133,-1.0922,-1.0777,-1.0667,-1.082,-1.0871,-1.0769,-1.0667,-1.0616,-1.0573,-1.0675,-1.0718,-1.0718,-1.0769,-1.0871,-1.0922,-1.0922,-1.0871,-1.0769,-1.0871,-1.0951,-1.1048,-1.1513,-1.1816,-1.1889,-1.1216,-1.0268,-0.9125,-0.8589,-0.8131,-0.7716,-0.716,-0.6982,-0.6928,-0.6815,-0.6707,-0.6549,-0.5946,-0.5668,-0.555,-0.4948,-0.4515,-0.4226,-0.4069,-0.4104,-0.4346,-0.4841,-0.5019,-0.4973,-0.4435,-0.4107,-0.3792,-0.3226,-0.3063,-0.3036,-0.3037,-0.2939,-0.2733,-0.2539,-0.2299,-0.1965,-0.1624,-0.1327,-0.1171,-0.1364,-0.1158,-0.0932,-0.0992,-0.0809,-0.0499,-0.0112,0.0112,0.0168,0.0168,0.0057,-0.0057,-0.0116,-0.0121,0.0061,0.0488,0.0767,0.1221,0.1948,0.2532,0.3215,0.4065,0.4352,0.5193,0.6563,0.6413,0.6902,0.809,0.7796,0.7672,0.7706,0.743,0.7468,0.7816,0.8147,0.8324,0.8384,0.798,0.8268,0.8949,0.9138,0.9503,1.0028,1.0854,1.1006,1.0956,-1.1337,-1.1658,-1.1721,-1.0701,-1.0793,-1.0905,-1.0569,-1.0522,-1.0522,-1.0522,-1.0522,-1.0368,-1.0051,-0.9999,-1.0102,-1.0265,-1.0324,-1.0419,-1.0667,-1.0718,-1.0769,-1.0871,-1.0922,-1.0922,-1.0922,-1.0922,-1.0828,-1.0726,-1.104,-1.0941,-1.0399,-0.9854,-0.9321,-0.8664,-0.8229,-0.7699,-0.7085,-0.7085,-0.7085,-0.7085,-0.6928,-0.6549,-0.5946,-0.5344,-0.4736,-0.4177,-0.3633,-0.3527,-0.3583,-0.3469,-0.3524,-0.3671,-0.4181,-0.4395,-0.4488,-0.4333,-0.3869,-0.3371,-0.3248,-0.3303,-0.3365,-0.3246,-0.2866,-0.2515,-0.252,-0.2057,-0.1477,-0.1,-0.0416,0.0,-0.0045,0.0,-0.0048,-0.0201,0.0104,0.0108,-0.0614,-0.0168,0.0056,-0.0336,-0.0576,-0.0406,0.0338,0.0179,0.0305,0.1123,0.1215,0.1644,0.2646,0.2803,0.3439,0.4646,0.4629,0.497,0.5829,0.6091,0.6588,0.7337,0.7449,0.7576,0.7719,0.7957,0.7888,0.7547,0.7944,0.8043,0.7904,0.7759,0.8114,0.8876,0.9555,1.0182,1.0854,1.1619,1.1977,1.2076,-1.0219,-1.0227,-1.0174,-0.9591,-0.9582,-0.9619,-0.9621,-0.9406,-0.9204,-0.9204,-0.8935,-0.8876,-0.9302,-0.9984,-1.0411,-1.0316,-1.047,-1.0522,-1.0419,-1.0522,-1.0573,-1.0624,-1.0624,-1.0573,-1.047,-1.019,-0.9932,-0.9829,-0.9936,-0.9762,-0.9218,-0.9082,-0.8478,-0.7629,-0.7471,-0.7264,-0.7085,-0.6982,-0.6982,-0.6928,-0.6376,-0.5937,-0.5546,-0.4567,-0.4015,-0.3738,-0.3132,-0.297,-0.297,-0.2914,-0.3079,-0.3292,-0.3419,-0.3655,-0.3852,-0.3808,-0.3627,-0.3392,-0.3458,-0.3416,-0.3289,-0.2963,-0.2664,-0.2332,-0.1561,-0.0949,-0.0473,-0.0322,-0.0136,-0.0045,-0.014,-0.0193,-0.0151,0.0156,0.0162,0.0222,0.0504,0.0561,0.0393,-0.0056,-0.017,-0.0113,0.0112,0.0233,0.0536,0.0943,0.1176,0.1632,0.2367,0.2963,0.3565,0.4291,0.4636,0.5088,0.5661,0.6036,0.6455,0.7039,0.7364,0.7424,0.7227,0.7736,0.7809,0.7598,0.7944,0.8093,0.8043,0.7803,0.8114,0.8876,0.9755,1.0372,1.0931,1.1959,1.2224,1.2076,-0.9555,-0.9287,-0.9026,-0.8712,-0.8659,-0.8712,-0.8876,-0.8679,-0.8527,-0.8527,-0.8256,-0.8249,-0.8725,-0.9465,-1.0043,-1.0265,-1.047,-1.0411,-1.0051,-1.0102,-1.0095,-0.988,-0.9888,-0.9829,-0.9732,-0.9458,-0.9249,-0.9099,-0.8904,-0.8671,-0.8343,-0.8178,-0.7767,-0.7085,-0.7085,-0.7085,-0.7085,-0.7036,-0.682,-0.6598,-0.605,-0.5441,-0.4827,-0.407,-0.3574,-0.3186,-0.2856,-0.2691,-0.2691,-0.2635,-0.2745,-0.2965,-0.3019,-0.3188,-0.3357,-0.3635,-0.3635,-0.352,-0.3358,-0.3252,-0.3054,-0.2529,-0.2111,-0.1701,-0.0833,-0.0353,-0.0097,-0.0142,-0.0141,-0.019,-0.0243,-0.0301,-0.0207,0.0265,0.0219,0.0336,0.0785,0.0785,0.0505,0.0,0.0,0.0056,0.0056,0.04,0.0694,0.1041,0.1262,0.1824,0.2732,0.3152,0.3687,0.4441,0.478,0.5005,0.5284,0.589,0.6357,0.6644,0.7223,0.7328,0.6999,0.7535,0.7762,0.7721,0.8094,0.8309,0.8364,0.8165,0.852,0.919,1.0005,1.0618,1.1191,1.2166,1.2372,1.2224,-0.9124,-0.86,-0.8178,-0.8019,-0.8019,-0.8078,-0.8262,-0.8315,-0.8315,-0.8315,-0.8262,-0.8315,-0.8368,-0.8474,-0.8995,-1.011,-1.0213,-0.9999,-0.9562,-0.9562,-0.9295,-0.883,-0.8778,-0.8778,-0.8778,-0.8771,-0.8672,-0.8521,-0.7937,-0.767,-0.767,-0.7295,-0.7085,-0.7085,-0.7085,-0.7085,-0.7025,-0.7025,-0.6701,-0.61,-0.5823,-0.4999,-0.3953,-0.3738,-0.3244,-0.2635,-0.2635,-0.2635,-0.2635,-0.2521,-0.2577,-0.2691,-0.2852,-0.2905,-0.3016,-0.3519,-0.3685,-0.3574,-0.2961,-0.285,-0.2683,-0.1956,-0.1312,-0.0741,-0.0306,-0.0202,-0.0202,-0.0353,-0.0353,-0.0353,-0.0354,-0.026,-0.0107,0.016,0.033,0.0393,0.0393,0.0561,0.0449,-0.0112,0.0056,0.0224,0.0224,0.0505,0.0898,0.1239,0.1465,0.2193,0.3527,0.3379,0.3806,0.5081,0.4956,0.4846,0.4688,0.5723,0.6244,0.6318,0.711,0.7321,0.7061,0.7412,0.7708,0.7943,0.8349,0.8633,0.8778,0.8798,0.9106,0.9614,1.0312,1.0939,1.1519,1.2274,1.2529,1.248,-0.7717,-0.7503,-0.7289,-0.7074,-0.702,-0.7128,-0.7348,-0.7306,-0.7252,-0.7252,-0.7192,-0.7295,-0.783,-0.7883,-0.8249,-0.9093,-0.9145,-0.9093,-0.8988,-0.8988,-0.8935,-0.883,-0.8778,-0.8778,-0.8778,-0.8349,-0.7877,-0.7456,-0.7295,-0.7241,-0.7241,-0.7139,-0.7085,-0.7085,-0.7085,-0.6864,-0.6426,-0.6426,-0.6046,-0.5441,-0.4725,-0.4119,-0.3624,-0.285,-0.2352,-0.2021,-0.2021,-0.2021,-0.202,-0.2073,-0.2296,-0.2577,-0.2689,-0.291,-0.2963,-0.2685,-0.2685,-0.2687,-0.2181,-0.2125,-0.2069,-0.1398,-0.0723,-0.022,-0.0212,-0.0053,0.0052,-0.0051,0.005,0.0203,0.0052,0.0106,0.0161,0.0331,0.0223,0.0168,0.0393,0.028,0.0112,-0.0056,0.0112,0.0224,0.0336,0.0729,0.1077,0.1221,0.1458,0.2151,0.336,0.3406,0.3894,0.5077,0.5069,0.5014,0.4846,0.5937,0.6781,0.737,0.7329,0.7367,0.7368,0.7577,0.7849,0.8228,0.8457,0.8649,0.8731,0.8763,0.8857,0.9113,1.0312,1.0771,1.0981,1.2215,1.2578,1.248,-0.7139,-0.6869,-0.6712,-0.6701,-0.6701,-0.6815,-0.7085,-0.7031,-0.6982,-0.6982,-0.6923,-0.7025,-0.7402,-0.7402,-0.7563,-0.7984,-0.8514,-0.8666,-0.8402,-0.8402,-0.8296,-0.8037,-0.8037,-0.8037,-0.8037,-0.7717,-0.7402,-0.7085,-0.7085,-0.7085,-0.7085,-0.7085,-0.7085,-0.7085,-0.681,-0.648,-0.6154,-0.5823,-0.5328,-0.4728,-0.4064,-0.3569,-0.313,-0.2575,-0.2186,-0.1962,-0.1962,-0.1962,-0.1962,-0.2015,-0.2183,-0.2408,-0.2577,-0.2689,-0.2685,-0.1846,-0.2014,-0.2348,-0.151,-0.1342,-0.123,-0.0559,-0.0168,0.0056,0.0,0.0054,0.0108,0.0,0.0106,0.0213,0.0109,0.0218,0.0329,0.0391,0.0336,0.0336,0.0336,0.0168,0.0056,0.0,0.0112,0.028,0.0393,0.0842,0.1131,0.1151,0.1727,0.2527,0.3437,0.3781,0.4316,0.5187,0.5128,0.5069,0.5011,0.6046,0.71,0.8019,0.7867,0.7809,0.7859,0.8023,0.8221,0.8525,0.876,0.8936,0.9017,0.9141,0.9316,0.9629,1.0592,1.104,1.1292,1.2166,1.248,1.2382,-0.6977,-0.6549,-0.6337,-0.6652,-0.6707,-0.6815,-0.7085,-0.7085,-0.7085,-0.7085,-0.7085,-0.7085,-0.7085,-0.7085,-0.7085,-0.7085,-0.7984,-0.8349,-0.7818,-0.7771,-0.7557,-0.7139,-0.7085,-0.7085,-0.7085,-0.7085,-0.7085,-0.7085,-0.7085,-0.7085,-0.7085,-0.7085,-0.7031,-0.6923,-0.6426,-0.61,-0.5937,-0.5273,-0.4615,-0.4073,-0.3646,-0.3147,-0.2691,-0.248,-0.2363,-0.2184,-0.2184,-0.2184,-0.2183,-0.2071,-0.2127,-0.224,-0.2465,-0.2465,-0.2183,-0.1174,-0.1507,-0.1898,-0.0782,-0.0503,-0.0391,0.0224,0.028,0.0224,0.0168,0.0112,0.0112,0.0056,0.0112,0.0112,0.0112,0.0336,0.0449,0.0452,0.0563,0.0562,0.0282,0.0225,0.0168,0.0,0.0112,0.028,0.0449,0.0842,0.1122,0.1178,0.2125,0.2959,0.3569,0.4184,0.4739,0.5297,0.5183,0.5238,0.5399,0.6372,0.7378,0.847,0.847,0.8434,0.8405,0.85,0.867,0.8926,0.9091,0.9286,0.9465,0.9666,1.0028,1.0454,1.1065,1.1519,1.1927,1.2224,1.2323,1.2274,-0.6337,-0.6332,-0.6436,-0.6647,-0.682,-0.6928,-0.7085,-0.7085,-0.7085,-0.7085,-0.7085,-0.7085,-0.7085,-0.7085,-0.7085,-0.7085,-0.7241,-0.7348,-0.7241,-0.7241,-0.7192,-0.7085,-0.7085,-0.7085,-0.7085,-0.6869,-0.6869,-0.7085,-0.6869,-0.6869,-0.7085,-0.7085,-0.681,-0.6317,-0.6263,-0.5723,-0.4904,-0.4512,-0.4073,-0.3646,-0.3,-0.2758,-0.2643,-0.2312,-0.218,-0.2184,-0.2184,-0.2184,-0.2184,-0.2183,-0.2183,-0.224,-0.2465,-0.2127,-0.1621,-0.1062,-0.0671,-0.028,0.0336,0.0336,0.0224,0.0224,0.028,0.0336,0.0056,0.0336,0.0561,0.0393,0.0561,0.0785,0.0785,0.0785,0.0849,0.0815,0.0628,0.0396,0.0291,0.0228,0.0168,0.0,0.0224,0.0505,0.0785,0.101,0.1234,0.1515,0.2238,0.2959,0.3569,0.4184,0.4739,0.5297,0.5297,0.5786,0.6756,0.7492,0.8157,0.8763,0.8763,0.8785,0.8876,0.8686,0.8854,0.929,0.9245,0.9318,0.9614,1.0218,1.0431,1.0506,1.1601,1.1968,1.1927,1.2332,1.2382,1.2274,-0.6178,-0.6228,-0.6386,-0.6652,-0.6761,-0.6928,-0.7085,-0.7085,-0.7085,-0.7085,-0.7085,-0.7085,-0.7085,-0.7085,-0.7085,-0.7085,-0.7085,-0.7085,-0.7085,-0.7085,-0.7085,-0.7085,-0.6972,-0.681,-0.6647,-0.6485,-0.6485,-0.6593,-0.6539,-0.6431,-0.6312,-0.6372,-0.61,-0.5496,-0.5164,-0.478,-0.4291,-0.3741,-0.3413,-0.3203,-0.2789,-0.2655,-0.2701,-0.2441,-0.2422,-0.2465,-0.2408,-0.241,-0.2465,-0.2408,-0.241,-0.241,-0.2184,-0.1902,-0.1454,-0.0671,0.0,0.0505,0.0729,0.0729,0.0673,0.0617,0.0561,0.0561,0.0505,0.0617,0.0673,0.0673,0.0785,0.0898,0.0898,0.0842,0.0789,0.0802,0.0566,0.0395,0.0344,0.034,0.028,0.0224,0.028,0.0449,0.0785,0.0898,0.1234,0.185,0.2683,0.3458,0.407,0.4629,0.5018,0.5297,0.5618,0.6213,0.7085,0.7711,0.839,0.9096,0.9096,0.9205,0.9409,0.9315,0.9336,0.9517,0.9465,0.971,1.0167,1.0379,1.0838,1.1401,1.1859,1.2175,1.2323,1.248,1.248,1.2382,-0.6178,-0.6232,-0.6337,-0.6652,-0.6761,-0.6874,-0.7085,-0.7085,-0.7085,-0.7085,-0.7085,-0.7085,-0.7085,-0.7085,-0.7085,-0.7085,-0.7085,-0.7085,-0.7085,-0.7031,-0.7031,-0.7031,-0.6756,-0.6485,-0.6209,-0.6159,-0.605,-0.5991,-0.605,-0.5828,-0.5324,-0.5496,-0.5226,-0.4622,-0.4174,-0.3953,-0.379,-0.319,-0.293,-0.2899,-0.2644,-0.2628,-0.2675,-0.2587,-0.2613,-0.2691,-0.2577,-0.2635,-0.2635,-0.2408,-0.2352,-0.2352,-0.1736,-0.1399,-0.1007,-0.0224,0.0449,0.0898,0.0898,0.0898,0.0898,0.0842,0.0785,0.0785,0.0842,0.0785,0.0785,0.0898,0.0898,0.0898,0.0898,0.0842,0.0731,0.068,0.062,0.0506,0.0453,0.0451,0.0449,0.0393,0.0336,0.0393,0.0785,0.1002,0.1499,0.2293,0.3269,0.4036,0.4512,0.5073,0.5407,0.5513,0.6105,0.6696,0.7295,0.7877,0.8567,0.9361,0.9361,0.9524,0.9799,0.9747,0.9732,0.9821,0.9821,1.0174,1.0728,1.0795,1.136,1.2166,1.2175,1.2421,1.2725,1.2578,1.2529,1.2529,-0.6178,-0.6282,-0.6436,-0.6647,-0.682,-0.6933,-0.7085,-0.7085,-0.7085,-0.7085,-0.7085,-0.7085,-0.7085,-0.7085,-0.7085,-0.7085,-0.7085,-0.7085,-0.7085,-0.6869,-0.6701,-0.6701,-0.6431,-0.6209,-0.6209,-0.595,-0.5677,-0.5391,-0.5117,-0.4838,-0.4498,-0.467,-0.4453,-0.3907,-0.3956,-0.379,-0.3413,-0.3081,-0.2908,-0.2934,-0.2548,-0.2474,-0.2591,-0.249,-0.2547,-0.2691,-0.2691,-0.2691,-0.2577,-0.1902,-0.1679,-0.1567,-0.0952,-0.0392,0.0056,0.0,0.0449,0.0898,0.0898,0.0898,0.0898,0.0729,0.0785,0.0842,0.0729,0.0785,0.0898,0.0898,0.0898,0.0898,0.0898,0.0898,0.085,0.0701,0.0802,0.0794,0.0526,0.0572,0.0617,0.0449,0.0393,0.0561,0.101,0.1524,0.2108,0.2788,0.3893,0.457,0.4663,0.523,0.5727,0.61,0.6701,0.7295,0.7818,0.8672,0.9159,0.9211,0.9361,0.9524,0.9799,0.9524,0.9829,1.0498,1.0403,1.0651,1.12,1.1801,1.2067,1.2175,1.2774,1.2978,1.2881,1.2725,1.2686,1.2686,-0.6332,-0.6282,-0.6332,-0.649,-0.6603,-0.6717,-0.6928,-0.6982,-0.6982,-0.7085,-0.7085,-0.7085,-0.7085,-0.7085,-0.7085,-0.7085,-0.7085,-0.7031,-0.6869,-0.6761,-0.6544,-0.6168,-0.6005,-0.5673,-0.5171,-0.5069,-0.4736,-0.4233,-0.426,-0.3975,-0.3458,-0.3719,-0.346,-0.2885,-0.2943,-0.2911,-0.2797,-0.2619,-0.2578,-0.2611,-0.2443,-0.2366,-0.2493,-0.2382,-0.2443,-0.2602,-0.2195,-0.2109,-0.2015,-0.1398,-0.1174,-0.1062,-0.0448,-0.0056,0.028,0.0561,0.0785,0.0898,0.0898,0.0898,0.0898,0.0842,0.0842,0.0898,0.0842,0.0842,0.0898,0.0898,0.0898,0.1009,0.1288,0.1008,0.0845,0.1027,0.0905,0.0733,0.0628,0.1017,0.1287,0.1287,0.1175,0.151,0.24,0.2373,0.2806,0.4064,0.4566,0.4938,0.5226,0.5348,0.5837,0.6756,0.6977,0.7348,0.7871,0.858,0.9061,0.9211,0.9263,0.9368,0.9577,0.9636,0.988,1.0379,1.049,1.1006,1.185,1.2067,1.2372,1.2735,1.2929,1.2929,1.2881,1.2832,1.2832,1.2783,-0.6444,-0.642,-0.6396,-0.6519,-0.6587,-0.6709,-0.6984,-0.6975,-0.6982,-0.7085,-0.7085,-0.7085,-0.7085,-0.7085,-0.7085,-0.7085,-0.7085,-0.6977,-0.6707,-0.6322,-0.6055,-0.5795,-0.5517,-0.5128,-0.4519,-0.4294,-0.3925,-0.3344,-0.3475,-0.3259,-0.2598,-0.2833,-0.2738,-0.2271,-0.2382,-0.2405,-0.2405,-0.2405,-0.2418,-0.2381,-0.2303,-0.2358,-0.232,-0.2046,-0.2112,-0.2235,-0.1587,-0.1438,-0.1398,-0.0838,-0.0615,-0.0503,0.0112,0.0336,0.0505,0.0898,0.0954,0.0898,0.0898,0.0898,0.0898,0.0898,0.0898,0.0898,0.0898,0.0898,0.0898,0.0898,0.0898,0.1065,0.1567,0.1176,0.0953,0.1568,0.1344,0.1008,0.1008,0.1399,0.1623,0.1512,0.1677,0.2122,0.2954,0.3092,0.3687,0.4889,0.5124,0.5391,0.5727,0.5513,0.5841,0.6869,0.7031,0.7348,0.7871,0.848,0.891,0.9061,0.9061,0.9159,0.9361,0.948,0.9829,1.0261,1.0584,1.125,1.2166,1.2323,1.2627,1.3036,1.2929,1.2881,1.2881,1.2881,1.2881,1.2881,-0.6584,-0.673,-0.6769,-0.6813,-0.6915,-0.7053,-0.7157,-0.7125,-0.7085,-0.7085,-0.7085,-0.7085,-0.7085,-0.7085,-0.7085,-0.7085,-0.7085,-0.6977,-0.6701,-0.5555,-0.5179,-0.574,-0.4959,-0.4519,-0.4463,-0.3907,-0.3347,-0.2817,-0.2819,-0.2507,-0.2033,-0.2157,-0.222,-0.222,-0.2345,-0.2407,-0.2407,-0.2407,-0.2386,-0.2322,-0.2322,-0.2322,-0.2193,-0.1482,-0.1427,-0.1588,-0.0881,-0.0748,-0.0783,-0.0168,0.0,0.0112,0.0729,0.0898,0.0898,0.0898,0.0898,0.0898,0.0898,0.0898,0.0898,0.0898,0.0898,0.0898,0.0898,0.0898,0.0898,0.0898,0.0898,0.1065,0.1679,0.1288,0.1232,0.2345,0.2124,0.1734,0.1621,0.1734,0.1567,0.1009,0.1677,0.2287,0.2512,0.3776,0.4767,0.5093,0.5597,0.5948,0.5991,0.5727,0.5841,0.6381,0.6869,0.7348,0.7925,0.848,0.8804,0.8804,0.8804,0.8962,0.9211,0.9061,0.951,1.0415,1.0813,1.1434,1.2126,1.2676,1.2881,1.2881,1.2881,1.2881,1.2881,1.2881,1.2881,1.2881,-0.6515,-0.6492,-0.6474,-0.6478,-0.6501,-0.6575,-0.6684,-0.663,-0.6558,-0.666,-0.6579,-0.648,-0.648,-0.6568,-0.6597,-0.6495,-0.6401,-0.5978,-0.5183,-0.4442,-0.4155,-0.433,-0.4011,-0.3666,-0.3292,-0.3122,-0.2763,-0.2247,-0.2296,-0.2183,-0.1974,-0.2124,-0.2207,-0.2165,-0.221,-0.223,-0.223,-0.223,-0.2242,-0.2193,-0.166,-0.1461,-0.1395,-0.0663,-0.0454,-0.05,-0.0061,0.0121,0.0239,0.0702,0.0943,0.1075,0.1111,0.1104,0.1098,0.096,0.0898,0.1009,0.14,0.1512,0.1456,0.1009,0.0898,0.0898,0.0898,0.0898,0.0898,0.0898,0.0898,0.1065,0.1567,0.1232,0.1121,0.19,0.1512,0.1177,0.1233,0.1958,0.2347,0.2179,0.3012,0.384,0.4391,0.4732,0.5217,0.5832,0.5946,0.5995,0.6,0.5841,0.6164,0.7122,0.7283,0.7818,0.8685,0.8752,0.8804,0.8804,0.8804,0.8857,0.891,0.9061,0.9413,0.9865,1.0787,1.1384,1.1783,1.2569,1.2881,1.2881,1.2881,1.2881,1.2881,1.2881,1.2881,1.2881,-0.6555,-0.6529,-0.6507,-0.6457,-0.6467,-0.6542,-0.6598,-0.6557,-0.6546,-0.6599,-0.6487,-0.6346,-0.6054,-0.6103,-0.6009,-0.5604,-0.5346,-0.5009,-0.4407,-0.3738,-0.336,-0.3404,-0.311,-0.293,-0.2868,-0.2632,-0.231,-0.2071,-0.2109,-0.2121,-0.2109,-0.2186,-0.2202,-0.2166,-0.2204,-0.2221,-0.2154,-0.1884,-0.1749,-0.1681,-0.0941,-0.0672,-0.0605,0.0134,0.033,0.0321,0.0757,0.0933,0.0982,0.1268,0.1396,0.1474,0.1327,0.125,0.1175,0.1036,0.0964,0.1009,0.1623,0.179,0.179,0.1623,0.1623,0.1623,0.1623,0.1623,0.1623,0.1623,0.1623,0.179,0.2289,0.1958,0.1893,0.2686,0.23,0.1963,0.2044,0.2605,0.2954,0.2898,0.3701,0.456,0.5109,0.5386,0.5723,0.6173,0.6119,0.6059,0.6059,0.5955,0.6327,0.7224,0.7439,0.7871,0.8626,0.8798,0.8857,0.8804,0.8804,0.8804,0.8811,0.8962,0.9159,0.9413,1.0431,1.1082,1.1416,1.2363,1.2783,1.2881,1.2881,1.2881,1.2881,1.2881,1.2881,1.2881,-0.6677,-0.6737,-0.6735,-0.6711,-0.6733,-0.6746,-0.6746,-0.6766,-0.6699,-0.6639,-0.662,-0.6357,-0.5623,-0.551,-0.5271,-0.4591,-0.418,-0.3985,-0.4041,-0.3239,-0.2759,-0.2839,-0.2295,-0.2298,-0.2853,-0.2291,-0.2072,-0.2135,-0.2135,-0.2165,-0.2221,-0.2221,-0.2221,-0.2221,-0.2154,-0.2087,-0.2085,-0.1344,-0.1008,-0.0941,-0.0202,0.0067,0.0202,0.0941,0.1059,0.1034,0.1612,0.1712,0.1552,0.1552,0.1552,0.1551,0.1547,0.1394,0.1242,0.118,0.1037,0.1065,0.1679,0.1902,0.2012,0.2681,0.2847,0.2847,0.2736,0.2681,0.2681,0.2681,0.2681,0.2847,0.3403,0.307,0.3039,0.4118,0.3779,0.342,0.3459,0.3491,0.3456,0.3187,0.4037,0.4721,0.4937,0.5723,0.6178,0.6178,0.6178,0.6178,0.6178,0.6059,0.6322,0.6961,0.7331,0.7759,0.8237,0.8732,0.8962,0.8804,0.8804,0.8804,0.8804,0.8804,0.8857,0.9008,1.0012,1.0618,1.1015,1.2058,1.2676,1.2881,1.2881,1.2881,1.2881,1.2881,1.2881,1.2881,-0.6465,-0.6453,-0.6502,-0.6478,-0.6449,-0.649,-0.649,-0.64,-0.615,-0.5524,-0.5344,-0.4961,-0.4293,-0.432,-0.4275,-0.4,-0.3481,-0.3053,-0.2831,-0.2442,-0.2282,-0.2297,-0.2219,-0.2246,-0.2378,-0.2197,-0.2138,-0.2202,-0.2202,-0.2207,-0.2221,-0.2221,-0.2221,-0.2154,-0.1614,-0.1344,-0.1277,-0.0538,-0.0269,-0.0202,0.0538,0.0874,0.0941,0.1681,0.1944,0.1861,0.182,0.1889,0.2049,0.2049,0.2049,0.2041,0.18,0.1625,0.1397,0.1246,0.1037,0.1121,0.2235,0.2514,0.2736,0.3849,0.4125,0.3849,0.2903,0.2681,0.2681,0.2681,0.2681,0.2736,0.2847,0.2792,0.2841,0.3152,0.3037,0.2918,0.3007,0.3512,0.3854,0.3799,0.482,0.5567,0.5622,0.5955,0.6178,0.6178,0.6178,0.6178,0.6178,0.6173,0.6598,0.7658,0.7765,0.8243,0.9093,0.9152,0.9061,0.8804,0.8804,0.8804,0.8804,0.8804,0.8745,0.8732,1.0005,1.0568,1.0618,1.2058,1.2676,1.2725,1.2881,1.2881,1.2881,1.2881,1.2881,1.2881,-0.642,-0.642,-0.642,-0.642,-0.642,-0.6284,-0.5818,-0.5745,-0.5363,-0.4514,-0.4324,-0.403,-0.3464,-0.351,-0.3392,-0.3087,-0.2728,-0.247,-0.2314,-0.219,-0.2141,-0.2171,-0.2204,-0.2221,-0.2221,-0.2189,-0.2187,-0.2221,-0.2221,-0.2221,-0.2221,-0.1817,-0.1681,-0.1614,-0.0874,-0.0605,-0.0538,0.0202,0.0538,0.0605,0.1344,0.1614,0.1681,0.2085,0.2221,0.215,0.2051,0.206,0.2154,0.2087,0.2085,0.2013,0.1785,0.1612,0.1507,0.1422,0.143,0.1663,0.2575,0.2995,0.3347,0.4294,0.4519,0.4349,0.3683,0.3569,0.3569,0.3569,0.3569,0.3569,0.3569,0.3569,0.3553,0.3604,0.3539,0.3517,0.362,0.4087,0.4452,0.4613,0.5291,0.585,0.5959,0.6064,0.6119,0.6178,0.6119,0.6119,0.6119,0.6119,0.6593,0.7658,0.7711,0.819,0.9211,0.9159,0.9008,0.8804,0.8804,0.8804,0.8804,0.8804,0.8752,0.8738,0.9658,1.0218,1.0568,1.1651,1.2323,1.2725,1.2832,1.2881,1.2881,1.2881,1.2881,1.2881,-0.642,-0.642,-0.635,-0.6218,-0.6218,-0.5951,-0.5087,-0.4954,-0.4619,-0.368,-0.3613,-0.3416,-0.2889,-0.2824,-0.269,-0.2221,-0.2173,-0.2165,-0.2217,-0.2172,-0.2166,-0.2218,-0.2221,-0.2221,-0.2221,-0.2221,-0.2221,-0.2221,-0.2221,-0.2154,-0.2018,-0.1412,-0.1008,-0.0874,-0.0134,0.0202,0.0269,0.1008,0.1277,0.1344,0.1951,0.2221,0.2221,0.2221,0.2221,0.2221,0.2221,0.2221,0.2221,0.2018,0.1945,0.1939,0.1746,0.1774,0.1791,0.18,0.2037,0.2408,0.3051,0.338,0.3738,0.4349,0.4519,0.4519,0.4519,0.4519,0.4519,0.4519,0.4519,0.4519,0.4519,0.4519,0.4474,0.4403,0.4435,0.4442,0.4415,0.4713,0.5064,0.5274,0.5636,0.5959,0.6123,0.6059,0.6059,0.6123,0.6009,0.595,0.595,0.595,0.6376,0.7331,0.7439,0.7925,0.8903,0.8956,0.8962,0.8857,0.8804,0.8804,0.8804,0.8804,0.8804,0.8804,0.9263,0.9814,1.0466,1.1091,1.176,1.2421,1.2578,1.2725,1.2832,1.2881,1.2881,1.2881,-0.642,-0.642,-0.6218,-0.5613,-0.5547,-0.5279,-0.4553,-0.4284,-0.3885,-0.3155,-0.3088,-0.282,-0.2153,-0.222,-0.2288,-0.2221,-0.2213,-0.2211,-0.222,-0.2213,-0.2213,-0.222,-0.2221,-0.2221,-0.2221,-0.2221,-0.2221,-0.2221,-0.2221,-0.1884,-0.1277,-0.1143,-0.0739,-0.0134,0.0605,0.0941,0.1008,0.1748,0.2018,0.2085,0.2154,0.2221,0.2221,0.2356,0.2357,0.2357,0.2357,0.2357,0.2357,0.2357,0.2318,0.2216,0.2138,0.2332,0.2675,0.2682,0.2895,0.3161,0.3804,0.3775,0.3738,0.4349,0.4519,0.4519,0.4519,0.4519,0.4519,0.4519,0.4519,0.4519,0.4519,0.4519,0.4512,0.4491,0.4484,0.4477,0.4511,0.4907,0.5245,0.5299,0.5823,0.6119,0.6059,0.6,0.595,0.585,0.585,0.585,0.585,0.585,0.6114,0.6696,0.7224,0.7818,0.8474,0.885,0.9008,0.8956,0.8857,0.8804,0.8804,0.8804,0.8804,0.8804,0.9361,0.9614,0.9814,1.0694,1.1099,1.1259,1.1569,1.1977,1.2431,1.2774,1.2881,1.2881,-0.642,-0.6083,-0.5749,-0.5477,-0.508,-0.4483,-0.362,-0.3487,-0.3086,-0.215,-0.2151,-0.2084,-0.1749,-0.2018,-0.2221,-0.2221,-0.2221,-0.2154,-0.2018,-0.2018,-0.2018,-0.2018,-0.2018,-0.2087,-0.2221,-0.2221,-0.2018,-0.1614,-0.1614,-0.121,-0.047,-0.0067,0.0336,0.0672,0.1412,0.1681,0.1748,0.2085,0.2221,0.2221,0.2221,0.2221,0.2221,0.2357,0.2357,0.2288,0.2288,0.2288,0.235,0.2571,0.2664,0.2697,0.2943,0.3199,0.3383,0.3368,0.3578,0.3865,0.4042,0.4119,0.4184,0.4408,0.4519,0.4519,0.4519,0.4519,0.4519,0.4519,0.4519,0.4519,0.4519,0.4519,0.4519,0.4519,0.4519,0.4519,0.4519,0.4952,0.5445,0.5782,0.595,0.6059,0.6,0.5837,0.5786,0.5795,0.5736,0.5681,0.5681,0.5681,0.5891,0.6372,0.6637,0.723,0.8096,0.8309,0.8573,0.9008,0.8857,0.8804,0.8804,0.8857,0.8857,0.8804,0.9113,0.9413,0.9666,1.0131,1.0592,1.1006,1.1259,1.1719,1.2323,1.2431,1.2627,1.2881]},{"header":{"parameterUnit":"m.s-1","parameterCategory":1,"la1":30.6,"la2":28.766,"lo1":-90.7593,"lo2":-88.6598,"dy":0.0162,"dx":0.0183,"nx":116,"ny":114,"refTime":"2024-03-14T18:00:00:Z","depth":0,"parameterNumber":3,"parameterNumberName":"V-component_of_WINDS"},"data":[0.0,0.0,0.0,0.0,0.0,0.0,0.0,0.0,0.0,0.0,0.0,0.0,0.0,0.0,0.0,0.0,0.0,0.0,0.0,0.0,0.0,0.0,0.0,0.0,0.0,0.0,0.0,0.0,0.0,0.0,0.0,0.0,0.0,0.0,0.0,0.0,0.0,0.0,0.0,0.0,0.0,0.0,0.0,0.0,0.0,0.0,0.0,0.0,0.0,0.0,0.0,0.0,0.0,0.0,0.0,0.0,0.0,0.0,0.0,0.0,0.0,0.0,0.0,0.0,0.0,0.0,0.0,0.0,0.0,0.0,0.0,0.0,0.0,0.0,0.0,0.0,0.0,0.0,0.0,0.0,0.0,0.0,0.0,0.0,0.0,0.0,0.0,0.0,0.0,0.0,0.0,0.0,0.0,0.0,0.0,0.0,0.0,0.0,0.0,0.0,0.0,0.0,0.0,0.0,0.0,0.0,0.0,0.0,0.0,0.0,0.0,0.0,0.0,0.0,0.0,0.0,0.0,0.0,0.0,0.0,0.0,0.0,0.0,0.0,0.0,0.0,0.0,0.0,0.0,0.0,0.0,0.0,0.0,0.0,0.0,0.0,0.0,0.0,0.0,0.0,0.0,0.0,0.0,0.0,0.0,0.0,0.0,0.0,0.0,0.0,0.0,0.0,0.0,0.0,0.0,0.0,0.0,0.0,0.0,0.0,0.0,0.0,0.0,0.0,0.0,0.0,0.0,0.0,0.0,0.0,0.0,0.0,0.0,0.0,0.0,0.0,0.0,0.0,0.0,0.0,0.0,0.0,0.0,0.0,0.0,0.0,0.0,0.0,0.0,0.0,0.0,0.0,0.0,0.0,0.0,0.0,0.0,0.0,0.0,0.0,0.0,0.0,0.0,0.0,0.0,0.0,0.0,0.0,0.0,0.0,0.0,0.0,0.0,0.0,0.0,0.0,0.0,0.0,0.0,0.0,0.0,0.0,0.0,0.0,0.0,0.0,0.0,0.0,0.0,0.0,0.0,0.0,0.0,0.0,0.0,0.0,0.0,0.0,0.0,0.0,0.0,0.0,0.0,0.0,0.0,0.0,0.0,0.0,0.0,0.0,0.0,0.0,0.0,0.0,0.0,0.0,0.0,0.0,0.0,0.0,0.0,0.0,0.0,0.0,0.0,0.0,0.0,0.0,0.0,0.0,0.0,0.0,0.0,0.0,0.0,0.0,0.0,0.0,0.0,0.0,0.0,0.0,0.0,0.0,0.0,0.0,0.0,0.0,0.0,0.0,0.0,0.0,0.0,0.0,0.0,0.0,0.0,0.0,0.0,0.0,0.0,0.0,0.0,0.0,0.0,0.0,0.0,0.0,0.0,0.0,0.0,0.0,0.0,0.0,0.0,0.0,0.0,0.0,0.0,0.0,0.0,0.0,0.0,0.0,0.0,0.0,0.0,0.0,0.0,0.0,0.0,0.0,0.0,0.0,0.0,0.0,0.0,0.0,0.0,0.0,0.0,0.0,0.0,0.0,0.0,0.0,0.0,0.0,0.0,0.0,0.0,0.0,0.0,0.0,0.0,0.0,0.0,0.0,0.0,0.0,0.0,0.0,0.0,0.0,0.0,0.0,0.0,0.0,0.0,0.0,0.0,0.0,0.0,0.0,0.0,0.0,0.0,0.0,0.0,0.0,0.0,0.0,0.0,0.0,0.0,0.0,0.0,0.0,0.0,0.0,0.0,0.0,0.0,0.0,0.0,0.0,0.0,0.0,0.0,0.0,0.0,0.0,0.0,0.0,0.0,0.0,0.0,0.0,0.0,0.0,0.0,0.0,0.0,0.0,0.0,0.0,0.0,0.0,0.0,0.0,0.0,0.0,0.0,0.0,0.0,0.0,0.0,0.0,0.0,0.0,0.0,0.0,0.0,0.0,0.0,0.0,0.0,0.0,0.0,0.0,0.0,0.0,0.0,0.0,0.0,0.0,0.0,0.0,0.0,0.0,0.0,0.0,0.0,0.0,0.0,0.0,0.0,0.0,0.0,0.0,0.0,0.0,0.0,0.0,0.0,0.0,0.0,0.0,0.0,0.0,0.0,0.0,0.0,0.0,0.0,0.0,0.0,0.0,0.0,0.0,0.0,0.0,0.0,0.0,0.0,0.0,0.0,0.0,0.0,0.0,0.0,0.0,0.0,0.0,0.0,0.0,0.0,0.0,0.0,0.0,0.0,0.0,0.0,0.0,0.0,0.0,0.0,0.0,0.0,0.0,0.0,0.0,0.0,0.0,0.0,0.0,0.0,0.0,0.0,0.0,0.0,0.0,0.0,0.0,0.0,0.0,0.0,0.0,0.0,0.0,0.0,0.0,0.0,0.0,0.0,0.0,0.0,0.0,0.0,0.0,0.0,0.0,0.0,0.0,0.0,0.0,0.0,0.0,0.0,0.0,0.0,0.0,0.0,0.0,0.0,0.0,0.0,0.0,0.0,0.0,0.0,0.0,0.0,0.0,0.0,0.0,0.0,0.0,0.0,0.0,0.0,0.0,0.0,0.0,0.0,0.0,0.0,0.0,0.0,0.0,0.0,0.0,0.0,0.0,0.0,0.0,0.0,0.0,0.0,0.0,0.0,0.0,0.0,0.0,0.0,0.0,0.0,0.0,0.0,0.0,0.0,0.0,0.0,0.0,0.0,0.0,0.0,0.0,0.0,0.0,0.0,0.0,0.0,0.0,0.0,0.0,0.0,0.0,0.0,0.0,0.0,0.0,0.0,0.0,0.0,0.0,0.0,0.0,0.0,0.0,0.0,0.0,0.0,0.0,0.0,0.0,0.0,0.0,0.0,0.0,0.0,0.0,0.0,0.0,0.0,0.0,0.0,0.0,0.0,0.0,0.0,0.0,0.0,0.0,0.0,0.0,0.0,0.0,0.0,0.0,0.0,0.0,0.0,0.0,0.0,0.0,0.0,0.0,0.0,0.0,0.0,0.0,0.0,0.0,0.0,0.0,0.0,0.0,0.0,0.0,0.0,0.0,0.0,0.0,0.0,0.0,0.0,0.0,0.0,0.0,0.0,0.0,0.0,0.0,0.0,0.0,0.0,0.0,0.0,0.0,0.0,0.0,0.0,0.0,0.0,0.0,0.0,0.0,0.0,0.0,0.0,0.0,0.0,0.0,0.0,0.0,0.0,0.0,0.0,0.0,0.0,0.0,0.0,0.0,0.0,0.0,0.0,0.0,0.0,0.0,0.0,0.0,0.0,0.0,0.0,0.0,0.0,0.0,0.0,0.0,0.0,0.0,0.0,0.0,0.0,0.0,0.0,0.0,0.0,0.0,0.0,0.0,0.0,0.0,0.0,0.0,0.0,0.0,0.0,0.0,0.0,0.0,0.0,0.0,0.0,0.0,0.0,0.0,0.0,0.0,0.0,0.0,0.0,0.0,0.0,0.0,0.0,0.0,0.0,0.0,0.0,0.0,0.0,0.0,0.0,0.0,0.0,0.0,0.0,0.0,0.0,0.0,0.0,0.0,0.0,0.0,0.0,0.0,0.0,0.0,0.0,0.0,0.0,0.0,0.0,0.0,0.0,0.0,0.0,0.0,0.0,0.0,0.0,0.0,0.0,0.0,0.0,0.0,0.0,0.0,0.0,0.0,0.0,0.0,0.0,0.0,0.0,0.0,0.0,0.0,0.0,0.0,0.0,0.0,0.0,0.0,0.0,0.0,0.0,0.0,0.0,0.0,0.0,0.0,0.0,0.0,0.0,0.0,0.0,0.0,0.0,0.0,0.0,0.0,0.0,0.0,0.0,0.0,0.0,0.0,0.0,0.0,0.0,0.0,0.0,0.0,0.0,0.0,0.0,0.0,0.0,0.0,0.0,0.0,0.0,0.0,0.0,0.0,0.0,0.0,0.0,0.0,0.0,0.0,0.0,0.0,0.0,0.0,0.0,0.0,0.0,0.0,0.0,0.0,0.0,0.0,0.0,0.0,0.0,0.0,0.0,0.0,0.0,0.0,0.0,0.0,0.0,0.0,0.0,0.0,0.0,0.0,0.0,0.0,0.0,0.0,0.0,0.0,0.0,0.0,0.0,0.0,0.0,0.0,0.0,0.0,0.0,0.0,0.0,0.0,0.0,0.0,0.0,0.0,0.0,0.0,0.0,0.0,0.0,0.0,0.0,0.0,0.0,0.0,0.0,0.0,0.0,0.0,0.0,0.0,0.0,0.0,0.0,0.0,0.0,0.0,0.0,0.0,0.0,0.0,0.0,0.0,0.0,0.0,0.0,0.0,0.0,0.0,0.0,0.0,0.0,0.0,0.0,0.0,0.0,0.0,0.0,0.0,0.0,0.0,0.0,0.0,0.0,0.0,0.0,0.0,0.0,0.0,0.0,0.0,0.0,0.0,0.0,0.0,0.0,0.0,0.0,0.0,0.0,0.0,0.0,0.0,0.0,0.0,0.0,0.0,0.0,0.0,0.0,0.0,0.0,0.0,0.0,0.0,0.0,0.0,0.0,0.0,0.0,0.0,0.0,0.0,0.0,0.0,0.0,0.0,0.0,0.0,0.0,0.0,0.0,0.0,0.0,0.0,0.0,0.0,0.0,0.0,0.0,0.0,0.0,0.0,0.0,0.0,0.0,0.0,0.0,0.0,0.0,0.0,0.0,0.0,0.0,0.0,0.0,0.0,0.0,0.0,0.0,0.0,0.0,0.0,0.0,0.0,0.0,0.0,0.0,0.0,0.0,0.0,0.0,0.0,0.0,0.0,0.0,0.0,0.0,0.0,0.0,0.0,0.0,0.0,0.0,0.0,0.0,0.0,0.0,0.0,0.0,0.0,0.0,0.0,0.0,0.0,0.0,0.0,0.0,0.0,0.0,0.0,0.0,0.0,0.0,0.0,0.0,0.0,0.0,0.0,0.0,0.0,0.0,0.0,0.0,0.0,0.0,0.0,0.0,0.0,0.0,0.0,0.0,0.0,0.0,0.0,0.0,0.0,0.0,0.0,0.0,0.0,0.0,0.0,0.0,0.0,0.0,0.0,0.0,0.0,0.0,0.0,0.0,0.0,0.0,0.0,0.0,0.0,0.0,0.0,0.0,0.0,0.0,0.0,0.0,0.0,0.0,0.0,0.0,0.0,0.0,0.0,0.0,0.0,0.0,0.0,0.0,0.0,0.0,0.0,0.0,0.0,0.0,0.0,0.0,0.0,0.0,0.0,0.0,0.0,0.0,0.0,0.0,0.0,0.0,0.0,0.0,0.0,0.0,0.0,0.0,0.0,0.0,0.0,0.0,0.0,0.0,0.0,0.0,0.0,0.0,0.0,0.0,0.0,0.0,0.0,0.0,0.0,0.0,0.0,0.0,0.0,0.0,0.0,0.0,0.0,0.0,0.0,0.0,0.0,0.0,0.0,0.0,0.0,0.0,0.0,0.0,0.0,0.0,0.0,0.0,0.0,0.0,0.0,0.0,0.0,0.0,0.0,0.0,0.0,0.0,0.0,0.0,0.0,0.0,0.0,0.0,0.0,0.0,0.0,0.0,0.0,0.0,0.0,0.0,0.0,0.0,0.0,0.0,0.0,0.0,0.0,0.0,0.0,0.0,0.0,0.0,0.0,0.0,0.0,0.0,0.0,0.0,0.0,0.0,0.0,0.0,0.0,0.0,0.0,0.0,0.0,0.0,0.0,0.0,0.0,0.0,0.0,0.0,0.0,0.0,0.0,0.0,0.0,0.0,0.0,0.0,0.0,0.0,0.0,0.0,0.0,0.0,0.0,0.0,0.0,0.0,0.0,0.0,0.0,0.0,0.0,0.0,0.0,0.0,0.0,0.0,0.0,0.0,0.0,0.0,0.0,0.0,0.0,0.0,0.0,0.0,0.0,0.0,0.0,0.0,0.0,0.0,0.0,0.0,0.0,0.0,0.0,0.0,0.0,0.0,0.0,0.0,0.0,0.0,0.0,0.0,0.0,0.0,0.0,0.0,0.0,0.0,0.0,0.0,0.0,0.0,0.0,0.0,0.0,0.0,0.0,0.0,0.0,0.0,0.0,0.0,0.0,0.0,0.0,0.0,0.0,0.0,0.0,0.0,0.0,0.0,0.0,0.0,0.0,0.0,0.0,-0.6339,-0.9244,0.0,0.0,0.0,0.0,0.0,0.0,0.0,0.0,0.0,0.0,0.0,0.0,0.0,0.0,0.0,0.0,0.0,0.0,0.0,0.0,0.0,0.0,0.0,0.0,0.0,0.0,1.7988,1.7999,1.7995,1.7518,1.7019,1.6574,1.5986,1.5241,1.4351,1.4227,1.3921,1.3398,1.2656,1.1888,1.1063,1.0033,0.9686,0.9923,0.0,0.0,0.0,0.0,0.0,0.0,0.0,0.0,0.0,0.0,0.0,0.0,0.0,0.0,0.0,0.0,0.0,0.0,0.0,0.0,0.0,0.0,0.0,0.0,0.0,0.0,0.0,0.0,0.0,0.0,0.0,0.0,0.0,0.0,0.0,0.0,0.0,0.0,0.0,0.0,0.0,0.0,0.0,0.0,0.0,0.0,0.0,0.0,0.0,0.0,0.0,0.0,0.0,0.0,0.0,0.0,0.0,0.0,0.0,0.0,0.0,0.0,0.0,0.0,0.0,0.0,0.0,0.0,0.0,0.0,-0.3595,-0.5715,0.0,0.0,0.0,0.0,0.0,0.0,0.0,0.0,0.0,0.0,0.0,0.0,0.0,0.0,0.0,0.0,0.0,0.0,0.0,0.0,0.0,0.0,0.0,1.6939,1.7322,1.8359,1.845,1.8432,1.8434,1.8224,1.7699,1.6761,1.6451,1.5884,1.4957,1.5008,1.4944,1.4757,1.3385,1.1893,1.0322,1.0321,1.0576,1.095,0.9726,0.0,0.0,0.0,0.0,0.0,0.0,0.0,0.0,0.0,0.0,0.0,0.0,0.0,0.0,0.0,0.0,0.0,0.0,0.0,0.0,0.0,0.0,0.0,0.0,0.0,0.0,0.0,0.0,0.0,0.0,0.0,0.0,0.0,0.0,0.0,0.0,0.0,0.0,0.0,0.0,0.0,0.0,0.0,0.0,0.0,0.0,0.0,0.0,0.0,0.0,0.0,0.0,0.0,0.0,0.0,0.0,0.0,0.0,0.0,0.0,0.0,0.0,0.0,0.0278,0.0344,0.0548,0.059,0.1061,0.1633,-0.1377,-0.2284,-0.1761,-0.4187,0.0,0.0,0.0,0.0,0.0,0.0,0.0,0.0,0.0,0.0,0.0,0.0,0.0,0.0,0.0,0.0,0.0,0.0,0.0,0.0,0.0,1.7831,1.8457,2.0035,2.018,2.018,2.0175,1.9409,1.8556,1.7669,1.683,1.5967,1.5095,1.5687,1.5665,1.4953,1.407,1.2807,1.1244,1.2048,1.205,1.1345,0.9505,0.0,0.0,0.0,0.0,0.0,0.0,0.0,0.0,0.0,0.0,0.0,0.0,0.0,0.0,0.0,0.0,0.0,0.0,0.0,0.0,0.0,0.0,0.0,0.0,0.0,0.0,0.0,0.0,0.0,0.0,0.0,0.0,0.0,0.0,0.0,0.0,0.0,0.0,0.0,0.0,0.0,0.0,0.0,1.4052,1.346,0.0,0.0,0.0,0.0,0.0,0.0,0.0,0.0,0.0,0.0,0.0,0.0,0.0,0.1859,0.1796,0.2063,0.2516,0.3025,0.3294,0.3652,0.4182,0.3815,0.3535,0.3268,0.214,0.0,-0.0061,-0.1133,0.0,0.0,0.0,0.0,0.0,0.0,0.0,0.0,0.0,0.0,0.0,0.0,0.0,0.0,0.0,0.0,0.0,0.0,0.0,0.0,0.0,1.7533,1.7904,1.9627,1.9256,1.914,1.9684,1.9289,1.8889,1.8562,1.7619,1.695,1.657,1.5914,1.5192,1.4371,1.3945,1.3045,1.1696,1.1988,1.1645,1.0737,0.9876,0.9212,0.882,1.0026,0.0,0.0,0.0,0.0,0.0,0.0,0.0,0.0,0.0,0.0,0.0,0.0,0.0,0.0,0.0,0.0,0.0,0.0,0.0,0.0,0.0,0.0,0.0,0.0,0.0,0.0,0.0,0.0,0.0,0.0,0.0,0.0,0.0,0.0,0.0,0.0,0.0,0.0,0.0,1.4266,1.3695,1.3142,1.137,0.9886,0.0,0.0,0.0,0.0,0.0,0.0,0.0,0.0,0.0,0.384,0.3421,0.3334,0.3526,0.3381,0.3222,0.3077,0.3361,0.3433,0.3253,0.3149,0.2959,0.279,0.2458,0.1873,0.1048,0.018,-0.0799,-0.1808,0.0,0.0,0.0,0.0,-0.4869,-0.4696,0.0,0.0,0.0,0.0,0.0,0.0,0.0,0.0,0.0,0.0,0.0,0.0,1.7788,1.7109,1.7155,1.8687,1.815,1.8111,1.9016,1.9046,1.9046,1.909,1.8435,1.7953,1.7722,1.6231,1.5052,1.4231,1.3826,1.3096,1.2083,1.1503,1.0952,1.0501,1.0298,0.966,0.8752,0.9102,1.0865,0.0,0.0,0.0,0.0,0.0,0.0,0.0,0.0,0.0,0.0,0.0,0.0,0.0,0.0,0.0,0.0,0.0,0.0,0.0,0.0,0.0,0.0,0.0,0.0,0.0,0.0,0.0,0.0,0.0,0.0,0.0,0.0,0.0,0.0,0.0,0.0,0.0,0.0,1.4066,1.3521,1.2875,1.1214,0.9823,0.0,0.0,0.0,0.0,0.0,0.0,0.5099,0.4417,0.4345,0.4933,0.4479,0.4341,0.4654,0.4322,0.386,0.3271,0.351,0.3319,0.2847,0.2879,0.2828,0.2794,0.2685,0.2462,0.213,0.1042,0.0357,-0.0182,-0.1528,-0.2438,-0.2968,-0.3425,-0.3553,-0.3533,0.0,0.0,0.0,0.0,0.0,0.0,0.0,0.0,0.0,0.0,0.0,1.6857,1.7715,1.6965,1.6772,1.7704,1.7784,1.8139,1.8945,1.9067,1.91,1.9103,1.9057,1.8639,1.781,1.6908,1.6003,1.5136,1.3981,1.3156,1.263,1.0961,1.0594,1.1311,1.0549,0.9982,0.96,0.9064,0.9157,0.9982,0.0,0.0,0.0,0.0,0.0,0.0,0.0,0.0,0.0,0.0,0.0,0.0,0.0,0.0,0.0,0.0,0.0,0.0,0.0,0.0,0.0,0.0,0.0,0.0,0.0,0.0,0.0,0.0,0.0,0.0,0.0,0.0,0.0,0.0,0.0,0.0,0.0,0.0,0.0,1.2053,1.1269,0.0,0.0,0.0,0.0,0.6092,0.5864,0.5893,0.6111,0.5254,0.4925,0.5255,0.4745,0.4424,0.4332,0.4592,0.4819,0.4861,0.4919,0.5007,0.5124,0.49,0.4645,0.4349,0.3907,0.3577,0.3254,0.2028,0.0881,-0.0177,-0.0669,-0.163,-0.2655,-0.2314,-0.2536,-0.283,0.0,0.0,0.0,0.0,0.0,0.0,0.0,0.0,1.7851,1.8711,1.753,1.691,1.7774,1.6479,1.5908,1.6783,1.6363,1.6441,1.7337,1.7948,1.8524,1.9143,1.9158,1.8442,1.6933,1.6811,1.6208,1.5081,1.4637,1.3988,1.3154,1.3182,1.2194,1.0428,1.0233,1.0067,0.9793,0.7429,0.6425,0.6478,0.7008,1.0224,0.0,0.0,0.0,0.0,0.0,0.0,0.0,0.0,0.0,0.0,0.0,0.0,0.0,0.0,0.0,0.0,0.0,0.0,0.0,0.0,0.0,0.0,0.0,0.0,0.0,0.0,0.0,0.0,0.0,0.0,0.0,0.0,0.0,0.0,0.0,0.0,0.0,1.2522,1.1352,0.0,1.0019,0.9198,0.8454,0.7795,0.7101,0.6567,0.6353,0.5898,0.5614,0.5572,0.5457,0.5368,0.5316,0.5385,0.506,0.4409,0.4875,0.4788,0.4261,0.4098,0.405,0.4132,0.3744,0.3244,0.2802,0.2382,0.1994,0.1595,0.0634,0.0,-0.0497,-0.1203,-0.1592,-0.1719,0.0,0.0,0.0,0.0,0.0,0.0,0.0,0.0,1.8633,1.9154,1.7903,1.7073,1.7338,1.5959,1.5261,1.5875,1.5426,1.5628,1.6861,1.7488,1.8359,1.9584,1.9339,1.8262,1.6348,1.6513,1.6068,1.494,1.4897,1.4511,1.3823,1.3392,1.2388,1.0948,1.0356,1.0092,0.9957,0.7726,0.6038,0.4892,0.51,0.7869,1.1991,0.0,0.0,0.0,0.0,0.0,0.0,0.0,0.0,0.0,0.0,0.0,0.0,0.0,0.0,0.0,0.0,0.0,0.0,0.0,0.0,0.0,0.0,0.0,0.0,0.0,0.0,0.0,0.0,0.0,0.0,0.0,0.0,0.0,0.0,1.2684,1.2175,1.213,1.1306,1.0665,1.0433,0.9893,0.9238,0.8496,0.7902,0.736,0.6995,0.6725,0.6526,0.6363,0.6121,0.5975,0.5975,0.5807,0.5298,0.4504,0.5042,0.492,0.4233,0.4072,0.4047,0.4132,0.3747,0.3244,0.2689,0.28,0.28,0.2635,0.1511,0.0986,0.0798,-0.0327,-0.0808,-0.0893,0.0,0.0,0.0,0.0,0.0,0.0,0.0,1.988,1.9274,1.912,1.8282,1.7345,1.6416,1.5472,1.4936,1.4981,1.5057,1.5857,1.7644,1.7779,1.8593,2.0375,1.953,1.8091,1.6151,1.6048,1.5635,1.4775,1.4629,1.4582,1.4558,1.142,1.1058,1.2971,1.0967,1.0091,1.0106,1.009,0.8254,0.5563,0.8334,0.8222,0.6995,0.0,0.0,0.0,0.0,0.0,0.0,0.0,0.0,0.0,0.0,0.0,0.0,0.0,0.0,0.0,0.0,0.0,0.0,0.0,0.0,0.0,0.0,0.0,0.0,0.0,0.0,0.0,0.0,0.0,0.0,0.0,0.0,0.0,1.2401,1.1475,1.1013,1.093,1.125,1.1121,1.0172,1.0148,0.9573,0.8164,0.8165,0.8201,0.8098,0.7756,0.7624,0.7745,0.673,0.6152,0.6201,0.5923,0.5617,0.5358,0.5613,0.56,0.5276,0.502,0.4744,0.4512,0.4187,0.3685,0.3125,0.3355,0.3193,0.2805,0.1738,0.1207,0.0955,0.0213,-0.0208,-0.0454,0.0,0.0,0.0,0.0,0.0,0.0,0.0,2.0324,1.9932,1.9266,1.8321,1.7359,1.6477,1.5536,1.4976,1.5008,1.5064,1.5605,1.6772,1.745,1.8335,1.9509,1.7959,1.6784,1.6194,1.5226,1.4592,1.4354,1.4083,1.3701,1.3251,1.3214,1.2857,1.2151,1.0435,0.9794,1.0014,0.9968,1.0858,1.2086,0.9268,0.8494,0.9698,0.0,0.0,0.0,0.0,0.0,0.0,0.0,0.0,0.0,0.0,0.0,0.0,0.0,0.0,0.0,0.0,0.0,0.0,0.0,0.0,0.0,0.0,0.0,0.0,0.0,0.0,0.0,0.0,0.0,0.0,0.0,1.3466,1.3245,1.3933,1.3303,1.2905,1.3377,1.2229,1.1396,1.1323,1.036,0.9568,0.9056,0.8743,0.8525,0.8373,0.8463,0.8509,0.8479,0.803,0.7823,0.792,0.7524,0.6963,0.6228,0.634,0.6066,0.5553,0.5128,0.4996,0.521,0.4634,0.413,0.3666,0.3704,0.3357,0.286,0.2186,0.2028,0.1967,0.0958,0.0364,0.0102,0.0,0.0,0.0,0.0,0.0,0.0,0.0,2.0508,2.0048,1.8749,1.8067,1.72,1.5902,1.5285,1.496,1.5003,1.5391,1.604,1.6981,1.7869,1.8213,1.7919,0.0,1.5962,1.5452,1.4604,1.415,1.4165,1.3917,1.3701,1.3558,1.4508,1.412,1.2511,1.1233,1.0984,1.151,1.1567,1.2916,1.4777,1.1542,0.9845,0.9867,1.5431,1.6439,1.4958,1.5518,1.4342,1.2508,1.2327,0.0,0.0,0.0,0.0,0.0,0.0,0.0,0.0,0.0,0.0,0.0,0.0,0.0,0.0,0.0,0.0,0.0,0.0,0.0,0.0,0.0,0.0,0.0,0.0,1.4006,1.39,1.4563,1.3495,1.2956,1.382,1.2817,1.2166,1.2278,1.1332,1.0417,0.9833,0.9535,0.9234,0.8983,0.922,0.9329,0.9197,0.883,0.8626,0.8626,0.8137,0.7536,0.6826,0.6982,0.6774,0.6226,0.5643,0.5539,0.5699,0.4943,0.4365,0.3986,0.3794,0.3476,0.3081,0.0,0.0,0.0,0.0,0.0924,0.0456,0.0,0.0,0.0,0.0,0.0,0.0,0.0,2.0483,1.9811,1.794,1.7694,1.6971,1.5081,1.4885,1.4902,1.4982,1.5838,1.6771,1.7734,1.8416,1.7987,1.6201,1.5986,1.5479,1.4526,1.427,1.4199,1.4264,1.409,1.4262,1.4726,1.5331,1.4851,1.3498,1.289,1.3029,1.3741,1.38,1.4337,1.5082,1.4279,1.1903,0.9333,1.3706,1.4887,1.4529,1.6767,1.5651,1.3202,1.3988,0.0,0.0,0.0,0.0,0.0,0.0,0.0,0.0,0.0,0.0,0.0,0.0,0.0,0.0,0.0,0.0,0.0,0.0,0.0,0.0,0.0,0.0,0.0,0.0,1.536,1.5417,1.47,1.2982,1.2184,1.3163,1.3202,1.3119,1.3024,1.2511,1.1719,1.0448,1.0364,1.0183,0.968,0.989,0.0,0.0,0.0,0.8915,0.8574,0.8231,0.7798,0.7234,0.76,0.7536,0.7036,0.6463,0.6176,0.6121,0.5205,0.4591,0.4167,0.3915,0.363,0.3357,0.2914,0.2688,0.2546,0.2111,0.152,0.0857,0.0,0.0,0.0,0.0,0.0,0.0,0.0,2.0424,1.9765,1.7947,1.7644,1.69,1.5019,1.4766,1.4766,1.4832,1.5691,1.6685,1.7727,1.7197,1.6637,1.6199,1.5311,1.4936,1.5202,1.4691,1.471,1.531,1.4898,1.4749,1.4873,1.5374,1.4911,1.3686,1.4304,1.456,1.4519,1.3683,1.4374,1.5951,1.4826,1.4026,1.3618,1.4681,1.6389,1.8008,1.6621,1.6132,1.6025,1.524,1.4872,1.4647,1.4245,0.0,0.0,0.0,0.0,0.0,0.0,0.0,0.0,0.0,0.0,0.0,0.0,0.0,0.0,0.0,0.0,0.0,0.0,0.0,0.0,1.512,1.485,1.4768,1.5084,1.4104,1.3443,1.3818,1.3533,1.327,1.3006,1.2609,1.1935,1.0964,1.0981,1.0762,1.0222,1.0072,0.9947,0.9799,0.9472,0.9027,0.843,0.8768,0.8482,0.7544,0.8026,0.0,0.7324,0.6963,0.675,0.6538,0.577,0.5211,0.4811,0.4547,0.4006,0.3357,0.3132,0.2795,0.2507,0.2941,0.2647,0.1972,0.0,0.0,0.0,0.0,0.0,0.0,0.0,2.0344,1.9862,1.8486,1.8233,1.7668,1.6243,1.6034,1.6012,1.6041,1.6817,1.7369,1.7485,1.6965,1.6234,1.53,1.503,1.4954,1.5107,1.4968,1.5045,1.5345,1.5143,1.5106,1.5208,1.5823,1.5639,1.4853,1.5305,1.5119,1.4487,1.4348,1.4527,1.4934,1.5294,1.5177,1.4775,1.5098,1.5934,1.692,1.6682,1.6343,1.6011,1.6153,1.5941,1.553,1.5136,1.5201,1.5387,0.0,0.0,0.0,0.0,0.0,0.0,0.0,0.0,0.0,0.0,0.0,0.0,0.0,0.0,1.5235,1.5246,0.0,1.5361,1.5815,1.5671,1.5547,1.5756,1.5404,1.4898,1.4398,1.4035,1.3789,1.3695,1.3256,1.2667,1.1765,1.1366,1.0931,1.0316,1.0102,0.982,0.9402,0.9387,0.9098,0.8507,0.8853,0.8776,0.8313,0.8567,0.8475,0.803,0.7542,0.7259,0.7064,0.6378,0.5716,0.5157,0.4572,0.3974,0.3431,0.3431,0.3051,0.2561,0.2781,0.2598,0.2265,0.0,0.0,0.0,0.0,0.0,0.0,0.0,2.0283,1.9953,1.8993,1.8797,1.8412,1.7451,1.7281,1.73,1.7468,1.7837,1.7786,1.7181,1.6813,1.5956,1.441,1.4845,1.5076,1.5018,1.5238,1.5331,1.5253,1.5267,1.533,1.5454,1.6051,1.6087,1.5676,1.5833,1.531,1.441,1.5078,1.4941,1.4411,1.5645,1.5813,1.5367,1.5639,1.5562,1.5491,1.6885,1.6673,1.5925,1.6987,1.6929,1.6349,1.5877,1.6306,1.6786,1.5889,1.6106,0.0,0.0,0.0,0.0,0.0,0.0,0.0,0.0,1.5457,1.5344,1.4928,1.5121,1.5518,1.5834,1.5722,1.5865,1.6696,1.6712,1.6622,1.6476,1.6429,1.6003,1.4869,1.4492,1.4316,1.4373,1.3999,1.3409,1.2657,1.2012,1.1334,1.0659,1.0403,0.9972,0.9348,0.9323,0.9067,0.8475,0.8629,0.8703,0.8734,0.884,0.8813,0.8602,0.8051,0.7708,0.7507,0.6805,0.6146,0.5506,0.4688,0.4104,0.3807,0.3887,0.3473,0.2841,0.2594,0.2543,0.2484,0.0,0.0,0.0,0.0,0.0,0.0,0.0,0.0,1.9927,1.8866,1.8726,1.831,1.7256,1.7077,1.7355,1.8118,1.7344,1.6835,1.6923,1.5919,1.5061,1.4502,1.4504,1.4912,1.5762,1.5582,1.5616,1.5895,1.56,1.5388,1.5242,1.5316,1.5051,1.4536,1.5405,1.5503,1.5016,1.5088,1.5943,1.7117,1.5774,1.6203,1.7573,1.7094,1.7326,1.7812,1.7179,1.7619,1.8394,1.7965,1.7843,1.7754,1.7169,1.7396,1.7777,1.7348,1.7377,1.753,1.7531,1.6767,1.619,1.7084,1.625,1.5488,0.0,1.6313,1.5972,1.5781,1.612,1.6401,1.6336,1.6837,1.7275,1.7407,1.7258,1.712,1.7102,1.657,1.5856,1.5054,1.4776,1.4569,1.443,1.4326,1.4035,1.3314,1.3218,1.2764,1.1873,1.1443,1.0981,1.0442,0.9642,0.8861,0.8058,0.8335,0.8207,0.7788,0.8283,0.8504,0.8438,0.8165,0.7932,0.7651,0.6919,0.6446,0.6169,0.5775,0.5242,0.4744,0.4692,0.415,0.3425,0.3352,0.3381,0.3326,0.0,0.0,0.0,0.0,0.0,0.0,0.0,0.0,0.0,1.9466,1.9322,1.9082,1.8551,1.8393,1.847,1.8805,1.8064,1.7433,1.7032,1.6183,1.5404,1.4771,1.5089,1.5243,1.5199,1.5547,1.5631,1.5418,1.5241,1.5034,1.483,1.4945,1.4726,1.4336,1.514,1.5299,1.5007,1.5427,1.5971,1.6509,1.5917,1.6259,1.7107,1.7063,1.7682,1.8594,1.8621,1.8542,0.0,0.0,1.8486,1.7852,1.7493,1.7571,1.7807,1.7802,1.7733,1.7548,1.7072,1.6984,1.7118,1.7544,1.6968,1.6491,1.7279,1.6884,1.618,1.5726,1.5963,1.6165,1.5901,1.6688,1.7378,1.7326,1.7531,1.7558,1.7315,1.6757,1.6079,1.5255,1.512,1.4868,1.4228,1.4183,1.3976,1.3542,1.3362,1.2967,1.2258,1.1873,1.1379,1.0868,1.0367,0.9875,0.9398,0.9496,0.9358,0.8948,0.9219,0.9154,0.8746,0.8512,0.815,0.7657,0.7019,0.6644,0.6417,0.5962,0.5675,0.548,0.5439,0.519,0.4743,0.373,0.329,0.318,0.0,0.0,0.0,0.0,0.0,0.0,0.0,0.0,0.0,0.0,1.9751,1.9577,1.9401,1.9457,1.9386,1.9087,1.8747,0.0,0.0,1.6547,1.5915,1.4975,1.5399,1.539,1.4832,1.5354,1.5403,1.4931,1.4832,1.475,1.475,1.4842,1.4771,1.4585,1.5213,1.5424,1.5332,1.5948,1.6292,1.6473,1.6466,1.6931,1.7655,1.7622,1.8395,1.9492,1.9612,1.9141,0.0,1.9353,1.9061,1.8293,1.7832,1.7938,1.8194,1.8098,1.7976,1.7691,1.707,1.7088,1.7332,1.7591,1.6923,1.6399,1.7044,1.6443,1.5654,1.5372,1.5637,1.5883,1.5894,1.6662,1.7292,1.7372,1.7522,1.7529,1.7281,1.6799,1.6146,1.5251,1.5184,1.4885,1.4039,1.4135,1.4126,1.3801,1.3609,1.3252,1.277,1.2234,1.1766,1.1293,1.0743,1.0411,1.0326,1.0231,1.0097,0.9827,0.9907,0.9592,0.9012,0.8743,0.8351,0.7881,0.7355,0.7122,0.7066,0.6428,0.6213,0.6185,0.6119,0.5941,0.5631,0.441,0.3797,0.3494,0.0,0.0,0.0,0.0,0.0,0.0,0.0,0.0,0.0,0.0,0.0,0.0,0.0,1.9633,1.9648,1.8787,1.893,0.0,0.0,1.6757,1.6371,1.5051,1.5025,1.5034,1.5091,1.4984,1.4888,1.4804,1.4537,1.4642,1.5094,1.5107,1.5145,1.5283,1.5778,1.6091,1.6291,1.6564,1.7335,1.8355,1.7647,1.8643,2.0469,1.9507,1.999,2.103,1.9557,0.0,1.9711,1.9484,1.9601,1.9643,1.8531,1.8813,0.0,1.8539,1.8367,1.8468,1.8376,1.7324,1.6447,1.7286,1.5863,1.4486,1.5196,1.4597,1.4115,1.4949,1.5387,1.5876,1.6789,1.7107,1.7354,1.7827,1.7178,1.6745,1.7054,1.6596,1.5852,1.4831,1.473,1.4495,1.3951,1.4486,1.4678,1.4217,1.419,1.4003,1.3663,1.2847,1.2243,1.1993,1.0401,0.9761,1.0219,0.9893,0.9673,0.959,0.9727,0.9538,0.9004,0.8774,0.861,0.8455,0.8093,0.8107,0.8282,0.7488,0.7091,0.6924,0.6631,0.6179,0.5696,0.5707,0.5326,0.4705,0.0,0.0,0.0,0.0,0.0,0.0,0.0,0.0,0.0,0.0,0.0,0.0,0.0,0.0,0.0,0.0,1.9401,0.0,0.0,1.7314,1.6675,1.6215,1.5301,1.485,1.4883,1.4742,1.4655,1.4739,1.4411,1.4332,1.444,1.4018,1.403,1.4323,1.4814,1.5271,1.5805,1.6409,1.7242,1.8207,1.8442,1.9361,2.0661,2.0954,2.1141,2.1269,0.0,0.0,1.9971,2.0239,1.9939,1.9377,1.8966,1.8906,1.8806,1.8166,1.8035,1.7944,1.7203,1.6515,1.6078,1.6481,1.5623,1.4881,1.5453,1.485,1.4417,1.5189,1.5998,1.6637,1.6984,1.81,1.8673,1.788,1.7817,1.7612,1.692,1.6597,1.611,1.5387,1.5563,1.5597,1.5155,1.4929,1.474,1.4553,1.4881,1.4871,1.4255,1.3773,1.3303,1.2764,1.2056,1.1719,1.1794,1.1664,1.142,1.1042,1.045,0.9771,0.9122,0.9056,0.8768,0.8321,0.8364,0.826,0.8063,0.8005,0.786,0.7659,0.7643,0.7342,0.6881,0.6677,0.6263,0.5694,0.0,0.0,0.0,0.0,0.0,0.0,0.0,0.0,0.0,0.0,0.0,0.0,0.0,0.0,0.0,0.0,0.0,1.9394,0.0,0.0,1.7389,1.7007,1.6059,1.551,1.5362,1.5234,1.5296,1.5518,1.497,1.4764,1.4951,1.4285,1.4044,1.4213,1.4742,1.5324,1.5932,1.6712,1.771,1.884,1.9344,2.0365,2.1615,2.1924,2.2095,0.0,0.0,0.0,2.0612,2.0861,2.0401,1.9641,1.9363,1.9014,1.8571,1.7847,1.7597,1.7327,1.6416,1.5932,1.5753,1.589,1.5362,1.4845,1.5063,1.4441,1.4114,1.5114,1.6014,1.6775,1.7374,1.8749,1.9461,1.8442,1.847,1.8231,1.7189,1.6723,1.6261,1.5668,1.6045,1.6222,1.5806,1.5797,1.5595,1.5061,1.5127,1.506,1.4759,1.4178,1.3699,1.3468,1.2833,1.258,1.269,1.2393,1.215,1.1861,1.1018,1.038,0.9922,0.9835,0.949,0.9014,0.915,0.8988,0.8582,0.8582,0.8498,0.8259,0.8177,0.7931,0.7648,0.744,0.7063,0.655,0.0,0.0,0.0,0.0,0.0,0.0,0.0,0.0,0.0,0.0,0.0,0.0,0.0,0.0,0.0,0.0,0.0,0.0,0.0,0.0,0.0,1.7412,1.7161,1.688,1.6435,1.6407,1.6624,1.7025,1.6031,1.5849,1.6459,1.5688,1.5164,1.4983,1.5611,1.617,1.6744,1.7572,1.8815,2.0262,2.0388,2.1625,2.3327,2.2553,0.0,0.0,0.0,2.2504,2.161,2.1311,2.0904,2.037,1.9534,1.9068,1.8591,1.7648,1.7096,1.668,1.6042,1.5596,1.5348,1.5482,1.4936,1.4336,1.4073,1.3481,1.3388,1.4837,1.5658,1.6523,1.8026,1.9161,1.9751,1.9404,1.9061,1.8601,1.7857,1.7052,1.6335,1.5771,1.6203,1.6417,1.6049,1.7049,1.7157,1.579,1.5018,1.4771,1.5167,1.3988,1.3546,1.3987,1.2759,1.2265,1.2782,1.2105,1.1821,1.1948,1.1469,1.1217,1.118,1.0992,1.0725,1.0418,1.0427,1.0205,0.9774,0.927,0.8981,0.882,0.83,0.8095,0.8062,0.8062,0.7773,0.7286,0.0,0.0,0.0,0.0,0.0,0.0,0.0,0.0,0.0,0.0,0.0,0.0,0.0,0.0,0.0,0.0,0.0,0.0,0.0,0.0,0.0,0.0,0.0,0.0,0.0,0.0,0.0,1.7223,1.6526,1.6283,1.6481,1.5728,1.552,1.5748,1.6464,1.7081,1.7732,1.8941,2.002,2.1003,0.0,2.2723,2.3729,0.0,0.0,0.0,0.0,0.0,2.2443,2.1686,2.0431,1.9016,1.8062,1.7573,1.7286,1.6968,1.6279,1.5591,1.5356,1.4739,1.4125,1.4109,1.4228,1.432,1.4299,1.4908,1.5778,1.6786,1.7881,1.888,1.9626,2.0388,2.067,1.9939,1.9704,1.9405,1.8833,1.8521,1.8055,1.7264,1.744,1.7527,1.7258,1.7577,1.759,1.7135,1.6204,1.5446,1.4881,1.4002,1.3376,1.3052,1.278,1.2587,1.2568,1.2489,1.2124,1.1491,1.1485,1.1282,1.0829,1.0753,1.0687,1.0544,1.0715,1.0475,1.0011,1.0137,1.0021,0.9755,0.9716,0.9341,0.8804,0.8804,0.8415,0.7814,0.0,0.0,0.0,0.0,0.0,0.0,0.0,0.0,0.0,0.0,0.0,0.0,0.0,0.0,0.0,0.0,0.0,0.0,0.0,0.0,0.0,0.0,0.0,0.0,0.0,0.0,0.0,0.0,0.0,0.0,1.6567,1.5954,1.5903,1.6298,1.6705,1.7356,1.819,1.9265,0.0,0.0,0.0,0.0,0.0,0.0,0.0,0.0,0.0,0.0,0.0,0.0,0.0,1.852,1.7475,1.7071,1.6904,1.6445,1.585,1.5275,1.4834,1.4285,1.3833,1.3818,1.4239,1.4744,1.5071,1.5916,1.6948,1.8076,1.9026,1.9826,2.0454,2.128,2.1599,2.0839,2.0798,2.0559,1.9702,1.918,1.8601,1.7856,1.7796,1.7715,1.7471,1.7926,1.7954,1.7284,1.6613,1.594,1.5259,1.4423,1.3962,1.3826,1.3541,1.3235,1.2814,1.2896,1.2638,1.209,1.2126,1.1909,1.1468,1.1616,1.1356,1.0899,1.1319,1.1084,1.0399,1.0649,1.0505,1.0166,1.0127,0.9804,0.935,0.939,0.891,0.8226,0.0,0.0,0.0,0.0,0.0,0.0,0.0,0.0,0.0,0.0,0.0,0.0,0.0,0.0,0.0,0.0,0.0,0.0,0.0,0.0,0.0,0.0,0.0,0.0,0.0,0.0,0.0,0.0,0.0,0.0,0.0,0.0,0.0,0.0,0.0,0.0,0.0,0.0,0.0,0.0,0.0,0.0,0.0,0.0,0.0,0.0,0.0,0.0,0.0,0.0,1.8734,1.8342,1.7169,1.6836,1.6717,1.588,1.5545,1.5263,1.4438,1.4114,1.4037,1.4068,1.4672,1.5443,1.6131,1.6862,1.7769,1.9161,1.9773,2.0254,2.0916,2.1834,2.2307,2.1617,2.1761,2.1537,2.0335,1.9415,1.8626,1.806,1.7848,1.7609,1.7277,1.8129,1.8215,1.7016,1.6758,1.6396,1.5829,1.4924,1.4667,1.5125,1.45,1.3871,1.3251,1.3251,1.3207,1.3072,1.2943,1.272,1.2484,1.2768,1.233,1.1437,1.2102,1.1825,1.0943,1.0992,1.084,1.0467,1.0166,0.9941,0.9832,0.9862,0.9368,0.8756,0.0,0.0,0.0,0.0,0.0,0.0,0.0,0.0,0.0,0.0,2.4281,2.3842,0.0,0.0,0.0,0.0,0.0,0.0,0.0,0.0,0.0,0.0,0.0,0.0,1.9645,1.9354,1.9236,1.9367,1.9148,0.0,0.0,0.0,0.0,0.0,0.0,0.0,0.0,0.0,0.0,0.0,0.0,0.0,0.0,0.0,0.0,0.0,0.0,0.0,0.0,0.0,1.8897,1.7496,1.5799,1.5245,1.516,1.4887,1.4744,1.4628,1.4281,1.4132,1.4068,1.4037,1.5059,1.6303,1.7082,1.8658,2.0199,2.1008,2.1532,2.1855,2.1809,2.1945,2.182,2.1189,2.1104,2.0844,2.0133,1.9829,1.9401,1.8576,1.8501,1.8374,1.8022,1.8156,1.8075,1.7655,1.7838,1.7176,1.5339,1.4554,1.4252,1.4386,1.414,1.3881,1.3529,1.3522,1.331,1.2838,1.2838,1.2838,1.2791,1.2838,1.2697,1.252,1.2662,1.2473,1.2102,1.1836,1.1689,1.1579,1.1314,1.0937,1.0495,1.0341,1.0108,0.9755,0.0,0.0,0.0,0.0,0.0,0.0,0.0,2.4426,2.4753,2.4924,2.4728,2.4346,2.3764,2.321,2.2919,0.0,0.0,0.0,0.0,0.0,0.0,0.0,0.0,0.0,0.0,2.0177,1.9836,1.9432,0.0,1.9712,1.9425,1.9435,1.9656,2.0089,1.9993,2.0473,2.136,2.2084,0.0,2.3662,2.4228,2.4777,0.0,0.0,0.0,0.0,0.0,0.0,0.0,0.0,1.9812,1.7729,1.5508,1.4794,1.4776,1.4592,1.4519,1.4456,1.4301,1.4177,1.4203,1.462,1.5528,1.6727,1.8413,1.982,2.1073,2.2199,2.2427,2.2377,2.2315,2.2101,2.184,2.1603,2.1591,2.1366,2.0625,2.0281,1.9762,1.8824,1.8349,1.8059,1.7905,1.8025,1.7882,1.7385,1.7704,1.7197,1.555,1.4952,1.4672,1.4613,1.4515,1.442,1.4278,1.3967,1.3669,1.3365,1.3242,1.3057,1.2906,1.3263,1.3148,1.2696,1.2953,1.2849,1.2461,1.2162,1.2066,1.2018,1.1664,1.1367,1.1094,1.1057,1.0791,1.0495,0.0,0.0,0.0,0.0,0.0,0.0,0.0,2.4325,2.4457,2.5103,2.512,2.4865,2.4329,2.3565,2.3196,0.0,0.0,0.0,0.0,0.0,0.0,0.0,0.0,0.0,0.0,0.0,0.0,1.9767,2.0334,0.0,0.0,0.0,0.0,0.0,2.091,2.1394,2.2297,2.2709,2.3394,0.0,0.0,2.5039,0.0,0.0,0.0,0.0,0.0,0.0,0.0,0.0,2.0928,1.8922,1.6503,1.5508,1.5189,1.4869,1.4878,1.4879,1.4434,1.4203,1.4306,1.517,1.5857,1.6956,1.9414,2.0471,2.1348,2.2858,2.2868,2.2605,2.2659,2.2354,2.2091,0.0,2.2092,2.1829,2.0857,2.0377,1.9786,1.8864,1.8155,1.7772,1.7726,1.7954,1.7805,1.7084,1.7327,1.6983,1.5883,1.5477,1.5254,1.5104,1.5072,1.5025,1.4963,1.4452,1.4163,1.4065,1.3782,1.3501,1.3238,1.3756,1.3576,1.2812,1.3251,1.3113,1.2638,1.2425,1.2318,1.2282,1.1945,1.1726,1.1641,1.153,1.1315,1.102,0.0,0.0,0.0,0.0,0.0,0.0,0.0,2.4721,2.4568,2.5352,2.5401,2.5291,2.5111,2.4636,2.4281,0.0,0.0,0.0,0.0,0.0,0.0,0.0,0.0,0.0,0.0,0.0,0.0,2.1569,2.1674,0.0,0.0,0.0,0.0,0.0,0.0,2.2548,2.312,2.3637,0.0,0.0,0.0,0.0,0.0,0.0,0.0,0.0,0.0,0.0,0.0,0.0,0.0,2.1384,1.9602,1.7982,1.657,1.5882,1.6062,1.6196,1.4779,1.4252,1.4306,1.5192,1.5908,1.7007,1.9372,2.041,2.1313,2.2786,2.2995,2.2868,2.2868,2.279,2.2505,0.0,0.0,2.1292,1.9992,1.9695,1.9307,1.8618,1.84,1.8281,1.8151,1.8117,1.7946,1.7566,1.7257,1.6707,1.595,1.5739,1.558,1.5448,1.5463,1.5344,1.5178,1.4996,1.4797,1.4606,1.4227,1.413,1.4254,1.4065,1.3802,1.3446,1.3674,1.3425,1.2861,1.2791,1.2697,1.2639,1.2473,1.2318,1.208,1.1457,1.1331,1.1354,0.0,0.0,0.0,0.0,0.0,0.0,2.4954,2.4464,2.4291,2.5158,2.5312,2.5325,2.5317,2.5191,2.4964,2.4655,0.0,0.0,0.0,0.0,0.0,0.0,0.0,0.0,0.0,0.0,2.274,2.2761,2.287,0.0,0.0,0.0,0.0,0.0,0.0,2.362,2.405,2.4372,0.0,0.0,0.0,0.0,0.0,0.0,0.0,0.0,0.0,0.0,2.4369,2.3685,0.0,0.0,2.1594,2.0634,0.0,0.0,1.6977,1.6529,1.5423,1.5008,1.5088,1.5966,1.7077,1.8431,2.0271,2.1266,2.2052,2.2964,2.3095,2.2995,2.2902,2.2842,2.2712,0.0,0.0,0.0,2.182,2.216,2.1895,2.0206,1.991,1.9482,1.8533,1.8266,1.8035,1.7726,1.7997,1.793,1.7428,1.6738,1.6293,1.6172,1.6215,1.6373,1.6701,1.5931,1.5801,1.6248,1.5507,1.5048,1.4876,1.4864,1.4794,1.4755,1.439,1.4279,1.4267,1.3437,1.3207,1.3335,1.2896,1.2685,1.2614,1.2592,1.2462,1.2256,0.0,0.0,0.0,0.0,0.0,2.3495,2.4518,2.4052,2.39,2.4822,2.5026,2.5128,2.5233,2.5276,2.5272,2.5259,2.5089,0.0,0.0,0.0,0.0,0.0,0.0,0.0,0.0,0.0,2.3858,2.4081,2.397,2.3987,0.0,0.0,2.411,2.4174,0.0,0.0,0.0,0.0,0.0,0.0,0.0,0.0,0.0,0.0,0.0,0.0,0.0,0.0,0.0,0.0,0.0,0.0,0.0,0.0,0.0,0.0,1.8319,1.7599,1.6601,1.6045,1.5969,1.6886,1.8025,1.9327,2.0867,2.1792,2.2509,2.3106,2.3193,2.3144,2.307,2.302,2.2995,0.0,0.0,2.3628,2.2818,2.3503,2.3364,2.1494,2.1392,2.1005,1.9729,1.921,1.8858,1.8676,1.9138,1.9301,1.9059,1.836,1.7666,1.7008,1.6791,1.7014,1.7709,1.6901,1.6787,1.744,1.6673,1.6042,1.5535,1.5549,1.5594,1.5577,1.5117,1.5064,1.5203,1.4072,1.3792,1.401,1.3248,1.3069,1.3238,1.3288,1.3124,1.2922,0.0,0.0,0.0,0.0,0.0,0.0,2.4022,2.3524,2.3385,2.4467,2.4614,2.4675,2.4872,2.4852,2.5153,2.602,2.5545,0.0,0.0,0.0,0.0,0.0,0.0,0.0,0.0,0.0,2.4949,2.5691,2.4955,2.5061,2.5945,2.5086,2.4803,2.4985,0.0,0.0,0.0,0.0,0.0,0.0,0.0,0.0,0.0,0.0,0.0,0.0,0.0,0.0,0.0,0.0,0.0,0.0,0.0,2.3689,2.3153,0.0,2.0263,1.9917,1.8403,1.7306,1.6823,1.7841,1.8455,1.9254,2.0924,2.1711,2.2321,2.3112,2.3289,2.3313,2.3383,2.3383,2.3383,2.3383,2.3289,0.0,2.2125,2.2645,2.2814,2.1995,2.2579,2.2786,2.2031,2.1173,2.0673,2.0668,2.0627,2.0582,2.0576,2.0622,1.9816,1.7942,1.7109,1.704,1.778,1.778,1.778,1.7796,1.7579,1.7062,1.6273,1.6099,1.5862,1.5621,1.5881,1.5726,1.5235,1.4559,1.4443,1.459,1.3503,1.348,1.3985,1.3108,1.2961,1.3164,0.0,0.0,0.0,0.0,0.0,0.0,0.0,2.3192,2.3213,2.3672,2.375,2.4023,2.4679,2.4797,2.511,2.5897,2.5794,0.0,0.0,0.0,0.0,0.0,0.0,0.0,0.0,0.0,2.4948,2.5223,2.5028,2.5293,2.5976,2.5293,2.525,2.5724,2.5145,2.4919,0.0,0.0,0.0,0.0,0.0,0.0,2.5247,0.0,0.0,0.0,0.0,0.0,0.0,0.0,0.0,0.0,0.0,0.0,0.0,2.2478,2.1314,2.012,1.9632,1.8856,1.8373,1.9253,2.0407,2.146,2.1923,2.2615,2.3173,2.333,2.3407,2.3448,2.3407,2.3448,2.3448,2.3336,2.3773,0.0,2.3618,2.4399,2.4337,2.2539,2.1273,2.068,2.0953,2.0735,2.0771,2.1279,2.1859,2.2128,2.205,2.1484,2.0721,1.9712,1.8749,1.8943,2.0305,1.9152,1.9152,2.0305,1.9094,1.8236,1.7701,1.7052,1.677,1.6791,1.6346,1.6233,1.6334,1.5463,1.5213,1.5305,1.4497,1.4301,1.4477,1.4092,1.3797,1.3617,0.0,0.0,0.0,0.0,0.0,0.0,0.0,2.2321,2.2392,2.2522,2.2569,2.2933,2.3802,2.3958,2.4355,2.5326,2.5418,0.0,0.0,0.0,0.0,0.0,0.0,0.0,0.0,2.5015,2.5203,2.534,2.5333,2.5692,2.6393,2.5321,2.5157,2.5764,2.4847,2.4379,0.0,0.0,0.0,0.0,0.0,0.0,2.4503,0.0,0.0,0.0,0.0,0.0,0.0,0.0,0.0,0.0,0.0,0.0,0.0,0.0,2.193,2.086,2.096,2.0424,1.9975,2.0516,2.1556,2.2446,2.2446,2.299,2.3494,2.3424,2.343,2.356,2.3845,2.3945,2.4075,2.4331,2.451,2.4641,2.4587,2.5193,2.5099,2.3656,2.241,2.1717,2.1817,2.1887,2.2107,2.2585,2.3104,2.3363,2.3272,2.2722,2.222,2.1843,1.9891,1.9561,2.1068,1.9737,1.9559,2.0548,1.9809,1.8988,1.8103,1.7864,1.7657,1.7412,1.6964,1.6955,0.0,1.6232,1.5979,1.6124,1.524,1.5034,1.5227,1.5002,1.4803,1.4631,0.0,0.0,0.0,0.0,0.0,0.0,0.0,2.0989,2.1035,2.1157,2.1205,2.1575,2.2448,2.2551,2.3112,2.4411,0.0,0.0,0.0,0.0,0.0,0.0,0.0,0.0,2.4252,2.5044,2.5564,2.5798,2.5678,2.6083,2.6942,2.5088,2.4622,2.5265,2.4081,2.3424,0.0,0.0,0.0,0.0,2.3782,2.3451,0.0,0.0,0.0,0.0,0.0,0.0,0.0,0.0,0.0,0.0,0.0,0.0,0.0,0.0,0.0,0.0,0.0,2.1888,2.147,2.1584,2.2042,2.2475,2.2557,0.0,0.0,2.3424,2.3424,2.3679,2.4557,2.4718,2.4998,2.5877,2.5402,2.4914,2.4923,2.501,2.5054,2.5018,2.5079,2.4819,2.4063,2.4116,2.4222,2.4348,2.428,2.4227,2.4172,2.4044,2.3953,2.3934,2.059,1.9361,2.0528,1.9802,1.9354,1.9235,1.9969,1.9481,1.791,1.861,1.842,1.7629,1.7698,1.7727,1.7716,1.6816,1.6712,1.6959,1.5756,1.5675,1.6169,1.579,1.579,1.5933,0.0,0.0,0.0,0.0,0.0,0.0,0.0,0.0,0.0,0.0,2.0259,2.0822,2.179,2.2179,2.2808,0.0,0.0,0.0,0.0,0.0,0.0,0.0,0.0,0.0,2.384,2.4545,2.4807,2.4676,2.4754,2.5138,2.5764,2.4254,2.4196,2.5285,2.3075,2.2101,0.0,0.0,0.0,0.0,2.3043,2.2639,0.0,0.0,0.0,0.0,2.1339,2.154,0.0,0.0,0.0,0.0,0.0,0.0,0.0,0.0,2.2073,2.2183,2.2384,0.0,2.1963,2.2627,2.2952,2.3117,0.0,0.0,0.0,0.0,0.0,2.3749,2.4622,2.4334,2.4217,2.4967,2.5018,2.4791,2.4235,2.3965,2.3911,2.4138,2.3057,2.2697,2.3815,2.3367,2.353,2.482,2.4851,2.4511,2.3851,2.3116,2.294,2.3368,2.1476,2.096,2.2075,2.1084,2.0827,2.1306,2.1429,2.1201,2.0632,1.9659,1.899,1.8626,1.8078,1.7688,1.7404,1.7168,1.7065,1.6981,1.6459,1.6385,1.6454,1.6099,1.5905,1.5836,0.0,0.0,0.0,0.0,0.0,0.0,0.0,0.0,0.0,0.0,0.0,1.9136,2.0259,2.0557,0.0,0.0,0.0,0.0,0.0,0.0,0.0,0.0,0.0,2.3042,2.3232,2.3852,2.4039,2.3799,2.42,2.4421,2.4459,2.361,2.3566,2.415,2.2343,2.1682,0.0,0.0,0.0,2.2258,2.1952,0.0,0.0,0.0,0.0,0.0,2.0663,2.0861,0.0,2.1166,2.1276,2.1401,0.0,0.0,0.0,0.0,2.194,2.2181,2.2198,2.2228,2.2352,2.2923,2.3168,2.3265,2.3336,0.0,0.0,0.0,0.0,0.0,2.4669,2.4856,2.5104,2.5899,2.5943,2.5516,2.4497,2.4193,2.3891,2.3373,2.2789,2.2664,2.3261,2.3247,2.374,2.5061,2.5076,2.4848,2.436,2.3859,2.3539,2.3427,2.2276,2.1797,2.2097,2.1532,2.1179,2.104,2.1746,2.1617,2.0708,2.028,1.9708,1.9018,1.8614,1.8268,1.7937,1.793,1.7617,1.7126,1.6968,1.6926,1.691,1.6706,1.6716,1.6761,0.0,0.0,0.0,0.0,0.0,0.0,0.0,0.0,0.0,0.0,0.0,0.0,0.0,0.0,0.0,0.0,0.0,0.0,0.0,0.0,0.0,0.0,0.0,2.1834,2.2372,2.2964,2.3179,2.2968,2.366,2.3702,2.317,2.2885,2.2572,2.2195,2.168,2.1591,0.0,2.1338,2.1382,2.1772,2.0874,0.0,0.0,0.0,0.0,0.0,0.0,0.0,0.0,2.046,2.0628,2.0794,2.0877,0.0,0.0,0.0,0.0,0.0,2.1882,2.2164,2.2546,2.2799,2.302,2.3193,2.3217,0.0,0.0,0.0,0.0,0.0,0.0,2.5574,0.0,2.7396,2.711,2.6367,2.5256,2.5025,2.4423,2.301,2.3305,2.3362,2.2675,2.3277,2.4083,2.4943,2.5061,2.5056,2.4922,2.4905,2.4455,2.3537,2.2785,2.2098,2.1441,2.1584,2.1168,2.0209,2.1682,2.1601,2.0154,2.0659,2.0276,1.9194,1.9117,1.8904,1.8643,1.8622,1.8133,1.7351,1.737,1.7345,1.7313,1.737,1.7646,1.7917,0.0,0.0,0.0,0.0,0.0,0.0,0.0,0.0,0.0,0.0,0.0,0.0,0.0,0.0,0.0,0.0,0.0,0.0,0.0,0.0,0.0,2.0077,2.0699,2.0994,2.092,2.1733,2.2062,2.1948,2.2271,2.2347,2.2114,2.1379,2.055,1.9625,2.0735,2.1055,2.0712,2.0697,2.088,2.1181,2.0688,0.0,0.0,0.0,0.0,0.0,0.0,0.0,0.0,2.0342,2.0561,2.0744,2.0877,0.0,0.0,0.0,0.0,0.0,2.1751,2.1869,2.2044,2.2508,2.2876,2.3144,0.0,0.0,0.0,0.0,0.0,0.0,0.0,2.5415,2.5633,2.746,2.6842,2.6118,2.6007,2.5558,2.4898,2.3986,2.3285,2.2815,2.27,2.2805,2.3225,2.4047,2.4717,2.4808,2.4114,2.3973,2.3499,2.2622,2.247,2.1966,2.1096,2.1697,2.1853,2.1527,2.2392,2.2553,2.203,2.086,2.008,1.9661,1.9161,1.8746,1.8432,1.8253,1.7971,1.7642,1.7625,1.7512,1.7338,1.7698,1.7833,1.7856,0.0,0.0,0.0,0.0,0.0,0.0,0.0,0.0,0.0,0.0,0.0,0.0,0.0,0.0,0.0,0.0,0.0,0.0,0.0,0.0,1.8632,1.859,1.9115,1.9707,2.0404,2.0744,2.0793,2.0651,2.1069,2.0894,2.0199,2.0127,1.9847,1.9475,2.0218,2.0354,1.9997,2.0092,2.0367,2.0703,0.0,0.0,0.0,0.0,0.0,0.0,0.0,0.0,0.0,0.0,2.022,2.0426,2.0745,0.0,0.0,0.0,0.0,0.0,2.1664,2.1873,2.2135,2.2326,2.2375,2.2435,0.0,0.0,0.0,0.0,0.0,0.0,0.0,2.494,2.4884,2.6075,2.6094,2.5868,2.569,2.5321,2.4839,2.413,2.3629,2.336,2.34,2.34,2.3735,2.4539,2.4988,2.5034,2.4621,2.4549,2.411,2.3244,2.3206,2.2759,2.1815,2.2547,2.2589,2.1977,2.3223,2.3268,2.2225,2.1983,2.1187,2.0027,2.0228,1.9866,1.9112,1.8994,1.8586,1.8017,1.7971,1.7919,1.7898,1.8255,1.8211,1.8018,0.0,0.0,0.0,0.0,0.0,0.0,0.0,0.0,0.0,0.0,0.0,0.0,0.0,0.0,0.0,0.0,0.0,0.0,0.0,0.0,1.7799,1.7656,1.792,1.8632,1.9838,1.9533,1.9371,1.9371,1.9671,1.9443,1.8707,1.9226,1.9443,1.9468,1.9648,1.9643,1.95,1.9604,1.9914,2.0333,0.0,0.0,0.0,0.0,0.0,0.0,0.0,0.0,0.0,0.0,0.0,0.0,0.0,0.0,0.0,2.1246,2.1495,2.1617,2.1634,2.1903,2.2141,2.2071,0.0,0.0,0.0,0.0,0.0,0.0,0.0,0.0,0.0,2.4915,2.4836,2.4912,2.5542,2.583,2.5327,2.5115,2.4762,2.4091,2.3974,2.3898,2.3736,2.39,2.4188,2.4619,2.4859,2.4985,2.4926,2.4915,2.4615,2.3927,2.3896,2.345,2.25,2.3239,2.3239,2.2458,2.3715,2.3612,2.2353,2.2815,2.2152,2.0676,2.1349,2.0989,1.9918,1.9915,1.9319,1.8439,1.838,1.8399,1.8457,1.8699,1.8606,1.8395,0.0,0.0,0.0,0.0,0.0,0.0,0.0,0.0,0.0,0.0,0.0,0.0,0.0,0.0,0.0,0.0,0.0,0.0,0.0,0.0,1.7645,1.7523,1.7799,1.8127,1.8518,1.7909,1.7733,1.8029,1.7863,1.7996,1.8377,1.8797,1.8821,1.8436,1.8857,1.9146,1.9239,1.9239,1.9604,2.022,2.0471,0.0,0.0,0.0,0.0,0.0,0.0,0.0,0.0,0.0,0.0,0.0,0.0,0.0,2.0777,2.1103,2.1309,2.1479,2.1738,2.1827,2.1819,2.167,2.221,0.0,2.2304,2.2861,0.0,2.2874,0.0,0.0,0.0,2.5961,2.6189,2.4936,2.5587,2.6065,2.5466,2.537,2.5052,2.4195,2.409,2.3781,2.2964,2.361,2.3774,2.3024,2.3726,2.4168,2.4082,2.4082,2.4023,2.3892,2.3908,2.345,2.25,2.3284,2.3642,2.3493,2.3487,2.3427,2.3278,2.2537,2.21,2.1965,2.2021,2.1513,2.0625,2.0565,1.9873,1.8858,1.8842,1.8842,1.8842,1.8807,1.893,1.9135,0.0,0.0,0.0,0.0,0.0,0.0,0.0,0.0,0.0,0.0,0.0,0.0,0.0,0.0,0.0,0.0,0.0,0.0,0.0,1.6054,1.6503,1.6332,1.6899,1.7357,1.7634,1.7303,1.6905,1.6428,1.6525,1.6775,1.7146,1.7936,1.8063,1.7679,1.8205,1.8398,1.8387,1.8506,1.9016,1.9837,2.0093,2.0306,0.0,0.0,0.0,0.0,0.0,0.0,0.0,0.0,1.9904,2.0235,2.0595,2.086,2.1103,2.1277,2.1495,2.1631,2.1648,2.1595,2.1566,2.1844,2.2039,0.0,0.0,2.2373,2.2919,2.2827,2.3744,0.0,0.0,2.5221,2.5887,2.4385,2.5042,2.5659,2.5434,2.5404,2.528,2.4954,2.4915,2.478,2.4441,2.4221,2.3953,2.3625,2.3416,2.3522,2.4024,2.4053,2.4255,2.4692,2.472,2.4511,2.4112,2.4385,2.4504,2.4477,2.4341,2.3986,2.3472,2.3694,2.3161,2.2133,2.2671,2.2395,2.157,2.1544,2.0936,1.9968,1.9413,1.9198,1.9148,1.9166,1.9166,1.9219,0.0,0.0,0.0,0.0,0.0,0.0,0.0,0.0,0.0,0.0,0.0,0.0,0.0,0.0,0.0,0.0,0.0,0.0,1.4316,1.5282,1.5748,1.57,1.6285,1.662,1.674,1.6688,1.6339,1.5679,1.5903,1.6276,1.6744,1.7526,1.7727,1.7474,1.7827,1.7975,1.7897,1.8018,1.8536,1.9319,1.9631,2.0027,0.0,0.0,0.0,0.0,0.0,0.0,0.0,0.0,1.9975,2.0339,2.0677,2.099,2.1246,2.1355,2.1631,2.184,2.1768,2.1715,2.1755,0.0,0.0,0.0,2.1165,2.2,2.2815,2.2593,2.34,2.4026,2.3597,2.4676,2.5319,2.4388,2.4889,2.5404,2.5437,2.5437,2.5332,2.5054,2.5015,2.4927,2.4672,2.4076,2.3617,2.3365,2.2771,2.2794,2.3664,2.3704,2.4178,2.5234,2.5222,2.5187,2.5118,2.5063,2.5012,2.5004,2.4917,2.4544,2.3926,2.4527,2.4122,2.2993,2.3555,2.3315,2.2518,2.2525,2.198,2.1087,2.0455,2.0203,2.0151,1.9911,1.9758,1.9641,0.0,0.0,0.0,0.0,0.0,0.0,0.0,0.0,0.0,0.0,0.0,0.0,0.0,0.0,0.0,0.0,0.0,0.0,1.4836,1.5303,1.5661,1.5864,1.5989,1.6002,1.5802,1.5792,1.5903,1.6092,1.6092,1.658,1.7523,1.7788,1.7897,1.7909,1.7755,1.7755,1.7897,1.805,1.8267,1.8614,1.9028,1.9436,1.9775,0.0,0.0,0.0,0.0,0.0,0.0,0.0,1.9854,2.0339,2.0626,2.0876,2.1151,2.1355,2.1675,2.2027,2.2096,2.2337,2.2452,0.0,0.0,0.0,2.0328,2.1857,2.3163,2.2061,2.3033,2.4192,2.4535,2.4595,2.4733,2.5138,2.5302,2.5412,2.5488,2.548,2.517,2.4295,2.4186,2.3876,2.3076,2.2927,2.2572,2.1759,2.1643,2.1984,2.2847,2.2832,2.3608,2.534,2.5271,2.5187,2.5187,2.5132,2.507,2.4993,2.5004,2.4917,2.4794,2.4802,2.4806,2.4806,2.4723,2.4223,2.3409,2.3397,2.2899,2.2107,2.2024,2.2039,2.1995,2.1068,2.0723,2.0596,0.0,0.0,0.0,0.0,0.0,0.0,0.0,0.0,0.0,0.0,0.0,0.0,0.0,0.0,0.0,0.0,0.0,0.0,1.3102,1.3505,1.3923,1.4497,1.4961,1.5548,1.6136,1.6374,1.6306,1.5888,1.5774,1.6131,1.6797,1.7357,1.77,1.7755,1.7799,1.7854,1.7897,1.7952,1.8213,1.8685,1.9069,1.9592,2.0181,0.0,0.0,0.0,0.0,0.0,0.0,0.0,0.0,0.0,2.0909,2.1247,2.1511,2.1735,2.1911,2.2068,2.2368,2.195,0.0,2.1709,0.0,0.0,0.0,2.1464,0.0,0.0,2.397,2.4372,2.4567,2.4289,2.4295,2.506,2.4829,2.4548,2.459,2.4585,2.4263,2.3398,2.3334,2.3256,2.3023,2.2429,2.1952,2.1725,2.1643,2.1984,2.284,2.3427,2.4214,2.5303,2.5282,2.5228,2.5137,2.5113,2.5095,2.507,2.5076,2.5004,2.487,2.4875,2.4842,2.4798,2.4783,2.4618,2.4328,2.3655,2.3247,2.2948,2.2327,2.2085,2.2077,2.1786,2.1678,2.1566,0.0,0.0,0.0,0.0,0.0,0.0,0.0,0.0,0.0,0.0,1.3424,1.3357,0.0,0.0,0.0,1.3025,1.267,0.0,1.262,1.2762,1.3193,1.3987,1.4495,1.5253,1.6285,1.6525,1.6514,1.6404,1.6249,1.6455,1.6982,1.7335,1.759,1.7755,1.781,1.7909,1.8061,1.7813,1.804,1.8661,1.8589,1.916,1.9991,0.0,0.0,0.0,0.0,0.0,0.0,0.0,0.0,0.0,0.0,0.0,2.1768,2.2027,2.2209,2.2378,2.2356,2.1931,0.0,2.1256,2.0747,2.028,2.0281,0.0,0.0,0.0,2.3925,2.4126,2.4705,2.4518,2.4547,2.5206,2.4698,2.4196,2.4196,2.3895,2.336,2.2527,2.2456,2.2369,2.2031,2.1831,2.1704,2.1704,2.1965,2.2501,2.3364,2.3848,2.4482,2.5313,2.5312,2.5261,2.5184,2.5149,2.5132,2.5095,2.5101,2.5057,2.4972,2.4945,2.4903,2.4842,2.4808,2.4798,2.4753,2.4185,2.3945,2.387,2.3337,2.3131,2.309,2.2738,2.2626,2.2499,0.0,0.0,1.1796,1.1514,0.0,0.0,0.0,0.0,0.0,1.2986,1.2881,1.2915,0.0,0.0,0.0,1.3042,1.2738,1.263,1.292,1.284,1.3185,1.4054,1.4458,1.5113,1.6285,1.6337,1.6667,1.7278,1.7046,1.7218,1.7711,1.759,1.7634,1.7909,1.781,1.7963,1.8274,1.7588,1.7728,1.8384,1.7816,1.8298,1.9288,1.8814,0.0,0.0,0.0,0.0,0.0,0.0,0.0,0.0,2.2134,2.2241,2.2041,2.2198,2.2502,2.2691,2.2177,2.2091,0.0,2.0626,2.033,0.0,2.0569,2.0504,2.0952,2.2852,2.3294,2.3686,2.4793,2.493,2.4966,2.5221,2.4532,2.3964,2.3964,2.3288,2.2488,2.1688,2.1651,2.1401,2.0682,2.1342,2.1823,2.1812,2.2559,2.3353,2.4166,2.4212,2.4593,2.5382,2.5332,2.5321,2.5292,2.5236,2.518,2.5125,2.5107,2.5114,2.5101,2.5037,2.4964,2.4917,2.4842,2.4798,2.4806,2.4806,2.4757,2.4707,2.4707,2.4707,2.4613,2.3814,2.3517,2.339,0.0,0.0,1.1915,1.244,0.0,0.0,0.0,0.0,1.2703,1.3102,1.3405,1.3554,1.345,1.3398,0.0,1.3588,1.2903,1.2518,1.2685,1.2537,1.2717,1.3295,1.4705,1.5746,1.6363,1.6768,1.7102,1.7278,1.6819,1.6992,1.7711,1.7645,1.781,1.8084,1.803,1.7867,1.7594,1.7427,1.7323,1.7245,1.7576,1.8214,1.8995,1.9585,2.0096,0.0,0.0,0.0,0.0,0.0,0.0,0.0,2.2688,2.2698,2.2678,2.2661,2.2348,2.203,2.2325,2.1578,0.0,0.0,2.0071,1.9653,1.9792,1.9806,2.0485,2.2932,2.3531,2.3739,2.4157,2.3688,2.3275,2.3423,2.2731,2.2163,2.2163,2.2043,2.164,2.0776,2.1288,2.1639,2.1459,2.2211,2.273,2.2724,2.347,2.3992,2.4186,2.4834,2.5255,2.5395,2.5397,2.5341,2.5303,2.5222,2.519,2.5179,2.5172,2.5144,2.5088,2.5038,2.4985,2.4977,2.4917,2.487,2.4856,2.4827,2.4798,2.4783,2.4772,2.4791,2.4738,2.4501,2.441,2.4317,0.0,0.0,0.0,0.0,0.0,0.0,0.0,0.0,1.2689,1.2954,1.3322,1.3499,1.3372,1.3313,0.0,0.0,1.2513,1.2255,1.2602,1.2511,1.2982,1.4096,1.5249,1.6124,1.6694,1.6965,1.7245,1.7501,1.7224,1.7279,1.759,1.7656,1.7632,1.7546,1.7771,1.7601,1.7217,1.728,1.7369,1.752,1.7831,1.8345,1.8995,1.972,1.9996,2.0143,2.0755,0.0,0.0,0.0,0.0,0.0,0.0,0.0,2.3029,2.2901,2.2681,2.2365,2.2139,0.0,0.0,2.0325,0.0,1.9585,1.9743,1.9821,2.0339,2.2121,2.2551,2.2887,2.3823,2.3342,2.2827,2.2898,2.2163,2.1603,2.1636,2.1332,2.0903,2.0452,2.0822,2.1284,2.1658,2.2483,2.317,2.3597,2.4381,2.4818,2.4818,2.5248,2.5484,2.5459,2.5432,2.5387,2.5351,2.5313,2.5283,2.5243,2.525,2.5214,2.5156,2.5082,2.5044,2.505,2.5018,2.4991,2.495,2.4903,2.4856,2.4794,2.4798,2.4802,2.4798,2.4837,2.4837,2.4724,0.0,0.0,0.0,0.0,0.0,0.0,0.0,0.0,0.0,1.2721,1.3011,1.3223,1.3154,1.3096,1.2874,0.0,0.0,0.0,1.2497,1.2654,1.3559,1.5356,1.5853,1.6389,1.7011,1.7067,1.7301,1.7656,1.7677,1.7665,1.7623,1.7611,1.7452,1.7115,1.752,1.7412,1.6982,1.7225,1.7552,1.7879,1.7975,1.8374,1.8931,1.933,1.9602,1.9819,2.0268,2.1099,2.197,2.1983,0.0,0.0,0.0,0.0,2.3236,2.3232,2.3168,2.2927,2.2205,0.0,2.1173,2.007,1.9786,0.0,2.0172,2.0174,2.0441,2.1636,2.1634,2.1882,2.3313,2.3102,2.2634,2.2501,2.1855,2.1411,2.1469,2.0853,2.0418,2.0399,2.057,2.1032,2.1847,2.271,2.3597,2.4471,2.5001,2.5348,2.5483,2.5352,2.5337,2.5492,2.5456,2.5421,2.5423,2.5416,2.537,2.5322,2.5312,2.5261,2.5214,2.5156,2.5126,2.5101,2.5101,2.5076,2.5023,2.5023,2.4959,2.4879,2.4865,2.4861,2.4869,2.4987,2.5019,2.4962,0.0,0.0,0.0,0.0,0.0,0.0,0.0,0.0,0.0,0.0,1.3064,1.3322,1.3072,1.3038,1.2874,1.259,1.2109,1.192,1.214,0.0,0.0,1.5924,1.6083,1.6389,1.7011,1.7412,1.759,1.7534,1.7649,1.7797,0.0,0.0,1.7573,1.7958,1.7955,1.7525,1.6869,1.7591,1.7395,1.6658,1.717,1.7703,1.8304,1.855,1.9403,2.053,2.1194,2.1953,2.2738,2.3134,2.3349,0.0,0.0,0.0,2.3465,2.3981,2.3401,2.2749,0.0,0.0,2.0928,0.0,1.9888,2.0202,0.0,2.0679,2.0803,2.3311,2.2612,2.1647,2.1874,2.1894,2.1617,2.0868,2.0648,2.0563,2.0563,2.0526,2.0464,2.0415,2.1075,2.187,2.2749,2.3605,2.4491,2.5363,2.4762,2.4691,2.5453,2.4774,2.4721,2.5476,2.5492,2.5484,2.5484,2.5423,2.5406,2.5397,2.5332,2.5302,2.529,2.529,2.5214,2.5101,2.5101,2.5101,2.5089,2.5089,2.5113,2.5138,2.5077,2.5102,2.5147,2.5165,2.5163,2.5171,0.0,0.0,0.0,0.0,0.0,0.0,0.0,0.0,0.0,0.0,0.0,1.3485,1.3385,1.3002,1.2668,1.234,1.1852,1.1714,1.2193,1.3168,1.4232,1.5491,1.5924,1.6446,1.7234,1.7479,1.77,1.803,1.7792,0.0,0.0,1.749,1.7296,0.0,0.0,1.7511,1.6788,1.7745,1.7867,1.7581,1.8449,1.8694,1.8706,1.9436,1.9615,1.9614,2.0854,2.1477,2.1843,2.2267,2.2873,2.337,2.264,0.0,0.0,0.0,2.3809,2.3079,2.2922,2.2017,2.0944,0.0,2.0432,2.0927,2.1482,2.1633,2.2002,2.3222,2.2894,2.2378,2.2346,2.1578,2.0849,2.0468,2.0402,2.0418,2.0454,2.0483,2.0663,2.1085,2.1468,2.2239,2.3609,2.4082,2.4471,2.4851,2.4484,2.4206,2.4096,2.4154,2.4154,2.405,2.4984,2.5267,2.4776,2.5224,2.544,2.5404,2.5369,2.5361,2.5361,2.5322,2.525,2.5168,2.5168,2.5125,2.5088,2.5141,2.5179,2.5192,2.5206,2.5236,2.5263,2.5346,2.5346,2.526,0.0,0.0,0.0,0.0,0.0,0.0,0.0,0.0,0.0,0.0,0.0,1.3588,1.3645,0.0,0.0,0.0,1.1653,1.1634,1.2375,1.3304,1.4181,1.5049,1.5695,1.6448,1.7346,1.74,1.7727,1.833,0.0,0.0,1.8314,1.7663,1.7288,0.0,1.7775,1.7557,0.0,0.0,0.0,1.8412,1.9345,1.9486,1.9099,1.9768,1.9558,1.9102,2.0541,2.103,2.1146,2.1859,2.2499,2.2866,2.2448,2.2676,0.0,0.0,0.0,0.0,0.0,0.0,2.1593,2.0779,2.1196,2.1809,2.1985,2.2474,2.3033,2.3489,2.3276,2.3043,2.3218,2.1868,2.0737,2.0737,2.0554,2.0434,2.0493,2.0691,2.1041,2.1643,2.1905,2.2619,2.4139,2.4294,2.4391,2.4605,2.4424,2.4108,2.3681,2.4012,2.4038,2.3605,2.4825,2.5197,2.4544,2.5155,2.5456,2.5401,2.5404,2.5406,2.5407,2.5369,2.5313,2.5243,2.5201,2.5168,2.5157,2.5194,2.5245,2.5274,2.5335,2.5348,2.5391,2.5493,2.5499,2.5376,0.0,0.0,0.0,0.0,0.0,0.0,0.0,0.0,0.0,0.0,0.0,1.3433,1.3407,1.3061,1.2625,1.2316,1.1806,1.1837,1.2645,1.2761,1.3428,1.4955,1.556,0.0,1.6994,1.7176,1.7491,0.0,0.0,0.0,1.8401,1.8112,1.7943,1.7836,1.7874,1.767,1.7368,0.0,0.0,0.0,0.0,1.9229,1.9395,1.8563,1.8869,1.9872,2.0834,2.1132,2.1372,2.3152,2.2729,2.1614,2.2775,2.2898,2.2868,0.0,0.0,0.0,0.0,2.3967,0.0,2.1722,2.2095,2.2847,2.2921,2.2914,2.3392,2.5105,2.4148,2.325,2.4082,2.2813,2.1634,2.1634,2.0983,2.0506,2.0506,2.1219,2.1749,2.1794,2.2474,2.3286,2.4208,2.4305,2.4635,2.5465,2.476,2.4644,2.5426,2.4729,2.4639,2.5421,2.5483,2.5472,2.5434,2.541,2.5401,2.5401,2.5401,2.5412,2.5395,2.5456,2.5444,2.5371,2.5254,2.5225,2.5292,2.5284,2.5363,2.549,2.5498,2.5521,2.5595,2.558,2.5595,2.5586,0.0,0.0,0.0,0.0,0.0,0.0,0.0,0.0,0.0,0.0,0.0,0.0,0.0,1.339,1.309,1.2959,1.2466,1.224,1.2529,1.3077,1.3878,1.5018,1.5754,1.6623,1.7583,1.7436,1.7693,0.0,0.0,1.7619,1.8323,1.7975,1.7919,1.8084,1.8283,1.8371,1.85,1.9197,0.0,0.0,0.0,1.9968,1.9558,2.001,2.007,2.0042,2.0599,2.1069,2.1532,2.2339,2.276,2.2996,2.3109,2.3266,2.3511,2.3927,0.0,0.0,0.0,0.0,0.0,2.3371,2.3438,2.3891,2.4471,2.4594,2.4768,2.5459,2.5094,2.4764,2.5083,2.3257,2.1698,2.1691,2.1023,2.0506,2.0506,2.1246,2.2006,2.2566,2.2896,2.3616,2.4992,2.4637,2.4438,2.4743,2.4471,2.4194,2.3931,2.4178,2.4185,2.3947,2.4995,2.5529,2.5511,2.544,2.5404,2.5404,2.5441,2.5464,2.5476,2.5531,2.5543,2.5518,2.5432,2.5372,2.5379,2.5467,2.551,2.5571,2.5613,2.5636,2.5668,2.5664,2.5664,2.557,0.0,0.0,0.0,0.0,0.0,0.0,0.0,0.0,0.0,0.0,0.0,0.0,0.0,0.0,1.3387,1.313,1.278,1.2578,1.2618,1.3204,1.3891,1.4723,1.5708,1.6607,1.7463,1.7433,0.0,0.0,0.0,0.0,0.0,1.8031,1.7962,1.8256,1.847,1.8601,0.0,0.0,0.0,1.9854,2.0255,2.0088,1.9695,2.0133,1.9998,1.9682,2.021,2.0589,2.102,2.192,2.2508,2.2969,2.3496,2.379,2.4025,0.0,0.0,0.0,2.4864,0.0,0.0,0.0,2.4973,2.5382,2.5122,2.5524,2.5868,2.5643,2.56,2.5601,2.56,2.3707,2.2142,2.2131,2.1212,2.0494,2.0498,2.1506,2.245,2.3026,2.3369,2.4081,2.5479,2.4832,2.4457,2.472,2.4734,2.4471,2.3903,2.4416,2.4463,2.3863,2.4969,2.5543,2.5511,2.5464,2.5426,2.5437,2.5511,2.5538,2.5544,2.5581,2.56,2.561,2.558,2.5522,2.5471,2.5566,2.5613,2.5648,2.5687,2.5698,2.5703,2.5704,2.5704,2.5618,0.0,0.0,0.0,0.0,0.0,0.0,0.0,0.0,0.0,1.4171,0.0,0.0,0.0,0.0,0.0,1.292,1.2822,1.2783,1.2803,1.3084,1.3467,1.3984,1.5373,1.6306,1.6731,1.713,0.0,0.0,0.0,0.0,0.0,0.0,1.8121,1.8305,1.8425,1.8282,1.7963,0.0,1.936,1.9686,1.9362,1.9488,1.9724,1.8753,1.8515,1.8816,1.958,1.9734,1.9909,2.2079,2.2032,2.1468,2.393,2.4486,0.0,0.0,0.0,0.0,0.0,0.0,0.0,2.551,2.6622,2.7248,2.4883,2.5621,2.6579,2.5803,2.5639,2.5622,2.5602,2.4194,2.3049,2.3046,2.1619,2.0502,2.0508,2.1975,2.3062,2.3107,2.3848,2.4686,2.5511,2.4869,2.4728,2.5532,2.5595,2.5599,2.5599,2.5607,2.557,2.5499,2.5499,2.5505,2.5499,2.5499,2.5499,2.5499,2.5568,2.5604,2.5604,2.5598,2.5597,2.5616,2.5666,2.5659,2.5601,2.56,2.5644,2.5701,2.5701,2.5701,2.5701,2.5701,2.5703,2.5709,0.0,0.0,0.0,0.0,0.0,0.0,1.4858,1.4348,1.4206,0.0,0.0,0.0,1.461,1.4516,1.438,1.4195,1.4146,1.4021,1.3699,1.3905,1.4337,1.4923,1.5946,1.6818,1.7471,1.8165,1.877,0.0,0.0,1.8559,1.8961,1.8559,1.8307,1.8228,1.8439,1.8386,1.8242,1.9055,1.946,1.96,2.0002,1.9642,1.8956,1.9521,1.928,1.8656,1.8936,1.9798,2.0891,2.1358,2.2786,2.4465,2.5023,0.0,0.0,0.0,0.0,0.0,2.5265,0.0,0.0,0.0,0.0,0.0,2.7755,2.7365,2.6804,2.6581,2.6534,2.6348,2.5722,2.4686,2.3932,2.3942,2.2006,2.0498,2.0494,2.1465,2.2398,2.3026,2.3318,2.4033,2.552,2.4896,2.4729,2.5546,2.561,2.5595,2.5604,2.56,2.5591,2.5571,2.5561,2.5565,2.557,2.5522,2.5498,2.5493,2.5563,2.5593,2.5593,2.5654,2.5659,2.5661,2.5687,2.5685,2.5679,2.5679,2.5683,2.5709,2.5707,2.5691,2.5696,2.5696,2.5699,2.5604,0.0,0.0,1.5564,1.5282,0.0,1.5352,1.5296,1.473,1.4671,0.0,0.0,0.0,1.5207,1.5239,1.5103,1.481,1.4789,1.4585,1.4125,1.4384,1.468,1.5015,1.6244,1.7223,1.7757,1.8709,1.949,2.01,1.9521,1.9482,1.9989,1.9488,1.9276,1.9317,1.9452,1.9478,1.9397,1.9955,2.0085,1.9891,1.9657,1.9326,1.9031,1.9165,1.8794,1.8208,1.8333,1.9061,1.9996,2.015,2.2126,2.4425,2.4069,2.3821,2.3629,2.3736,0.0,0.0,0.0,0.0,0.0,2.7708,0.0,0.0,2.8229,2.7776,2.7187,2.652,2.6385,2.6206,2.5687,2.4895,2.43,2.4291,2.2749,2.1432,2.1088,2.1791,2.2539,2.3045,2.3417,2.4179,2.5561,2.4917,2.4757,2.5581,2.5648,2.5636,2.5598,2.5593,2.56,2.56,2.5606,2.5593,2.5593,2.5595,2.5573,2.5531,2.5607,2.5633,2.5634,2.5676,2.5697,2.5694,2.5694,2.5497,2.5164,2.5151,2.5366,2.5655,2.5308,2.5155,2.5156,2.5136,2.5134,2.5129,0.0,0.0,1.5981,1.593,1.5769,1.5744,1.6087,1.5352,1.5163,0.0,1.5919,1.5731,1.6129,1.5983,1.564,1.5066,1.4979,1.4742,1.4302,1.4603,1.4832,1.4832,1.6455,1.7509,1.7725,1.8984,2.0118,2.1135,2.0361,2.049,2.1364,2.0684,2.0513,2.0691,2.0746,2.0746,2.0746,2.0921,2.0799,2.031,1.8974,1.8921,1.9491,1.8228,1.7666,1.7547,1.7749,1.7967,1.8273,1.9104,2.0801,2.2513,2.2293,2.3074,2.4025,2.3804,2.391,0.0,0.0,0.0,0.0,2.7631,2.8847,0.0,2.7456,2.745,2.7478,2.6115,2.5781,2.5718,2.5632,2.4963,2.4441,2.4441,2.3718,2.2877,2.2057,2.2619,2.3141,2.323,2.394,2.4745,2.5625,2.4999,2.4863,2.5644,2.5702,2.5677,2.5609,2.5609,2.5609,2.5605,2.5611,2.5611,2.5603,2.5677,2.5661,2.5619,2.5663,2.5703,2.5703,2.5605,2.5547,2.5545,2.5545,2.5095,2.4391,2.4394,2.4785,2.5327,2.455,2.4293,2.4387,2.4313,2.4397,2.4641,1.4518,1.5246,1.5702,1.5628,1.6109,1.6359,1.5879,1.5954,1.6294,1.6956,1.6621,1.6479,1.6994,1.6242,1.5628,1.5644,1.5384,1.5089,1.4754,1.5347,1.5716,1.5822,1.7098,1.7869,1.8024,1.9507,2.0455,2.0797,2.1049,2.1037,2.0756,0.0,0.0,1.9526,1.9631,1.9683,1.9683,1.9804,1.9901,1.9989,1.9905,1.9572,1.8973,1.8333,1.7678,1.7068,1.732,1.7864,1.876,2.0516,2.1046,2.1257,2.3058,2.3119,2.2792,2.4162,2.4345,2.421,2.47,2.5612,2.664,2.7498,2.7524,0.0,2.8559,2.7884,2.6968,2.6724,2.6669,2.6445,2.5808,2.5509,2.5368,2.5426,2.4701,2.3813,2.2896,2.2952,2.3357,2.4062,2.4303,2.4748,2.5613,2.5556,2.5521,2.5683,2.57,2.5672,2.5603,2.5654,2.568,2.5681,2.5683,2.5683,2.5681,2.5699,2.5699,2.568,2.5681,2.5702,2.5683,2.4961,2.4628,2.4566,2.4564,2.4479,2.4327,2.433,2.4032,2.3593,2.3369,2.3696,2.4319,2.429,2.4748,2.5387,1.4631,1.535,1.5866,1.5745,1.6339,1.6822,1.6685,1.6623,1.6949,1.7774,1.776,1.7733,1.7952,1.7187,1.6593,1.6334,1.6196,1.5978,1.5637,1.6279,1.6776,1.6979,1.7944,1.8712,1.9128,2.0321,2.1164,2.1537,2.1575,2.1469,0.0,0.0,0.0,0.0,2.0472,2.0765,2.1195,2.1233,2.1175,2.0956,1.9964,1.9327,1.8887,1.8219,1.7715,1.7361,1.7448,1.787,1.8523,1.9545,2.0454,2.1246,2.2218,2.29,2.3476,2.4154,2.4288,2.4248,2.4446,2.5305,2.6294,2.6822,2.74,0.0,0.0,2.8321,2.7815,2.7015,2.6876,2.664,2.5853,2.5657,2.5613,2.5632,2.5274,2.499,2.4947,2.4257,2.3902,2.4358,2.4743,2.5161,2.5616,2.5639,2.5657,2.5696,2.5701,2.5683,2.5644,2.5684,2.5703,2.5702,2.5699,2.5696,2.5694,2.5696,2.5696,2.5694,2.5698,2.5464,2.5047,2.456,2.4085,2.3659,2.3656,2.3413,2.303,2.3443,2.2867,2.1798,2.2202,2.2627,2.3053,2.348,2.3932,2.4413,1.4743,1.5475,1.6079,1.6043,1.6627,1.7264,1.7749,1.7525,1.762,1.8602,1.8786,1.8786,1.8667,1.8059,1.7467,1.6982,1.6917,1.6765,1.6572,1.7289,1.7786,1.8024,1.875,1.9409,1.9873,2.0683,2.1416,2.2107,2.1683,0.0,0.0,0.0,0.0,0.0,0.0,0.0,0.0,2.2647,2.2284,2.1541,1.967,1.8981,1.8929,1.8059,1.7772,1.7811,1.7772,1.79,1.8126,1.8508,1.9883,2.1496,2.1759,2.3021,2.439,2.4313,2.4333,2.4339,2.4358,2.5096,2.5953,2.6341,2.7542,2.851,0.0,0.0,0.0,2.7114,2.6869,2.6678,2.5857,2.5668,2.5668,2.5843,2.587,2.6178,2.705,2.5987,2.5134,2.5134,2.541,2.5673,2.5834,2.5857,2.582,2.5715,2.5854,2.5878,2.5712,2.5694,2.5694,2.5694,2.5696,2.5696,2.5696,2.5697,2.5618,2.5457,2.5437,2.4961,2.4118,2.3901,2.3494,2.2974,2.2799,2.2503,2.2202,2.2685,2.2177,2.115,2.1536,2.1784,2.2032,2.2732,2.3198,2.365,1.4994,1.5521,1.6209,1.6525,1.7289,1.8008,1.8484,1.8709,1.8855,1.9109,1.904,1.8999,1.8934,1.7933,1.7301,1.7412,1.6785,1.6672,1.7422,1.8025,1.8423,1.8423,1.9087,1.9235,1.8798,1.9489,2.0285,2.1081,2.1121,0.0,0.0,0.0,0.0,0.0,2.1001,0.0,0.0,2.1456,2.09,1.9764,1.9536,1.9318,1.9083,1.8124,1.7816,1.79,1.7961,1.7983,1.8232,1.9665,2.0332,2.1053,2.3903,2.4311,2.3979,2.535,2.515,2.4446,2.4339,2.4617,2.5338,2.6944,2.7077,2.7179,2.8713,0.0,2.7884,2.6987,0.0,2.6718,2.5852,0.0,0.0,2.6714,2.6846,2.7155,2.8016,2.793,2.7766,2.7766,2.649,2.5905,2.6685,2.6747,2.6459,2.5749,2.6418,2.6522,2.5732,2.5698,2.5698,2.5694,2.57,2.5701,2.5699,2.5709,2.531,2.4547,2.4491,2.3999,2.3123,2.2347,2.2333,2.2876,2.2088,2.255,2.3769,2.3083,2.3152,2.3537,2.2149,2.2127,2.2862,2.2959,2.3901,2.5158,1.6164,1.6496,1.702,1.7869,1.8412,1.8896,1.9359,1.9609,1.9708,1.9695,1.9747,1.9811,1.9811,1.9095,1.8576,1.8536,1.8222,1.8187,1.8569,1.9166,1.9653,1.9926,2.0047,2.0071,2.0136,2.0288,2.0833,2.1695,2.1178,0.0,0.0,0.0,0.0,0.0,2.0606,2.0826,2.1402,2.2012,2.1823,2.1133,2.1078,2.0639,1.9849,1.8415,1.7922,1.8009,1.8087,1.813,1.828,1.9038,2.043,2.2004,2.2928,2.4011,2.5039,2.551,2.5014,2.4414,2.4819,2.4526,2.452,2.6247,2.6607,2.7001,2.8756,2.8937,2.8515,2.7675,0.0,0.0,0.0,0.0,0.0,0.0,2.7417,2.806,2.8922,2.8584,2.8244,2.8201,2.755,2.7043,2.6915,2.6907,2.6564,2.5757,2.6518,2.662,2.5751,2.5698,2.5698,2.5694,2.5693,2.5691,2.5707,2.5161,2.4697,2.4339,2.3794,2.3067,2.2172,2.1812,2.1804,2.2069,2.1695,2.223,2.336,2.3503,2.313,2.246,2.2268,2.2436,2.289,2.3392,2.3974,2.4591,1.7753,0.0,1.7836,1.8856,1.9338,1.9746,2.0092,2.0321,2.0372,2.0359,2.0472,2.0573,2.0623,2.0053,1.9641,1.9516,1.9382,1.9414,1.9713,2.0182,2.0717,2.1233,2.0992,2.0834,2.0939,2.0808,2.1097,2.1772,2.1,0.0,0.0,0.0,0.0,0.0,0.0,2.0934,2.1503,2.2204,2.2085,2.1409,2.1436,2.0967,2.0119,1.8572,1.807,1.8134,1.8172,1.8274,1.8467,1.921,2.0917,2.2764,2.2892,2.4218,2.5682,2.5468,2.4874,2.4432,2.4985,2.4528,2.4308,2.6019,2.6644,2.7248,2.8737,2.9156,2.8945,2.7879,2.7226,0.0,0.0,0.0,2.6793,2.7285,0.0,2.869,2.9805,2.9412,2.8998,2.8955,2.872,2.8209,2.734,2.7472,2.7168,2.6108,2.6847,2.6849,2.5722,2.5694,2.5696,2.5666,2.5681,2.5598,2.5342,2.4623,2.4029,2.3548,2.2916,2.2122,2.1243,2.1475,2.1678,2.185,2.1575,2.2085,2.3074,2.3228,2.2612,2.1662,2.2301,2.2713,2.2993,2.3438,2.3839,2.4259,1.9718,1.9086,0.0,0.0,1.9804,2.0396,2.056,2.0772,2.1033,2.1131,2.1033,2.1033,2.118,2.0448,1.9972,2.0,1.9563,1.9762,2.0775,2.0864,2.1223,2.1946,2.1714,2.1183,2.0343,2.0377,2.043,2.0445,2.0231,0.0,0.0,0.0,0.0,0.0,2.2062,2.154,2.085,2.1327,2.0649,1.9229,1.9406,1.9477,1.9351,1.8572,1.8253,1.819,1.8211,1.8339,1.8838,2.1119,2.2087,2.2765,2.5276,2.5728,2.5346,2.5386,2.5005,2.4566,2.4448,2.4549,2.5076,2.6827,2.7409,2.7822,2.8791,2.9056,2.8664,2.7071,2.6764,2.6565,2.5742,2.569,2.6293,0.0,2.8277,0.0,0.0,3.0836,3.0818,3.0801,3.0011,2.9129,2.8232,2.8909,2.871,2.6997,2.767,2.7417,2.5683,2.5661,2.5666,2.5616,2.5671,2.5288,2.4447,2.4282,2.3364,2.1693,2.1666,2.119,2.0369,2.1139,2.1947,2.2716,2.1799,2.2305,2.3621,2.1916,2.1649,2.2362,2.24,2.2874,2.3491,2.2795,2.3541,2.4879,2.0073,0.0,0.0,0.0,2.0726,2.1043,2.1486,2.1602,2.1608,2.1411,2.1356,2.1279,2.1124,2.0912,2.0688,2.0548,2.0376,2.0586,2.1241,2.1366,2.158,2.183,2.1989,2.1723,2.1045,2.0925,2.1077,2.1514,2.1218,0.0,0.0,0.0,0.0,0.0,0.0,2.1559,2.0744,2.2653,2.2641,2.1444,2.2478,2.2215,2.1044,1.9731,1.9257,1.9207,1.8759,1.8641,1.8912,2.0369,2.1578,2.2646,2.384,2.4685,2.5269,2.5465,2.5023,2.4557,2.5059,2.4233,2.3769,2.5952,2.585,2.5734,2.7694,2.7754,2.7255,2.6785,2.6265,2.5816,2.5619,2.6092,0.0,0.0,0.0,2.9502,0.0,3.0832,3.0832,3.0831,3.0078,2.9439,2.9155,2.887,2.8223,2.7044,2.7199,2.6829,2.566,2.5578,2.5574,2.5604,2.5571,2.543,2.5124,2.3941,2.3048,2.2453,2.1294,2.0589,2.0331,2.1139,2.1643,2.1895,2.2096,2.2484,2.2894,2.2277,2.1814,2.1456,2.1456,2.1942,2.2655,2.3081,2.3888,2.476,2.0926,2.1427,2.1656,2.1226,2.1394,2.1721,2.2193,2.2263,2.2161,2.1903,2.1787,2.1585,2.1222,2.1119,2.1004,2.0813,2.0777,2.1124,2.1825,2.1644,2.1783,2.2381,2.2191,2.1843,2.1368,2.1402,2.1568,2.1842,2.1973,2.2378,0.0,0.0,0.0,0.0,0.0,2.1922,2.1027,2.3153,2.3289,2.2231,2.3775,2.3683,2.2553,2.1616,2.0963,2.0504,1.9574,1.9489,1.992,2.0551,2.1662,2.2868,2.3469,2.4283,2.5041,2.5226,2.4907,2.4627,2.5129,2.4103,2.3341,2.5206,2.4822,2.4493,2.6381,2.6416,2.609,2.6179,2.5781,2.5422,2.554,2.6311,2.7191,0.0,0.0,0.0,0.0,3.0804,3.0804,3.0801,3.0331,2.9898,2.9581,2.9335,2.8586,2.7108,2.7238,2.6836,2.563,2.5551,2.554,2.556,2.5531,2.5208,2.458,2.3461,2.2589,2.1949,2.0795,2.0225,2.0263,2.1042,2.1378,2.1346,2.1828,2.2,2.1935,2.1576,2.1041,2.0471,2.0471,2.1143,2.2189,2.2834,2.3765,2.4707,2.2276,2.2572,2.2461,2.1476,2.1837,2.236,2.2694,2.2754,2.2673,2.2524,2.231,2.1948,2.1351,2.1114,2.0923,2.0797,2.0817,2.1292,2.2493,2.1728,2.1892,2.332,2.2282,2.1568,2.1358,2.1879,2.191,2.1404,2.2472,0.0,0.0,0.0,0.0,0.0,2.3555,2.2728,2.1816,2.2917,2.2722,2.1805,2.3329,2.3901,2.3858,2.4014,2.3343,2.206,2.0617,2.0789,2.1712,2.1696,2.2367,2.3347,2.4234,2.4547,2.4615,2.4682,2.4701,2.4701,2.4701,2.4143,2.3739,2.4623,2.435,2.41,2.4946,2.519,2.5243,2.5303,2.5361,2.5423,2.5479,2.6223,2.7137,0.0,0.0,0.0,3.0674,3.0791,3.0774,3.074,3.074,3.0429,2.9648,3.0242,2.9679,2.7251,2.7729,2.7366,2.5583,2.5601,2.5615,2.5492,2.5492,2.4697,2.3042,2.2944,2.2072,2.0427,2.0201,2.0117,2.0127,2.0874,2.1172,2.1111,2.1067,2.1028,2.0913,2.0001,1.9596,1.9559,1.9559,2.061,2.2114,2.2178,2.3266,2.4692,2.327,2.3413,2.3606,2.3925,2.3314,2.2984,2.3593,2.3566,2.3233,2.2531,2.2285,2.1881,2.1011,2.0871,2.0845,2.0811,2.0789,2.1072,2.1739,2.1666,2.1713,2.2077,2.2288,2.23,2.213,2.2556,2.2825,2.2948,2.3726,2.401,2.3895,0.0,0.0,0.0,0.0,2.4711,2.3872,2.5444,2.5801,2.5386,2.5829,2.5933,2.5734,2.5411,2.4985,2.4277,2.2223,2.1678,2.202,2.2648,2.305,2.3433,2.4302,2.4615,2.4666,2.4682,2.4698,2.4711,2.4711,2.3766,2.2992,2.3809,2.3076,2.2526,2.3976,2.4322,2.4534,2.5225,2.5387,2.5418,2.5486,2.5699,2.637,2.7946,2.9479,3.054,3.0771,3.079,3.0552,2.9905,2.9826,2.9996,3.0429,2.9548,2.8658,2.7936,2.7475,2.6738,2.5564,2.6074,2.6103,2.5445,2.5429,2.5224,2.483,2.3547,2.2686,2.2227,2.0881,2.0199,2.0127,2.0976,2.0891,2.0157,2.1365,2.1475,2.079,2.1139,2.0939,2.04,2.04,2.1059,2.2176,2.3484,2.4174,2.4476,2.4319,2.4234,2.4342,2.4894,2.4182,2.3553,2.3713,2.3952,2.3744,2.2736,2.2697,2.2362,2.1395,2.1116,2.099,2.0844,2.0844,2.1112,2.1705,2.1639,2.1658,2.1929,2.2143,2.2231,2.2143,2.2671,2.3175,2.3686,2.4475,2.4891,2.4877,0.0,0.0,0.0,0.0,2.5673,2.5116,2.6082,2.6612,2.6782,2.6507,2.6321,0.0,2.5893,2.5483,2.4928,2.3652,2.3182,2.3204,2.3313,2.3593,2.4001,2.45,2.4666,2.4701,2.4698,2.4711,2.4629,2.4312,2.3392,2.2574,2.2721,2.1866,2.144,2.3109,2.3503,2.3876,2.5136,2.5404,2.5434,2.5538,2.6113,2.7194,2.9005,3.0125,3.0764,3.0808,3.0765,3.0585,3.0126,2.9728,2.9847,3.0715,2.9277,2.8273,2.8207,2.7752,2.7059,2.6126,2.6459,2.6312,2.5464,2.5412,2.5249,2.4935,2.3972,2.3044,2.2188,2.1176,2.0403,1.9915,2.072,2.074,2.0206,2.1514,2.1752,2.1272,2.1701,2.144,2.0736,2.1118,2.1782,2.2687,2.405,2.4478,2.4389,2.5342,2.4999,2.4782,2.5116,2.4675,2.4063,2.3559,2.4014,2.403,2.2984,2.3162,2.2991,2.2011,2.1617,2.1324,2.1087,2.1039,2.1344,2.2052,2.1696,2.174,2.2328,2.1972,2.1803,2.1919,2.2578,2.3298,2.4047,2.501,2.5832,0.0,0.0,0.0,0.0,0.0,0.0,2.5996,2.5976,2.634,2.6841,2.6165,2.5845,2.5814,2.577,2.5316,2.4698,2.4711,2.4711,2.457,2.3843,2.4067,2.4698,2.4698,2.4698,2.4698,2.4692,2.4629,2.4415,2.3769,2.3042,2.2305,2.1653,2.0954,2.083,2.2458,2.2863,2.3376,2.5065,2.5421,2.5441,2.5564,2.6831,2.8364,2.9959,3.0296,3.0392,3.0457,3.0424,3.0399,3.0451,2.9705,0.0,3.0523,2.9217,2.8315,2.8366,2.8366,2.7913,2.685,2.6842,2.6455,2.5534,2.544,2.5048,2.4358,2.4226,2.3253,2.1474,2.1265,2.0613,1.9617,2.0255,2.0622,2.0739,2.1535,2.1959,2.2035,2.2035,2.1572,2.092,2.1684,2.2481,2.3283,2.4168,2.4428,2.4337,2.5759,2.5359,2.5235,2.6086,2.5303,2.4381,2.3898,2.3828,2.3531,2.2752,2.2928,2.2834,2.2059,2.2036,2.1965,2.1807,2.1866,2.1915,2.199,2.1949,2.1991,2.2166,2.2061,2.2181,2.2517,2.3011,2.374,2.4815,2.5497,2.6219,0.0,0.0,0.0,0.0,0.0,0.0,2.7073,2.7383,2.7281,2.6841,2.6165,2.5845,2.5739,2.5198,2.4873,2.4711,2.4757,2.4742,2.4673,2.4523,2.4579,2.4692,2.4692,2.4692,2.4692,2.4707,2.4275,2.3769,2.3631,2.2661,2.1653,2.1537,2.0954,2.085,2.2578,2.2926,2.3391,2.5132,2.5483,2.5492,2.5518,2.6384,2.7195,2.7511,2.8178,2.8661,2.8738,2.8732,2.8703,2.8658,2.7928,2.8047,2.9575,2.8857,2.8574,2.9223,2.9277,2.8548,2.6882,2.7478,2.7125,2.5557,2.5434,2.5329,2.5189,2.4322,2.3369,2.2354,2.1464,2.0521,1.9612,1.9735,2.0117,2.0739,2.15,2.2185,2.2811,2.2812,2.2316,2.1631,2.1844,2.2416,2.3229,2.4097,2.4284,2.4096,2.6358,2.596,2.5572,2.5726,2.5056,2.4264,2.3581,2.3348,2.3113,2.2841,2.313,2.3173,2.2627,2.2468,2.2313,2.2124,2.2136,2.2136,2.2124,2.2281,2.2381,2.2409,2.2554,2.2703,2.2902,2.3093,2.3808,2.5097,2.5501,2.6283,0.0,0.0,0.0,2.7904,0.0,2.7515,2.7432,2.6997,2.6637,2.6319,2.5611,2.5324,2.5241,2.4926,2.4757,2.4707,2.4742,2.4768,2.4808,2.4753,2.4783,2.4794,2.4704,2.4707,2.4629,2.4237,2.3874,2.3442,2.2718,2.202,2.14,2.1024,2.0662,2.085,2.2565,2.2952,2.3443,2.5147,2.5503,2.5631,2.6049,2.656,2.7034,2.7412,2.7846,2.8175,2.8235,2.8249,2.8249,2.8205,2.7485,2.7659,2.9333,2.8777,2.8632,2.9446,2.9539,2.8753,2.6957,2.7647,2.729,2.5492,2.5423,2.5351,2.5254,2.473,2.3976,2.2956,2.202,2.1045,2.0082,2.0082,2.0498,2.1301,2.2077,2.2886,2.3603,2.3162,2.305,2.3049,2.2711,2.3097,2.3874,2.4137,2.4154,2.4057,2.6582,2.6277,2.5857,2.5113,2.4702,2.4215,2.341,2.3062,2.2901,2.2946,2.3289,2.3457,2.3181,2.2926,2.2686,2.2439,2.2439,2.2439,2.2412,2.2651,2.2816,2.279,2.2995,2.3095,2.3095,2.3095,2.3736,2.5028,2.5349,2.6176,2.7432,2.7811,2.7964,2.7897,2.7585,2.7351,2.7105,2.621,2.5736,2.5597,2.5032,2.4798,2.4806,2.4836,2.4817,2.4768,2.4779,2.4874,2.4968,2.4898,2.4879,2.485,2.4557,2.4584,2.4595,2.3825,2.3512,2.3122,2.1847,2.1523,2.1363,2.0598,2.0534,2.1062,2.2552,2.2933,2.3411,2.4936,2.5117,2.5188,2.5817,2.6028,2.6345,2.7104,2.7278,2.74,2.7644,2.7667,2.7738,2.7902,2.737,2.7561,2.907,2.8839,2.8768,2.9216,2.962,2.9074,2.7269,2.7937,2.7556,2.5735,2.5655,2.5563,2.5363,2.5141,2.4435,2.3291,2.2436,2.1513,2.0519,2.0335,2.0813,2.1804,2.2281,2.2923,2.3639,2.3014,2.327,2.4007,2.336,2.3654,2.4357,2.4116,2.4001,2.3959,2.5598,2.5933,2.5967,2.4749,2.4688,2.4586,2.4002,2.3492,2.307,2.2842,2.3133,2.3323,2.3281,2.3372,2.336,2.3199,2.3247,2.3223,2.3126,2.3144,2.3144,2.307,2.3095,2.3095,2.3095,2.3095,2.3548,2.4461,2.5147,2.5976,2.6896,2.7649,2.7717,2.7215,2.7541,2.6946,2.5707,2.5853,2.5485,2.482,2.4802,2.4798,2.4821,2.4926,2.4966,2.498,2.5043,2.5149,2.5243,2.5115,2.5006,2.4769,2.3952,2.425,2.4704,2.3852,2.3214,2.2594,2.1729,2.159,2.1481,2.0611,2.0985,2.1804,2.2706,2.2907,2.3198,2.4211,2.382,2.3348,2.3423,2.3442,2.3745,2.4603,2.4736,2.5016,2.5829,2.5931,2.6208,2.6949,2.6958,2.7286,2.8238,2.902,2.9179,2.8476,2.9833,2.9929,2.8164,2.8845,2.8439,2.6646,2.6525,2.6388,2.6192,2.5278,2.4304,2.3291,2.23,2.1392,2.057,1.9782,2.0246,2.1678,2.1018,2.1233,2.2019,2.1927,2.2456,2.3265,2.296,2.3326,2.404,2.3881,2.3667,2.3463,2.5088,2.5337,2.5309,2.4471,2.442,2.4251,2.3579,2.3362,2.3241,2.3175,2.3217,2.3241,2.3241,2.3313,2.336,2.336,2.3336,2.3336,2.3313,2.3289,2.3241,2.3217,2.3217,2.3241,2.3289,2.3241,2.3654,2.4523,2.5216,2.5994,2.68,2.7299,2.7295,2.6845,2.6583,2.6171,2.567,2.5375,2.5042,2.4757,2.4798,2.4798,2.4821,2.4959,2.498,2.4942,2.5068,2.5182,2.5207,2.4619,2.4749,2.5069,2.4643,2.4745,2.4853,2.4072,2.3304,2.2543,2.181,2.1275,2.0966,2.114,2.1043,2.1288,2.2662,2.2551,2.2433,2.3339,2.3291,2.3095,2.3042,2.3494,2.3976,2.4291,2.4809,2.5306,2.5643,2.5703,2.582,2.6133,2.6171,2.6521,2.74,2.8299,2.8672,2.8339,2.9895,3.0074,2.8299,2.8474,2.8267,2.7503,2.64,2.591,2.6124,2.5234,2.4494,2.3872,2.2474,2.1633,2.1267,1.9911,2.0207,2.1768,2.1933,2.2464,2.3216,2.2754,2.3031,2.3732,2.3582,2.3687,2.384,2.3584,2.3486,2.3435,2.4819,2.5025,2.495,2.412,2.4196,2.4123,2.334,2.3289,2.3378,2.3407,2.3336,2.3313,2.336,2.3407,2.343,2.3471,2.3424,2.3383,2.3383,2.336,2.3313,2.3289,2.3289,2.3313,2.336,2.3313,2.362,2.4242,2.4974,2.563,2.6241,2.6747,2.6749,2.6314,2.5857,2.5595,2.5437,2.497,2.4757,2.4772,2.4783,2.4813,2.4875,2.5006,2.505,2.5037,2.5163,2.5284,2.5254,2.4647,2.4859,2.5293,2.4905,2.4949,2.4998,2.4226,2.359,2.297,2.2248,2.1797,2.1604,2.1959,2.1598,2.1487,2.273,2.2343,2.1904,2.252,2.25,2.2352,2.2302,2.3057,2.3732,2.3925,2.4713,2.5405,2.5664,2.5703,2.5703,2.5703,2.5918,2.6191,2.6582,2.7636,2.8183,2.7945,2.9306,2.9447,2.7862,2.8226,2.8216,2.7612,2.6362,2.5811,2.6081,2.5253,2.4678,2.4355,2.2641,2.1815,2.1762,2.0554,2.0519,2.1473,2.2537,2.3345,2.3842,2.3341,2.351,2.4095,2.3961,2.3819,2.3624,2.3277,2.3206,2.323,2.4733,2.5144,2.5136,2.3756,2.41,2.4349,2.3601,2.3494,2.3494,2.3494,2.3494,2.3562,2.3678,2.37,2.3656,2.3607,2.3603,2.3539,2.3407,2.3383,2.336,2.3313,2.3289,2.3289,2.3289,2.3289,2.3354,2.3401,2.4224,2.4718,2.4951,2.6008,2.6142,2.5523,2.5707,2.5381,2.4707,2.4707,2.4707,2.4707,2.4772,2.4875,2.5006,2.5141,2.5243,2.5302,2.5445,2.5499,2.5492,2.5488,2.548,2.5321,2.4331,2.4611,2.513,2.4265,2.4086,2.3983,2.3113,2.3499,2.3944,2.3093,2.2927,2.2968,2.3007,2.2386,2.1805,2.1813,2.1187,2.0625,2.0625,2.1348,2.2187,2.2987,2.3847,2.4726,2.5579,2.5703,2.5703,2.5701,2.64,2.6579,2.5799,2.7285,2.7947,2.7086,2.7825,2.7881,2.6862,2.8456,2.8524,2.6688,2.6592,2.6491,2.6295,2.5373,2.4804,2.4572,2.2757,2.1849,2.1799,2.1713,2.1239,2.0594,2.2278,2.3031,2.312,2.3189,2.3564,2.4059,2.3798,2.3558,2.3277,2.2927,2.2764,2.2712,2.4073,2.424,2.4262,2.3889,2.4018,2.4109,2.3813,2.3878,2.3978,2.3978,2.4058,2.4059,2.3919,2.3664,2.3522,2.3585,2.3517,2.3494,2.3539,2.3494,2.3471,2.3448,2.3448,2.3471,2.3517,2.3576,2.3685,2.3728,2.4592,2.5102,2.5328,2.5646,2.5523,2.4954,2.5022,2.492,2.4707,2.4757,2.4757,2.4772,2.4879,2.4968,2.5018,2.5254,2.5348,2.539,2.5511,2.557,2.557,2.5577,2.5538,2.5432,2.512,2.5205,2.5393,2.5103,2.4637,2.4138,2.3852,2.3562,2.3403,2.3702,2.3384,2.3164,2.3816,2.2871,2.1694,2.1091,2.0781,2.0781,2.1386,2.2167,2.3007,2.3847,2.4726,2.539,2.5659,2.5697,2.57,2.5703,2.5937,2.5976,2.5722,2.6737,2.7299,2.7015,2.8354,2.8743,2.7751,2.7615,2.7544,2.7479,2.6294,2.5872,2.6352,2.5386,2.4516,2.3764,2.2497,2.126,2.0129,2.1253,2.131,2.0596,2.2278,2.3013,2.3031,2.3154,2.3564,2.4059,2.3696,2.3432,2.3177,2.273,2.2632,2.2712,2.3798,2.3883,2.3983,2.4099,2.4118,2.4099,2.4059,2.4173,2.4247,2.4247,2.4321,2.4302,2.4135,2.3876,2.366,2.3607,2.3517,2.3522,2.3678,2.3656,2.3638,2.3707,2.3725,2.3728,2.3789,2.3858,2.3939,2.4018,2.4631,2.5004,2.5115,2.517,2.5013,2.4707,2.4707,2.4707,2.4707,2.4742,2.4802,2.4842,2.4961,2.5061,2.5126,2.5339,2.5434,2.5485,2.5564,2.5601,2.5601,2.5607,2.5576,2.5531,2.5506,2.5505,2.5503,2.5464,2.507,2.4652,2.4675,2.4295,2.4006,2.4577,2.4127,2.3591,2.3853,2.3103,2.2207,2.166,2.1542,2.1718,2.2245,2.3025,2.3769,2.4315,2.5136,2.5701,2.5691,2.5691,2.5698,2.5703,2.5703,2.5703,2.5703,2.6188,2.6514,2.6503,2.753,2.7831,2.7128,2.7142,2.7094,2.6901,2.5791,2.545,2.5972,2.526,2.4582,2.3959,2.2564,2.0984,1.936,2.0703,2.1181,2.1071,2.239,2.3143,2.3456,2.3546,2.3732,2.3941,2.357,2.33,2.3074,2.2642,2.2552,2.2632,2.3925,2.4118,2.4264,2.4317,2.4317,2.4318,2.4339,2.4321,2.4321,2.4321,2.4339,2.4321,2.4303,2.4266,2.4057,2.3674,2.3629,2.37,2.3816,2.3816,2.3901,2.4097,2.4116,2.4116,2.4116,2.4098,2.4154,2.4229,2.4426,2.4512,2.4512,2.4626,2.4707,2.4707,2.4707,2.4707,2.4704,2.4704,2.4794,2.4929,2.4975,2.5133,2.5318,2.539,2.5498,2.5607,2.5607,2.5607,2.5607,2.5599,2.5593,2.5601,2.5525,2.5499,2.5486,2.5441,2.5418,2.5434,2.5493,2.5505,2.5523,2.557,2.5044,2.4266,2.3396,2.3183,2.3163,2.3103,2.3103,2.3122,2.3181,2.3846,2.4414,2.4472,2.5174,2.57,2.57,2.5697,2.5699,2.5703,2.5703,2.5702,2.5702,2.5698,2.5726,2.5791,2.5798,2.5707,2.5499,2.7036,2.7078,2.5256,2.5201,2.5222,2.5292,2.5038,2.4812,2.4652,2.2722,2.0965,1.9399,2.0228,2.1035,2.1822,2.263,2.34,2.4116,2.4171,2.4036,2.3795,2.3437,2.3194,2.2977,2.2605,2.2487,2.2515,2.4476,2.4543,2.4607,2.467,2.4685,2.4654,2.461,2.4663,2.4679,2.4679,2.4676,2.4626,2.4461,2.4444,2.4302,2.3999,2.3979,2.3999,2.4039,2.4039,2.4058,2.4097,2.4116,2.4116,2.4116,2.4247,2.4425,2.4578,2.4626,2.4642,2.4642,2.4692,2.4707,2.4707,2.4707,2.4749,2.4847,2.4847,2.4942,2.5061,2.5186,2.5292,2.5387,2.5505,2.5595,2.5682,2.5682,2.5682,2.5663,2.5619,2.56,2.5593,2.5582,2.5538,2.5512,2.5543,2.5543,2.5562,2.5571,2.5576,2.558,2.5606,2.5497,2.5155,2.4296,2.4082,2.3906,2.3242,2.3105,2.33,2.3965,2.4258,2.4628,2.5271,2.5565,2.5703,2.57,2.5702,2.5703,2.5703,2.5703,2.5702,2.5701,2.5693,2.5974,2.6632,2.6698,2.6593,2.6408,2.6776,2.6453,2.5236,2.5198,2.5209,2.5222,2.4968,2.4043,2.2516,2.1438,2.0659,2.0244,2.1103,2.1565,2.1716,2.3235,2.3602,2.3197,2.3914,2.417,2.4054,2.3437,2.323,2.3153,2.2615,2.246,2.2515,2.4692,2.4768,2.4832,2.4794,2.4794,2.4783,2.4707,2.4723,2.4757,2.4757,2.4753,2.4704,2.4594,2.4594,2.4545,2.4391,2.4211,2.4136,2.4229,2.4229,2.4265,2.4373,2.4373,2.4373,2.4373,2.4476,2.4594,2.4707,2.4707,2.4707,2.4707,2.4707,2.4707,2.4707,2.4764,2.4832,2.4915,2.4975,2.5065,2.5205,2.5301,2.5395,2.5492,2.5574,2.563,2.5648,2.5648,2.5648,2.5648,2.5604,2.5591,2.559,2.5593,2.5582,2.5543,2.5598,2.5585,2.5556,2.56,2.5609,2.5615,2.5638,2.5663,2.5586,2.5098,2.498,2.4863,2.4394,2.4297,2.4433,2.4902,2.4999,2.5154,2.5622,2.5701,2.5701,2.5701,2.5703,2.5703,2.5703,2.5703,2.5702,2.57,2.5709,2.5893,2.6362,2.635,2.6246,2.6103,2.6075,2.5794,2.5214,2.5206,2.5198,2.519,2.4942,2.397,2.2334,2.1912,2.1455,2.102,2.1459,2.1844,2.2209,2.3123,2.3432,2.3338,2.3814,2.3955,2.3831,2.3376,2.3146,2.3025,2.2642,2.2515,2.2569,2.4738,2.4875,2.495,2.4827,2.4813,2.4783,2.4707,2.4707,2.4707,2.4707,2.4707,2.4707,2.4707,2.4707,2.4707,2.4707,2.4391,2.4247,2.4424,2.4459,2.4526,2.4692,2.4707,2.4707,2.4707,2.4707,2.4707,2.4707,2.4707,2.4707,2.4707,2.4707,2.4723,2.4753,2.4847,2.4929,2.4968,2.5077,2.5206,2.5359,2.5542,2.5628,2.5601,2.576,2.5712,2.561,2.561,2.561,2.5591,2.56,2.5595,2.5605,2.5604,2.5604,2.5591,2.5598,2.5561,2.5535,2.5593,2.562,2.5622,2.5683,2.5702,2.5702,2.5703,2.5703,2.5703,2.5703,2.5703,2.5703,2.5703,2.5701,2.5738,2.5875,2.5795,2.5756,2.5877,2.578,2.5703,2.5703,2.5703,2.5702,2.5699,2.5709,2.5698,2.5696,2.5576,2.5473,2.5395,2.534,2.5262,2.5191,2.5195,2.5184,2.513,2.4861,2.4132,2.296,2.296,2.2557,2.1753,2.1716,2.2153,2.2954,2.2932,2.3275,2.3876,2.3774,2.3624,2.3481,2.3199,2.2977,2.279,2.2632,2.2579,2.2605,2.495,2.4931,2.4884,2.4808,2.4802,2.4772,2.4707,2.4707,2.4707,2.4707,2.4707,2.4707,2.4707,2.4707,2.4707,2.4707,2.4642,2.461,2.4642,2.4642,2.4676,2.4707,2.4707,2.4707,2.4707,2.4768,2.4768,2.4707,2.4768,2.4768,2.4707,2.4707,2.4764,2.4874,2.4888,2.5038,2.5231,2.5264,2.5359,2.5542,2.6333,2.6242,2.5685,2.6422,2.6238,2.561,2.561,2.561,2.561,2.5591,2.5591,2.5605,2.5604,2.5595,2.5593,2.5603,2.5636,2.5662,2.5681,2.5681,2.5683,2.5702,2.5702,2.5701,2.5703,2.5701,2.5697,2.57,2.5697,2.5691,2.5691,2.5691,2.5943,2.6687,2.6184,2.5954,2.6698,2.6151,2.5703,2.5703,2.5702,2.5698,2.5691,2.5703,2.5693,2.5697,2.5586,2.5473,2.5395,2.534,2.5262,2.5191,2.5191,2.5063,2.4779,2.4505,2.3859,2.2829,2.2829,2.2737,2.2533,2.2628,2.3066,2.3735,2.3773,2.3808,2.3795,2.35,2.3427,2.3458,2.2892,2.2747,2.279,2.2596,2.2569,2.2605,2.501,2.4977,2.4917,2.4827,2.4798,2.4772,2.4707,2.4707,2.4707,2.4707,2.4707,2.4707,2.4707,2.4707,2.4707,2.4707,2.4707,2.4707,2.4707,2.4707,2.4707,2.4707,2.4719,2.4764,2.4808,2.4851,2.4851,2.4823,2.4837,2.4865,2.4855,2.4861,2.4929,2.5049,2.5099,2.5175,2.5303,2.541,2.5495,2.5621,2.6533,2.637,2.5698,2.6568,2.6354,2.5604,2.559,2.5609,2.5604,2.559,2.5609,2.5609,2.561,2.5593,2.5603,2.5636,2.5684,2.5698,2.5693,2.5693,2.5694,2.5696,2.5697,2.5697,2.5698,2.5696,2.5694,2.5694,2.5691,2.5707,2.5707,2.5709,2.5828,2.6238,2.5951,2.5837,2.6248,2.5955,2.5702,2.5702,2.5702,2.5699,2.5691,2.5707,2.5693,2.5656,2.5523,2.541,2.5339,2.5283,2.5228,2.5191,2.5082,2.4921,2.4707,2.4458,2.4026,2.3391,2.3391,2.3369,2.3288,2.3347,2.3549,2.3855,2.3876,2.3735,2.3522,2.345,2.3242,2.2993,2.2782,2.2659,2.2579,2.2515,2.2515,2.2569,2.501,2.4996,2.495,2.4827,2.4798,2.4787,2.4707,2.4707,2.4707,2.4707,2.4707,2.4707,2.4707,2.4707,2.4707,2.4707,2.4707,2.4707,2.4707,2.4723,2.4723,2.4723,2.4779,2.4851,2.4902,2.4934,2.4961,2.4955,2.4961,2.4994,2.5046,2.5049,2.5126,2.5244,2.5283,2.5318,2.5363,2.5524,2.5712,2.5952,2.6843,2.6687,2.5995,2.6868,2.6532,2.5601,2.5593,2.5607,2.5607,2.559,2.5595,2.5595,2.5625,2.5626,2.5625,2.5683,2.5699,2.5707,2.5707,2.5707,2.5707,2.5709,2.5691,2.5691,2.5709,2.5691,2.5691,2.5707,2.5707,2.5707,2.5707,2.5709,2.5771,2.5968,2.5832,2.5776,2.5973,2.5836,2.5699,2.57,2.5701,2.57,2.5691,2.5508,2.5425,2.5561,2.5258,2.5127,2.5264,2.5217,2.5168,2.5125,2.4947,2.4775,2.4626,2.4425,2.4192,2.3917,2.3917,2.3873,2.3804,2.3825,2.3789,2.371,2.371,2.354,2.3271,2.3283,2.3035,2.2642,2.2659,2.2525,2.2377,2.246,2.2487,2.2487,2.501,2.4964,2.4884,2.4808,2.4802,2.4791,2.4707,2.4707,2.4707,2.4707,2.4707,2.4707,2.4707,2.4707,2.4707,2.4707,2.4707,2.4707,2.4707,2.4768,2.4794,2.4794,2.4865,2.4902,2.4902,2.5025,2.5088,2.5091,2.5149,2.5184,2.5187,2.5196,2.5255,2.5385,2.5337,2.5363,2.5495,2.5557,2.6029,2.6793,2.7735,2.7585,2.6907,2.776,2.7068,2.5601,2.5601,2.5601,2.5593,2.5593,2.5609,2.5616,2.5666,2.5681,2.5683,2.5703,2.5699,2.5707,2.5707,2.5707,2.5707,2.5693,2.5691,2.5709,2.5693,2.5691,2.5707,2.5707,2.5707,2.5707,2.5707,2.5707,2.5963,2.6768,2.6238,2.5984,2.6792,2.6205,2.5696,2.5699,2.57,2.5697,2.5703,2.4914,2.4715,2.5453,2.4576,2.436,2.5157,2.5145,2.5057,2.4929,2.4794,2.4626,2.4424,2.4154,2.4016,2.3996,2.3917,2.3873,2.3804,2.3873,2.3728,2.344,2.3504,2.3371,2.3091,2.279,2.2694,2.2659,2.2349,2.2254,2.231,2.2377,2.2422,2.2422,2.4931,2.4964,2.4931,2.487,2.4861,2.485,2.4772,2.4757,2.4757,2.4707,2.4707,2.4707,2.4707,2.4707,2.4707,2.4707,2.4707,2.4723,2.4768,2.4798,2.4856,2.4972,2.5012,2.5069,2.5138,2.5198,2.5243,2.5293,2.5803,2.5829,2.541,2.6459,2.673,2.6346,2.6871,2.7129,2.7181,2.7198,2.7398,2.7748,2.8646,2.8476,2.7799,2.8671,2.7921,2.6415,2.6413,2.6067,2.5604,2.5606,2.5598,2.5603,2.568,2.5703,2.5702,2.5697,2.5691,2.5707,2.5707,2.5707,2.5707,2.5709,2.5709,2.5707,2.5709,2.5709,2.5707,2.5707,2.5707,2.5683,2.5651,2.5664,2.5806,2.6132,2.5922,2.5829,2.6145,2.5878,2.5632,2.5632,2.5637,2.56,2.5512,2.5221,2.5117,2.5301,2.4937,2.4826,2.5126,2.516,2.5032,2.4779,2.4738,2.461,2.4407,2.4229,2.4074,2.3996,2.3976,2.3935,2.3852,2.385,2.3707,2.345,2.3422,2.3206,2.2764,2.2694,2.2552,2.2394,2.2282,2.2282,2.231,2.2338,2.2338,2.2366,2.5608,2.5513,2.5418,2.5669,2.5471,2.5257,2.5182,2.4941,2.4757,2.4707,2.4707,2.4707,2.4707,2.4707,2.4707,2.4707,2.4707,2.4738,2.4813,2.4893,2.498,2.5101,2.5144,2.5206,2.5303,2.5322,2.55,2.5839,2.6393,2.6539,2.6376,2.753,2.7795,2.7328,2.7926,2.8198,2.8198,2.8198,2.8354,2.8651,2.9265,2.9143,2.8676,2.9264,2.8418,2.6899,2.6906,2.6347,2.5606,2.5611,2.5637,2.564,2.5683,2.5701,2.5698,2.5707,2.5705,2.5707,2.5707,2.5707,2.5707,2.5707,2.5707,2.5707,2.5707,2.5707,2.5707,2.5707,2.5707,2.5681,2.5616,2.5657,2.5685,2.5636,2.5648,2.5664,2.5664,2.5626,2.5613,2.5639,2.559,2.5537,2.5434,2.5182,2.5043,2.5154,2.4908,2.4832,2.5057,2.5125,2.5051,2.4768,2.4723,2.461,2.4407,2.4284,2.4151,2.4074,2.4074,2.4016,2.3917,2.3912,2.3728,2.3459,2.3359,2.3067,2.2642,2.2579,2.2432,2.2242,2.2282,2.231,2.231,2.231,2.231,2.231,2.7163,2.6744,2.6412,2.7327,2.6737,2.6095,2.6026,2.5264,2.4707,2.4707,2.4707,2.4707,2.4707,2.4707,2.4707,2.4707,2.4707,2.4738,2.4794,2.5056,2.5176,2.5114,2.522,2.5303,2.5313,2.5385,2.5858,2.6805,2.6825,2.7287,2.8188,2.8199,2.8213,2.8213,2.8223,2.8218,2.8218,2.8218,2.871,2.9499,2.9499,2.9499,2.9508,2.9514,2.8421,2.6926,2.69,2.6357,2.5633,2.5683,2.5703,2.5722,2.5712,2.5707,2.5707,2.5707,2.5707,2.5707,2.5707,2.5707,2.5707,2.5707,2.5707,2.5707,2.5707,2.5707,2.5707,2.5707,2.5707,2.5681,2.5609,2.5651,2.5654,2.5517,2.5556,2.5605,2.5593,2.5605,2.5616,2.5683,2.559,2.5503,2.5502,2.4535,2.4243,2.5034,2.4245,2.4081,2.4955,2.5057,2.5051,2.4898,2.4768,2.461,2.4389,2.4284,2.419,2.419,2.419,2.4132,2.3996,2.4074,2.3837,2.3392,2.3189,2.2933,2.2685,2.2405,2.231,2.231,2.231,2.231,2.231,2.231,2.231,2.231,2.74,2.7305,2.7229,2.7509,2.7343,2.7125,2.7058,2.6346,2.5821,2.5754,2.521,2.4832,2.4832,2.5395,2.5508,2.4889,2.5437,2.564,2.5195,2.5852,2.6235,2.6227,2.5685,2.5677,2.6338,2.6378,2.685,2.778,2.8384,2.853,2.8232,2.9455,2.9703,2.9138,2.9742,3.0015,3.0015,3.0015,3.0171,3.0409,3.0404,3.0414,3.0417,3.0403,2.9703,2.8648,2.8027,2.7656,2.7343,2.6807,2.6995,2.7362,2.6793,2.6618,2.6481,2.5881,2.5707,2.5683,2.5645,2.5639,2.5642,2.5683,2.5707,2.5707,2.5707,2.5707,2.5707,2.5707,2.5707,2.5681,2.5616,2.5654,2.5679,2.5574,2.5639,2.5676,2.5673,2.5589,2.5537,2.5552,2.5447,2.5316,2.5226,2.4926,2.4809,2.5013,2.4765,2.4733,2.4993,2.5051,2.4953,2.4636,2.4588,2.4424,2.4191,2.4209,2.419,2.419,2.419,2.417,2.4151,2.4074,2.3896,2.3671,2.3265,2.2958,2.2755,2.2443,2.231,2.231,2.231,2.231,2.231,2.231,2.231,2.231,2.8394,2.828,2.8184,2.8536,2.8294,2.8056,2.8023,2.731,2.675,2.6716,2.6261,2.5934,2.5964,2.6434,2.6555,2.6084,2.6278,2.6384,2.6333,2.6594,2.6881,2.7229,2.6773,2.6754,2.7291,2.7334,2.7795,2.8714,2.924,2.9416,2.924,3.0312,3.0526,3.0039,3.0565,3.0799,3.0804,3.0802,3.081,3.0794,3.0806,3.0793,3.0795,3.08,3.0252,2.9432,2.8896,2.85,2.8127,2.7647,2.7797,2.8125,2.7624,2.7256,2.6908,2.6366,2.5978,2.5683,2.5613,2.5601,2.5601,2.5613,2.5613,2.5613,2.5613,2.5613,2.5613,2.5613,2.5613,2.5601,2.5522,2.5589,2.5477,2.5032,2.5031,2.4942,2.4603,2.4785,2.4962,2.4949,2.5139,2.5216,2.5111,2.5072,2.5038,2.4991,2.5004,2.4999,2.4999,2.5044,2.4912,2.4586,2.4522,2.4407,2.4192,2.4171,2.417,2.419,2.419,2.419,2.4208,2.4132,2.4016,2.3896,2.3427,2.3105,2.2898,2.2535,2.2366,2.231,2.231,2.231,2.231,2.231,2.231,2.231,2.9808,2.9474,2.9174,2.9961,2.9455,2.8931,2.8931,2.8183,2.7637,2.7652,2.7576,2.7537,2.7637,2.7699,2.7766,2.7807,2.7161,2.7071,2.7873,2.7368,2.74,2.8197,2.8364,2.8403,2.8333,2.8325,2.8734,2.9611,2.9611,3.002,3.0799,3.0799,3.0799,3.0799,3.0804,3.0808,3.0789,3.0791,3.0804,3.0806,3.08,3.0801,3.08,3.0806,3.0313,2.9611,2.9526,2.9032,2.8434,2.8434,2.8434,2.8415,2.8337,2.7758,2.7081,2.7025,2.6386,2.5681,2.5609,2.5593,2.5565,2.5504,2.5486,2.5486,2.5498,2.5504,2.5504,2.5504,2.5504,2.5486,2.5418,2.546,2.5208,2.4282,2.4199,2.3956,2.3141,2.3709,2.4208,2.4205,2.4791,2.5166,2.5105,2.5038,2.501,2.501,2.501,2.501,2.501,2.4999,2.4893,2.4682,2.4554,2.4422,2.4265,2.4154,2.4132,2.419,2.419,2.419,2.419,2.419,2.417,2.4094,2.3588,2.33,2.3093,2.2677,2.2405,2.231,2.231,2.231,2.231,2.231,2.231,2.231,3.0095,3.0037,2.9947,3.0152,3.0018,2.9889,2.9889,2.9169,2.8624,2.8751,2.8149,2.7783,2.7894,2.8483,2.8608,2.8017,2.785,2.788,2.8119,2.8626,2.8992,2.9187,2.9859,3.0229,3.0219,2.9567,2.9649,3.0526,3.0526,3.0604,3.0799,3.0799,3.0799,3.0804,3.0798,3.0791,3.0794,3.0796,3.08,3.08,3.0796,3.0808,3.0806,3.0794,3.0681,3.0431,2.9749,2.9823,3.0243,3.0243,3.0243,3.0126,2.9437,2.8626,2.7816,2.7178,2.6386,2.5679,2.5547,2.5521,2.5498,2.5374,2.533,2.5374,2.548,2.5504,2.5504,2.5504,2.5504,2.5498,2.5486,2.5492,2.5428,2.5214,2.5189,2.5124,2.4937,2.4989,2.5037,2.5045,2.5088,2.5113,2.5101,2.5044,2.501,2.501,2.501,2.501,2.501,2.4991,2.4842,2.4474,2.4441,2.4284,2.3999,2.3998,2.4074,2.419,2.419,2.419,2.419,2.419,2.419,2.4154,2.357,2.3323,2.33,2.2677,2.2405,2.2377,2.231,2.231,2.231,2.231,2.231,2.231,3.0204,3.0204,3.0204,3.0204,3.0204,3.0213,3.0286,2.9902,2.9656,2.9757,2.9371,2.9137,2.9268,2.9656,2.9768,2.9369,2.8993,2.8957,2.9401,2.9469,2.9688,3.0098,3.0565,3.0799,3.0799,3.0351,3.0331,3.0799,3.0799,3.0799,3.0799,3.0806,3.0794,3.0798,3.0808,3.0795,3.0796,3.08,3.0796,3.0795,3.0791,3.0798,3.0794,3.0789,3.0799,3.0745,3.0282,3.0419,3.0804,3.0808,3.0789,3.0715,3.026,2.9526,2.875,2.8324,2.7287,2.6256,2.6143,2.5784,2.5425,2.5322,2.5303,2.5313,2.5398,2.5395,2.5395,2.5395,2.5395,2.5395,2.5395,2.5395,2.5279,2.4857,2.4788,2.4633,2.4223,2.4426,2.462,2.4591,2.4893,2.5089,2.5063,2.5018,2.5004,2.501,2.5004,2.5004,2.5004,2.5004,2.4823,2.4474,2.4458,2.4301,2.3996,2.4016,2.4094,2.419,2.419,2.419,2.419,2.419,2.4209,2.4172,2.3756,2.35,2.3323,2.2867,2.2579,2.2377,2.2338,2.231,2.231,2.231,2.231,2.231,3.0204,3.0204,3.0199,3.0226,3.0226,3.026,3.0398,3.0419,3.0452,3.0521,3.0529,3.0571,3.0704,3.073,3.0742,3.0799,3.0137,3.002,3.074,3.0117,3.0039,3.076,3.0799,3.0799,3.0799,3.0799,3.0799,3.0799,3.0799,3.0804,3.0793,3.0807,3.0804,3.0808,3.08,3.08,3.08,3.0804,3.0794,3.0791,3.0798,3.0799,3.0799,3.0799,3.0799,3.0799,3.0799,3.0799,3.0799,3.0793,3.07,3.0603,3.0751,3.0084,2.9281,2.9437,2.8247,2.6845,2.678,2.611,2.539,2.5313,2.5303,2.5303,2.5303,2.5303,2.5303,2.5303,2.5303,2.5303,2.5303,2.5303,2.5053,2.4351,2.4226,2.3967,2.3256,2.3696,2.4083,2.4038,2.4657,2.5063,2.5023,2.4999,2.4999,2.5023,2.5031,2.5025,2.5025,2.5025,2.4879,2.4554,2.4522,2.4389,2.4133,2.4113,2.4132,2.417,2.419,2.419,2.419,2.419,2.419,2.419,2.3976,2.3692,2.3369,2.3122,2.2833,2.2525,2.246,2.2377,2.2338,2.231,2.231,2.231,3.0204,3.0204,3.0226,3.0285,3.0297,3.0325,3.0462,3.0482,3.0535,3.0658,3.0665,3.0691,3.0784,3.0779,3.0794,3.0799,3.0682,3.0662,3.0779,3.0682,3.0682,3.0779,3.0799,3.0799,3.0799,3.0799,3.0799,3.0799,3.0799,3.0802,3.0794,3.0799,3.0792,3.08,3.0795,3.0806,3.0804,3.079,3.0793,3.0789,3.0804,3.0799,3.0799,3.0789,3.0808,3.0808,3.0808,3.0808,3.0808,3.0808,3.0302,2.982,3.057,2.9635,2.8429,2.9193,2.8133,2.6708,2.6644,2.6036,2.539,2.5313,2.5303,2.5303,2.5303,2.5303,2.5303,2.5303,2.5303,2.5303,2.5303,2.5303,2.5264,2.5149,2.5111,2.5072,2.4947,2.4952,2.4943,2.4931,2.4975,2.5004,2.4999,2.4993,2.5025,2.5089,2.5089,2.5089,2.5089,2.5089,2.4985,2.4775,2.4586,2.4424,2.4266,2.4152,2.4094,2.4113,2.417,2.419,2.419,2.419,2.419,2.419,2.3917,2.3795,2.3692,2.333,2.314,2.3084,2.2952,2.2764,2.2542,2.2349,2.231,2.231,3.0204,3.0234,3.0279,3.029,3.0359,3.0453,3.0587,3.0603,3.0646,3.0745,3.0765,3.0769,3.081,3.0793,3.0799,3.0799,3.0799,3.0804,3.0793,3.0793,3.0793,3.0793,3.0793,3.0808,3.0799,3.0799,3.0793,3.0798,3.0798,3.0796,3.0797,3.0801,3.0799,3.0793,3.0807,3.0794,3.079,3.0789,3.0799,3.0799,3.0799,3.0799,3.0799,3.0808,3.0808,3.0794,3.0794,3.0794,3.0711,3.0144,2.9705,2.9349,2.9227,2.863,2.8058,2.8454,2.764,2.6655,2.6648,2.6004,2.534,2.5322,2.5303,2.5303,2.5303,2.5303,2.5303,2.5303,2.5303,2.5303,2.5303,2.5303,2.5303,2.5303,2.5303,2.5303,2.5303,2.5182,2.508,2.5044,2.5025,2.4999,2.4993,2.5032,2.5063,2.5101,2.5095,2.5107,2.5107,2.5107,2.5019,2.4861,2.4771,2.4604,2.4374,2.4302,2.421,2.4094,2.417,2.419,2.419,2.417,2.417,2.419,2.4054,2.3896,2.3774,2.358,2.3376,2.3206,2.3084,2.2876,2.2579,2.2542,2.2432,2.231]}]]